<?xml version="1.0" encoding="UTF-8" standalone="no" ?>
<gpx xmlns="http://www.topografix.com/GPX/1/1" xmlns:xsi="http://www.w3.org/2001/XMLSchema-instance" xsi:schemaLocation="http://www.topografix.com/GPX/1/1 http://www.topografix.com/GPX/1/1/gpx.xsd" version="1.1" creator="VisuGPX - https://www.visugpx.com">
  <metadata>
    <name>Thoux - Cologne 2016-11-16</name>
    <desc><![CDATA[
]]></desc>
  </metadata>
  <trk>
    <name><![CDATA[Thoux - Cologne 2016-11-16]]></name>
    <extensions>
      <line xmlns="http://www.topografix.com/GPX/gpx_style/0/2">
        <width>4</width>
      </line>
    </extensions>
    <trkseg>
      <trkpt lat="43.68277" lon="0.99382">
        <ele>197.9</ele>
        <time>2016-11-16T09:05:15.000Z</time>
      </trkpt>
      <trkpt lat="43.68278" lon="0.99384">
        <ele>198</ele>
        <time>2016-11-16T09:05:16.000Z</time>
      </trkpt>
      <trkpt lat="43.68284" lon="0.99393">
        <ele>198</ele>
        <time>2016-11-16T09:05:26.000Z</time>
      </trkpt>
      <trkpt lat="43.68291" lon="0.994">
        <ele>197.6</ele>
        <time>2016-11-16T09:05:35.000Z</time>
      </trkpt>
      <trkpt lat="43.68301" lon="0.99404">
        <ele>197.5</ele>
        <time>2016-11-16T09:05:45.000Z</time>
      </trkpt>
      <trkpt lat="43.6831" lon="0.994">
        <ele>197.3</ele>
        <time>2016-11-16T09:05:54.000Z</time>
      </trkpt>
      <trkpt lat="43.68317" lon="0.99392">
        <ele>196.7</ele>
        <time>2016-11-16T09:06:04.000Z</time>
      </trkpt>
      <trkpt lat="43.68324" lon="0.99384">
        <ele>196.2</ele>
        <time>2016-11-16T09:06:12.000Z</time>
      </trkpt>
      <trkpt lat="43.68329" lon="0.99374">
        <ele>196</ele>
        <time>2016-11-16T09:06:20.000Z</time>
      </trkpt>
      <trkpt lat="43.68335" lon="0.99363">
        <ele>195.4</ele>
        <time>2016-11-16T09:06:28.000Z</time>
      </trkpt>
      <trkpt lat="43.68341" lon="0.99353">
        <ele>195.2</ele>
        <time>2016-11-16T09:06:36.000Z</time>
      </trkpt>
      <trkpt lat="43.68348" lon="0.99343">
        <ele>195.1</ele>
        <time>2016-11-16T09:06:44.000Z</time>
      </trkpt>
      <trkpt lat="43.68354" lon="0.99333">
        <ele>195.1</ele>
        <time>2016-11-16T09:06:52.000Z</time>
      </trkpt>
      <trkpt lat="43.68361" lon="0.99324">
        <ele>194.9</ele>
        <time>2016-11-16T09:07:01.000Z</time>
      </trkpt>
      <trkpt lat="43.68366" lon="0.99313">
        <ele>195.4</ele>
        <time>2016-11-16T09:07:08.000Z</time>
      </trkpt>
      <trkpt lat="43.68371" lon="0.99302">
        <ele>195.3</ele>
        <time>2016-11-16T09:07:16.000Z</time>
      </trkpt>
      <trkpt lat="43.68377" lon="0.99291">
        <ele>194.8</ele>
        <time>2016-11-16T09:07:24.000Z</time>
      </trkpt>
      <trkpt lat="43.68383" lon="0.99281">
        <ele>194.4</ele>
        <time>2016-11-16T09:07:30.000Z</time>
      </trkpt>
      <trkpt lat="43.68391" lon="0.99271">
        <ele>193.8</ele>
        <time>2016-11-16T09:07:38.000Z</time>
      </trkpt>
      <trkpt lat="43.684" lon="0.99273">
        <ele>193.3</ele>
        <time>2016-11-16T09:07:48.000Z</time>
      </trkpt>
      <trkpt lat="43.68407" lon="0.99282">
        <ele>192.8</ele>
        <time>2016-11-16T09:07:55.000Z</time>
      </trkpt>
      <trkpt lat="43.68414" lon="0.99291">
        <ele>191.7</ele>
        <time>2016-11-16T09:08:02.000Z</time>
      </trkpt>
      <trkpt lat="43.68421" lon="0.993">
        <ele>190.4</ele>
        <time>2016-11-16T09:08:10.000Z</time>
      </trkpt>
      <trkpt lat="43.68429" lon="0.99308">
        <ele>189</ele>
        <time>2016-11-16T09:08:19.000Z</time>
      </trkpt>
      <trkpt lat="43.68437" lon="0.99315">
        <ele>188.2</ele>
        <time>2016-11-16T09:08:26.000Z</time>
      </trkpt>
      <trkpt lat="43.68444" lon="0.99327">
        <ele>187.6</ele>
        <time>2016-11-16T09:08:33.000Z</time>
      </trkpt>
      <trkpt lat="43.68454" lon="0.99331">
        <ele>187.2</ele>
        <time>2016-11-16T09:08:39.000Z</time>
      </trkpt>
      <trkpt lat="43.68463" lon="0.99339">
        <ele>186.9</ele>
        <time>2016-11-16T09:08:47.000Z</time>
      </trkpt>
      <trkpt lat="43.68471" lon="0.99347">
        <ele>186.3</ele>
        <time>2016-11-16T09:08:54.000Z</time>
      </trkpt>
      <trkpt lat="43.68479" lon="0.99353">
        <ele>185.7</ele>
        <time>2016-11-16T09:08:59.000Z</time>
      </trkpt>
      <trkpt lat="43.68488" lon="0.99358">
        <ele>184.7</ele>
        <time>2016-11-16T09:09:07.000Z</time>
      </trkpt>
      <trkpt lat="43.68494" lon="0.9937">
        <ele>183.7</ele>
        <time>2016-11-16T09:09:16.000Z</time>
      </trkpt>
      <trkpt lat="43.68503" lon="0.99368">
        <ele>183.3</ele>
        <time>2016-11-16T09:09:20.000Z</time>
      </trkpt>
      <trkpt lat="43.68513" lon="0.99369">
        <ele>182.7</ele>
        <time>2016-11-16T09:09:25.000Z</time>
      </trkpt>
      <trkpt lat="43.68521" lon="0.99376">
        <ele>181.6</ele>
        <time>2016-11-16T09:09:37.000Z</time>
      </trkpt>
      <trkpt lat="43.68531" lon="0.99375">
        <ele>181.3</ele>
        <time>2016-11-16T09:09:43.000Z</time>
      </trkpt>
      <trkpt lat="43.68541" lon="0.99374">
        <ele>180.8</ele>
        <time>2016-11-16T09:09:52.000Z</time>
      </trkpt>
      <trkpt lat="43.68551" lon="0.99373">
        <ele>180.4</ele>
        <time>2016-11-16T09:10:01.000Z</time>
      </trkpt>
      <trkpt lat="43.68561" lon="0.99373">
        <ele>180</ele>
        <time>2016-11-16T09:10:10.000Z</time>
      </trkpt>
      <trkpt lat="43.68571" lon="0.99374">
        <ele>179.6</ele>
        <time>2016-11-16T09:10:16.000Z</time>
      </trkpt>
      <trkpt lat="43.6858" lon="0.99376">
        <ele>179</ele>
        <time>2016-11-16T09:10:24.000Z</time>
      </trkpt>
      <trkpt lat="43.68588" lon="0.99382">
        <ele>178.1</ele>
        <time>2016-11-16T09:10:35.000Z</time>
      </trkpt>
      <trkpt lat="43.68598" lon="0.99387">
        <ele>177.4</ele>
        <time>2016-11-16T09:10:43.000Z</time>
      </trkpt>
      <trkpt lat="43.68606" lon="0.99394">
        <ele>176.6</ele>
        <time>2016-11-16T09:10:51.000Z</time>
      </trkpt>
      <trkpt lat="43.68615" lon="0.99397">
        <ele>176</ele>
        <time>2016-11-16T09:10:58.000Z</time>
      </trkpt>
      <trkpt lat="43.68622" lon="0.99404">
        <ele>175.2</ele>
        <time>2016-11-16T09:11:05.000Z</time>
      </trkpt>
      <trkpt lat="43.6863" lon="0.99411">
        <ele>174.4</ele>
        <time>2016-11-16T09:11:15.000Z</time>
      </trkpt>
      <trkpt lat="43.68639" lon="0.99416">
        <ele>173.9</ele>
        <time>2016-11-16T09:11:23.000Z</time>
      </trkpt>
      <trkpt lat="43.68648" lon="0.9942">
        <ele>173.3</ele>
        <time>2016-11-16T09:11:30.000Z</time>
      </trkpt>
      <trkpt lat="43.68656" lon="0.99426">
        <ele>172.8</ele>
        <time>2016-11-16T09:11:39.000Z</time>
      </trkpt>
      <trkpt lat="43.68665" lon="0.99432">
        <ele>172.5</ele>
        <time>2016-11-16T09:11:46.000Z</time>
      </trkpt>
      <trkpt lat="43.68674" lon="0.99438">
        <ele>172.2</ele>
        <time>2016-11-16T09:11:53.000Z</time>
      </trkpt>
      <trkpt lat="43.68683" lon="0.99442">
        <ele>171.9</ele>
        <time>2016-11-16T09:11:58.000Z</time>
      </trkpt>
      <trkpt lat="43.68693" lon="0.99444">
        <ele>171.3</ele>
        <time>2016-11-16T09:12:05.000Z</time>
      </trkpt>
      <trkpt lat="43.68702" lon="0.99447">
        <ele>170.9</ele>
        <time>2016-11-16T09:12:12.000Z</time>
      </trkpt>
      <trkpt lat="43.68711" lon="0.99452">
        <ele>170.2</ele>
        <time>2016-11-16T09:12:21.000Z</time>
      </trkpt>
      <trkpt lat="43.6872" lon="0.99455">
        <ele>169.8</ele>
        <time>2016-11-16T09:12:27.000Z</time>
      </trkpt>
      <trkpt lat="43.68729" lon="0.99458">
        <ele>169.2</ele>
        <time>2016-11-16T09:12:34.000Z</time>
      </trkpt>
      <trkpt lat="43.68739" lon="0.99461">
        <ele>168.5</ele>
        <time>2016-11-16T09:12:42.000Z</time>
      </trkpt>
      <trkpt lat="43.68748" lon="0.99465">
        <ele>168</ele>
        <time>2016-11-16T09:12:49.000Z</time>
      </trkpt>
      <trkpt lat="43.68757" lon="0.99469">
        <ele>167.5</ele>
        <time>2016-11-16T09:12:56.000Z</time>
      </trkpt>
      <trkpt lat="43.68766" lon="0.99474">
        <ele>166.6</ele>
        <time>2016-11-16T09:13:05.000Z</time>
      </trkpt>
      <trkpt lat="43.68776" lon="0.99481">
        <ele>165.7</ele>
        <time>2016-11-16T09:13:14.000Z</time>
      </trkpt>
      <trkpt lat="43.68785" lon="0.99486">
        <ele>165.2</ele>
        <time>2016-11-16T09:13:21.000Z</time>
      </trkpt>
      <trkpt lat="43.68794" lon="0.99489">
        <ele>164</ele>
        <time>2016-11-16T09:13:28.000Z</time>
      </trkpt>
      <trkpt lat="43.68803" lon="0.99494">
        <ele>163</ele>
        <time>2016-11-16T09:13:36.000Z</time>
      </trkpt>
      <trkpt lat="43.68813" lon="0.99498">
        <ele>161.9</ele>
        <time>2016-11-16T09:13:44.000Z</time>
      </trkpt>
      <trkpt lat="43.68822" lon="0.99502">
        <ele>161</ele>
        <time>2016-11-16T09:13:54.000Z</time>
      </trkpt>
      <trkpt lat="43.68831" lon="0.99505">
        <ele>160.4</ele>
        <time>2016-11-16T09:14:03.000Z</time>
      </trkpt>
      <trkpt lat="43.6884" lon="0.99507">
        <ele>159.9</ele>
        <time>2016-11-16T09:14:11.000Z</time>
      </trkpt>
      <trkpt lat="43.6885" lon="0.99509">
        <ele>159.4</ele>
        <time>2016-11-16T09:14:18.000Z</time>
      </trkpt>
      <trkpt lat="43.68859" lon="0.99511">
        <ele>158.7</ele>
        <time>2016-11-16T09:14:29.000Z</time>
      </trkpt>
      <trkpt lat="43.68869" lon="0.99515">
        <ele>158.2</ele>
        <time>2016-11-16T09:14:37.000Z</time>
      </trkpt>
      <trkpt lat="43.68879" lon="0.99517">
        <ele>157.7</ele>
        <time>2016-11-16T09:14:45.000Z</time>
      </trkpt>
      <trkpt lat="43.68888" lon="0.99519">
        <ele>157.3</ele>
        <time>2016-11-16T09:14:52.000Z</time>
      </trkpt>
      <trkpt lat="43.68898" lon="0.9952">
        <ele>156.9</ele>
        <time>2016-11-16T09:15:01.000Z</time>
      </trkpt>
      <trkpt lat="43.68908" lon="0.99522">
        <ele>156.5</ele>
        <time>2016-11-16T09:15:09.000Z</time>
      </trkpt>
      <trkpt lat="43.68917" lon="0.99523">
        <ele>156.1</ele>
        <time>2016-11-16T09:15:16.000Z</time>
      </trkpt>
      <trkpt lat="43.68928" lon="0.99524">
        <ele>155.8</ele>
        <time>2016-11-16T09:15:24.000Z</time>
      </trkpt>
      <trkpt lat="43.68937" lon="0.99524">
        <ele>155.5</ele>
        <time>2016-11-16T09:15:32.000Z</time>
      </trkpt>
      <trkpt lat="43.68946" lon="0.99525">
        <ele>155</ele>
        <time>2016-11-16T09:15:41.000Z</time>
      </trkpt>
      <trkpt lat="43.68955" lon="0.99529">
        <ele>157.9</ele>
        <time>2016-11-16T09:15:50.000Z</time>
      </trkpt>
      <trkpt lat="43.68966" lon="0.9953">
        <ele>157.3</ele>
        <time>2016-11-16T09:15:58.000Z</time>
      </trkpt>
      <trkpt lat="43.68974" lon="0.99528">
        <ele>156.8</ele>
        <time>2016-11-16T09:16:06.000Z</time>
      </trkpt>
      <trkpt lat="43.68985" lon="0.99532">
        <ele>156.2</ele>
        <time>2016-11-16T09:16:14.000Z</time>
      </trkpt>
      <trkpt lat="43.68994" lon="0.9953">
        <ele>155.7</ele>
        <time>2016-11-16T09:16:22.000Z</time>
      </trkpt>
      <trkpt lat="43.69002" lon="0.99532">
        <ele>155.4</ele>
        <time>2016-11-16T09:16:29.000Z</time>
      </trkpt>
      <trkpt lat="43.69012" lon="0.99533">
        <ele>155.6</ele>
        <time>2016-11-16T09:16:36.000Z</time>
      </trkpt>
      <trkpt lat="43.69019" lon="0.99534">
        <ele>155.7</ele>
        <time>2016-11-16T09:16:44.000Z</time>
      </trkpt>
      <trkpt lat="43.69027" lon="0.99536">
        <ele>155.8</ele>
        <time>2016-11-16T09:16:51.000Z</time>
      </trkpt>
      <trkpt lat="43.69035" lon="0.99535">
        <ele>156</ele>
        <time>2016-11-16T09:16:53.000Z</time>
      </trkpt>
      <trkpt lat="43.69043" lon="0.99536">
        <ele>156.1</ele>
        <time>2016-11-16T09:17:01.000Z</time>
      </trkpt>
      <trkpt lat="43.69049" lon="0.99535">
        <ele>156.1</ele>
        <time>2016-11-16T09:17:06.000Z</time>
      </trkpt>
      <trkpt lat="43.69058" lon="0.99534">
        <ele>148.7</ele>
        <time>2016-11-16T09:17:13.000Z</time>
      </trkpt>
      <trkpt lat="43.69067" lon="0.99535">
        <ele>148.1</ele>
        <time>2016-11-16T09:17:22.000Z</time>
      </trkpt>
      <trkpt lat="43.69077" lon="0.99539">
        <ele>147.1</ele>
        <time>2016-11-16T09:17:30.000Z</time>
      </trkpt>
      <trkpt lat="43.69086" lon="0.99538">
        <ele>146.3</ele>
        <time>2016-11-16T09:17:38.000Z</time>
      </trkpt>
      <trkpt lat="43.69095" lon="0.9954">
        <ele>146.2</ele>
        <time>2016-11-16T09:17:48.000Z</time>
      </trkpt>
      <trkpt lat="43.69107" lon="0.99539">
        <ele>144.9</ele>
        <time>2016-11-16T09:19:38.000Z</time>
      </trkpt>
      <trkpt lat="43.69117" lon="0.99542">
        <ele>144.9</ele>
        <time>2016-11-16T09:19:45.000Z</time>
      </trkpt>
      <trkpt lat="43.69127" lon="0.99544">
        <ele>145</ele>
        <time>2016-11-16T09:19:53.000Z</time>
      </trkpt>
      <trkpt lat="43.69136" lon="0.99549">
        <ele>145</ele>
        <time>2016-11-16T09:20:03.000Z</time>
      </trkpt>
      <trkpt lat="43.69145" lon="0.9955">
        <ele>145</ele>
        <time>2016-11-16T09:20:10.000Z</time>
      </trkpt>
      <trkpt lat="43.69154" lon="0.99553">
        <ele>145</ele>
        <time>2016-11-16T09:20:19.000Z</time>
      </trkpt>
      <trkpt lat="43.69164" lon="0.99557">
        <ele>145.1</ele>
        <time>2016-11-16T09:20:30.000Z</time>
      </trkpt>
      <trkpt lat="43.69173" lon="0.99559">
        <ele>145.4</ele>
        <time>2016-11-16T09:20:39.000Z</time>
      </trkpt>
      <trkpt lat="43.69183" lon="0.99564">
        <ele>145.8</ele>
        <time>2016-11-16T09:20:49.000Z</time>
      </trkpt>
      <trkpt lat="43.69192" lon="0.99566">
        <ele>146.3</ele>
        <time>2016-11-16T09:20:57.000Z</time>
      </trkpt>
      <trkpt lat="43.69201" lon="0.99568">
        <ele>146.8</ele>
        <time>2016-11-16T09:21:07.000Z</time>
      </trkpt>
      <trkpt lat="43.6921" lon="0.99572">
        <ele>147.4</ele>
        <time>2016-11-16T09:21:16.000Z</time>
      </trkpt>
      <trkpt lat="43.69219" lon="0.99579">
        <ele>148</ele>
        <time>2016-11-16T09:21:25.000Z</time>
      </trkpt>
      <trkpt lat="43.69228" lon="0.99583">
        <ele>148.9</ele>
        <time>2016-11-16T09:21:34.000Z</time>
      </trkpt>
      <trkpt lat="43.69237" lon="0.99586">
        <ele>149.7</ele>
        <time>2016-11-16T09:21:44.000Z</time>
      </trkpt>
      <trkpt lat="43.69246" lon="0.99592">
        <ele>150.7</ele>
        <time>2016-11-16T09:21:55.000Z</time>
      </trkpt>
      <trkpt lat="43.69254" lon="0.996">
        <ele>151.6</ele>
        <time>2016-11-16T09:22:03.000Z</time>
      </trkpt>
      <trkpt lat="43.69262" lon="0.99603">
        <ele>153.2</ele>
        <time>2016-11-16T09:22:15.000Z</time>
      </trkpt>
      <trkpt lat="43.69271" lon="0.99607">
        <ele>154.8</ele>
        <time>2016-11-16T09:22:26.000Z</time>
      </trkpt>
      <trkpt lat="43.6928" lon="0.99613">
        <ele>157.3</ele>
        <time>2016-11-16T09:22:39.000Z</time>
      </trkpt>
      <trkpt lat="43.69288" lon="0.9962">
        <ele>158.9</ele>
        <time>2016-11-16T09:22:49.000Z</time>
      </trkpt>
      <trkpt lat="43.69296" lon="0.99627">
        <ele>160.7</ele>
        <time>2016-11-16T09:23:00.000Z</time>
      </trkpt>
      <trkpt lat="43.69305" lon="0.9963">
        <ele>162.8</ele>
        <time>2016-11-16T09:23:12.000Z</time>
      </trkpt>
      <trkpt lat="43.69316" lon="0.99638">
        <ele>166.1</ele>
        <time>2016-11-16T09:23:32.000Z</time>
      </trkpt>
      <trkpt lat="43.69326" lon="0.99645">
        <ele>168.4</ele>
        <time>2016-11-16T09:23:45.000Z</time>
      </trkpt>
      <trkpt lat="43.69334" lon="0.99651">
        <ele>170.2</ele>
        <time>2016-11-16T09:23:55.000Z</time>
      </trkpt>
      <trkpt lat="43.69343" lon="0.99656">
        <ele>172.5</ele>
        <time>2016-11-16T09:24:07.000Z</time>
      </trkpt>
      <trkpt lat="43.69351" lon="0.99662">
        <ele>174</ele>
        <time>2016-11-16T09:24:15.000Z</time>
      </trkpt>
      <trkpt lat="43.6936" lon="0.99666">
        <ele>175.9</ele>
        <time>2016-11-16T09:24:26.000Z</time>
      </trkpt>
      <trkpt lat="43.69369" lon="0.99671">
        <ele>177.7</ele>
        <time>2016-11-16T09:24:38.000Z</time>
      </trkpt>
      <trkpt lat="43.69377" lon="0.99677">
        <ele>178.9</ele>
        <time>2016-11-16T09:24:49.000Z</time>
      </trkpt>
      <trkpt lat="43.69372" lon="0.99689">
        <ele>180</ele>
        <time>2016-11-16T09:26:31.000Z</time>
      </trkpt>
      <trkpt lat="43.69365" lon="0.99698">
        <ele>180.1</ele>
        <time>2016-11-16T09:26:40.000Z</time>
      </trkpt>
      <trkpt lat="43.69356" lon="0.99701">
        <ele>179.8</ele>
        <time>2016-11-16T09:26:52.000Z</time>
      </trkpt>
      <trkpt lat="43.69347" lon="0.99706">
        <ele>179.6</ele>
        <time>2016-11-16T09:27:00.000Z</time>
      </trkpt>
      <trkpt lat="43.69338" lon="0.9971">
        <ele>179.3</ele>
        <time>2016-11-16T09:27:09.000Z</time>
      </trkpt>
      <trkpt lat="43.69329" lon="0.99718">
        <ele>179</ele>
        <time>2016-11-16T09:27:17.000Z</time>
      </trkpt>
      <trkpt lat="43.6932" lon="0.99723">
        <ele>178.3</ele>
        <time>2016-11-16T09:27:27.000Z</time>
      </trkpt>
      <trkpt lat="43.69312" lon="0.99732">
        <ele>177.6</ele>
        <time>2016-11-16T09:27:35.000Z</time>
      </trkpt>
      <trkpt lat="43.69303" lon="0.99737">
        <ele>177</ele>
        <time>2016-11-16T09:27:43.000Z</time>
      </trkpt>
      <trkpt lat="43.69295" lon="0.99743">
        <ele>176.1</ele>
        <time>2016-11-16T09:27:53.000Z</time>
      </trkpt>
      <trkpt lat="43.69287" lon="0.99751">
        <ele>175.4</ele>
        <time>2016-11-16T09:28:01.000Z</time>
      </trkpt>
      <trkpt lat="43.6928" lon="0.99759">
        <ele>174.7</ele>
        <time>2016-11-16T09:28:09.000Z</time>
      </trkpt>
      <trkpt lat="43.69272" lon="0.99767">
        <ele>173.9</ele>
        <time>2016-11-16T09:28:17.000Z</time>
      </trkpt>
      <trkpt lat="43.69264" lon="0.99773">
        <ele>173</ele>
        <time>2016-11-16T09:28:25.000Z</time>
      </trkpt>
      <trkpt lat="43.69255" lon="0.99778">
        <ele>172</ele>
        <time>2016-11-16T09:28:36.000Z</time>
      </trkpt>
      <trkpt lat="43.69247" lon="0.99785">
        <ele>171.4</ele>
        <time>2016-11-16T09:28:45.000Z</time>
      </trkpt>
      <trkpt lat="43.69238" lon="0.99791">
        <ele>170.7</ele>
        <time>2016-11-16T09:28:54.000Z</time>
      </trkpt>
      <trkpt lat="43.69229" lon="0.99796">
        <ele>170.1</ele>
        <time>2016-11-16T09:29:03.000Z</time>
      </trkpt>
      <trkpt lat="43.69221" lon="0.99803">
        <ele>169.6</ele>
        <time>2016-11-16T09:29:10.000Z</time>
      </trkpt>
      <trkpt lat="43.69212" lon="0.99808">
        <ele>168.4</ele>
        <time>2016-11-16T09:29:22.000Z</time>
      </trkpt>
      <trkpt lat="43.69202" lon="0.99807">
        <ele>167.4</ele>
        <time>2016-11-16T09:29:33.000Z</time>
      </trkpt>
      <trkpt lat="43.69193" lon="0.99808">
        <ele>166.5</ele>
        <time>2016-11-16T09:29:41.000Z</time>
      </trkpt>
      <trkpt lat="43.69184" lon="0.99812">
        <ele>165.6</ele>
        <time>2016-11-16T09:29:48.000Z</time>
      </trkpt>
      <trkpt lat="43.69174" lon="0.99812">
        <ele>164.9</ele>
        <time>2016-11-16T09:29:57.000Z</time>
      </trkpt>
      <trkpt lat="43.69165" lon="0.99815">
        <ele>163.9</ele>
        <time>2016-11-16T09:30:08.000Z</time>
      </trkpt>
      <trkpt lat="43.69158" lon="0.99824">
        <ele>163.3</ele>
        <time>2016-11-16T09:30:16.000Z</time>
      </trkpt>
      <trkpt lat="43.69157" lon="0.99837">
        <ele>162.5</ele>
        <time>2016-11-16T09:30:26.000Z</time>
      </trkpt>
      <trkpt lat="43.69158" lon="0.99843">
        <ele>178.8</ele>
        <time>2016-11-16T09:30:38.000Z</time>
      </trkpt>
      <trkpt lat="43.69157" lon="0.9985">
        <ele>162.3</ele>
        <time>2016-11-16T09:31:17.000Z</time>
      </trkpt>
      <trkpt lat="43.69163" lon="0.99862">
        <ele>162.4</ele>
        <time>2016-11-16T09:31:24.000Z</time>
      </trkpt>
      <trkpt lat="43.69171" lon="0.9987">
        <ele>162.3</ele>
        <time>2016-11-16T09:31:31.000Z</time>
      </trkpt>
      <trkpt lat="43.6918" lon="0.99877">
        <ele>162.1</ele>
        <time>2016-11-16T09:31:39.000Z</time>
      </trkpt>
      <trkpt lat="43.69188" lon="0.99885">
        <ele>162</ele>
        <time>2016-11-16T09:31:47.000Z</time>
      </trkpt>
      <trkpt lat="43.69197" lon="0.99891">
        <ele>162.2</ele>
        <time>2016-11-16T09:31:56.000Z</time>
      </trkpt>
      <trkpt lat="43.69205" lon="0.99897">
        <ele>162.4</ele>
        <time>2016-11-16T09:32:04.000Z</time>
      </trkpt>
      <trkpt lat="43.69215" lon="0.999">
        <ele>163</ele>
        <time>2016-11-16T09:32:13.000Z</time>
      </trkpt>
      <trkpt lat="43.69218" lon="0.99912">
        <ele>164</ele>
        <time>2016-11-16T09:32:46.000Z</time>
      </trkpt>
      <trkpt lat="43.69225" lon="0.99922">
        <ele>163.7</ele>
        <time>2016-11-16T09:32:57.000Z</time>
      </trkpt>
      <trkpt lat="43.6923" lon="0.99934">
        <ele>162.9</ele>
        <time>2016-11-16T09:33:08.000Z</time>
      </trkpt>
      <trkpt lat="43.69234" lon="0.99947">
        <ele>162.3</ele>
        <time>2016-11-16T09:33:17.000Z</time>
      </trkpt>
      <trkpt lat="43.69239" lon="0.99958">
        <ele>161.4</ele>
        <time>2016-11-16T09:33:27.000Z</time>
      </trkpt>
      <trkpt lat="43.69242" lon="0.9997">
        <ele>160.8</ele>
        <time>2016-11-16T09:33:36.000Z</time>
      </trkpt>
      <trkpt lat="43.69249" lon="0.99979">
        <ele>160.5</ele>
        <time>2016-11-16T09:33:43.000Z</time>
      </trkpt>
      <trkpt lat="43.69257" lon="0.99986">
        <ele>160.3</ele>
        <time>2016-11-16T09:33:52.000Z</time>
      </trkpt>
      <trkpt lat="43.69265" lon="0.99993">
        <ele>160.2</ele>
        <time>2016-11-16T09:34:00.000Z</time>
      </trkpt>
      <trkpt lat="43.69272" lon="1.00002">
        <ele>160.1</ele>
        <time>2016-11-16T09:34:10.000Z</time>
      </trkpt>
      <trkpt lat="43.69281" lon="1.00007">
        <ele>160.1</ele>
        <time>2016-11-16T09:34:18.000Z</time>
      </trkpt>
      <trkpt lat="43.69289" lon="1.00013">
        <ele>160.2</ele>
        <time>2016-11-16T09:34:26.000Z</time>
      </trkpt>
      <trkpt lat="43.69296" lon="1.00021">
        <ele>160.4</ele>
        <time>2016-11-16T09:34:36.000Z</time>
      </trkpt>
      <trkpt lat="43.69304" lon="1.00028">
        <ele>160.7</ele>
        <time>2016-11-16T09:34:44.000Z</time>
      </trkpt>
      <trkpt lat="43.693" lon="1.00039">
        <ele>162.1</ele>
        <time>2016-11-16T09:35:09.000Z</time>
      </trkpt>
      <trkpt lat="43.69294" lon="1.0005">
        <ele>161.8</ele>
        <time>2016-11-16T09:35:18.000Z</time>
      </trkpt>
      <trkpt lat="43.693" lon="1.0006">
        <ele>158.5</ele>
        <time>2016-11-16T09:38:49.000Z</time>
      </trkpt>
      <trkpt lat="43.69301" lon="1.00073">
        <ele>159.1</ele>
        <time>2016-11-16T09:39:15.000Z</time>
      </trkpt>
      <trkpt lat="43.69308" lon="1.00082">
        <ele>158.2</ele>
        <time>2016-11-16T09:39:28.000Z</time>
      </trkpt>
      <trkpt lat="43.69316" lon="1.00088">
        <ele>158</ele>
        <time>2016-11-16T09:39:49.000Z</time>
      </trkpt>
      <trkpt lat="43.69323" lon="1.00097">
        <ele>158</ele>
        <time>2016-11-16T09:39:57.000Z</time>
      </trkpt>
      <trkpt lat="43.69331" lon="1.00102">
        <ele>158.1</ele>
        <time>2016-11-16T09:40:07.000Z</time>
      </trkpt>
      <trkpt lat="43.69341" lon="1.00105">
        <ele>158.6</ele>
        <time>2016-11-16T09:40:18.000Z</time>
      </trkpt>
      <trkpt lat="43.69349" lon="1.00111">
        <ele>158.7</ele>
        <time>2016-11-16T09:40:27.000Z</time>
      </trkpt>
      <trkpt lat="43.69358" lon="1.00115">
        <ele>158.8</ele>
        <time>2016-11-16T09:40:41.000Z</time>
      </trkpt>
      <trkpt lat="43.69368" lon="1.00118">
        <ele>158.1</ele>
        <time>2016-11-16T09:40:59.000Z</time>
      </trkpt>
      <trkpt lat="43.69377" lon="1.00114">
        <ele>157.9</ele>
        <time>2016-11-16T09:41:06.000Z</time>
      </trkpt>
      <trkpt lat="43.69387" lon="1.00109">
        <ele>157.5</ele>
        <time>2016-11-16T09:41:14.000Z</time>
      </trkpt>
      <trkpt lat="43.69396" lon="1.00106">
        <ele>157.1</ele>
        <time>2016-11-16T09:41:23.000Z</time>
      </trkpt>
      <trkpt lat="43.69405" lon="1.00106">
        <ele>179.1</ele>
        <time>2016-11-16T09:41:30.000Z</time>
      </trkpt>
      <trkpt lat="43.69413" lon="1.00108">
        <ele>157.3</ele>
        <time>2016-11-16T09:41:38.000Z</time>
      </trkpt>
      <trkpt lat="43.69422" lon="1.00111">
        <ele>157.4</ele>
        <time>2016-11-16T09:41:47.000Z</time>
      </trkpt>
      <trkpt lat="43.69432" lon="1.00111">
        <ele>157.3</ele>
        <time>2016-11-16T09:41:55.000Z</time>
      </trkpt>
      <trkpt lat="43.69439" lon="1.00119">
        <ele>157.6</ele>
        <time>2016-11-16T09:42:07.000Z</time>
      </trkpt>
      <trkpt lat="43.69444" lon="1.00131">
        <ele>157.6</ele>
        <time>2016-11-16T09:42:14.000Z</time>
      </trkpt>
      <trkpt lat="43.69444" lon="1.00144">
        <ele>157.9</ele>
        <time>2016-11-16T09:42:28.000Z</time>
      </trkpt>
      <trkpt lat="43.69443" lon="1.00157">
        <ele>158</ele>
        <time>2016-11-16T09:42:44.000Z</time>
      </trkpt>
      <trkpt lat="43.6944" lon="1.00168">
        <ele>158.6</ele>
        <time>2016-11-16T09:42:54.000Z</time>
      </trkpt>
      <trkpt lat="43.69439" lon="1.00182">
        <ele>158.9</ele>
        <time>2016-11-16T09:43:05.000Z</time>
      </trkpt>
      <trkpt lat="43.6944" lon="1.00195">
        <ele>159.5</ele>
        <time>2016-11-16T09:43:17.000Z</time>
      </trkpt>
      <trkpt lat="43.69443" lon="1.00208">
        <ele>160.1</ele>
        <time>2016-11-16T09:43:27.000Z</time>
      </trkpt>
      <trkpt lat="43.69446" lon="1.00221">
        <ele>160.4</ele>
        <time>2016-11-16T09:43:36.000Z</time>
      </trkpt>
      <trkpt lat="43.69449" lon="1.00234">
        <ele>160.4</ele>
        <time>2016-11-16T09:43:43.000Z</time>
      </trkpt>
      <trkpt lat="43.69451" lon="1.00246">
        <ele>160.6</ele>
        <time>2016-11-16T09:43:51.000Z</time>
      </trkpt>
      <trkpt lat="43.69451" lon="1.00259">
        <ele>160.7</ele>
        <time>2016-11-16T09:43:59.000Z</time>
      </trkpt>
      <trkpt lat="43.69451" lon="1.00272">
        <ele>160.6</ele>
        <time>2016-11-16T09:44:07.000Z</time>
      </trkpt>
      <trkpt lat="43.69449" lon="1.00285">
        <ele>160.6</ele>
        <time>2016-11-16T09:44:14.000Z</time>
      </trkpt>
      <trkpt lat="43.69448" lon="1.00297">
        <ele>160.2</ele>
        <time>2016-11-16T09:44:25.000Z</time>
      </trkpt>
      <trkpt lat="43.69449" lon="1.00311">
        <ele>160</ele>
        <time>2016-11-16T09:44:34.000Z</time>
      </trkpt>
      <trkpt lat="43.69449" lon="1.00323">
        <ele>159.8</ele>
        <time>2016-11-16T09:44:42.000Z</time>
      </trkpt>
      <trkpt lat="43.69444" lon="1.00335">
        <ele>159.5</ele>
        <time>2016-11-16T09:44:51.000Z</time>
      </trkpt>
      <trkpt lat="43.69449" lon="1.00345">
        <ele>159.5</ele>
        <time>2016-11-16T09:45:01.000Z</time>
      </trkpt>
      <trkpt lat="43.69453" lon="1.00358">
        <ele>159.8</ele>
        <time>2016-11-16T09:45:13.000Z</time>
      </trkpt>
      <trkpt lat="43.69454" lon="1.00371">
        <ele>160.1</ele>
        <time>2016-11-16T09:45:25.000Z</time>
      </trkpt>
      <trkpt lat="43.69455" lon="1.00383">
        <ele>160.7</ele>
        <time>2016-11-16T09:45:34.000Z</time>
      </trkpt>
      <trkpt lat="43.69454" lon="1.00398">
        <ele>160.4</ele>
        <time>2016-11-16T09:45:44.000Z</time>
      </trkpt>
      <trkpt lat="43.69458" lon="1.0041">
        <ele>160.1</ele>
        <time>2016-11-16T09:45:53.000Z</time>
      </trkpt>
      <trkpt lat="43.69461" lon="1.00424">
        <ele>160</ele>
        <time>2016-11-16T09:46:02.000Z</time>
      </trkpt>
      <trkpt lat="43.69467" lon="1.00433">
        <ele>159.9</ele>
        <time>2016-11-16T09:46:13.000Z</time>
      </trkpt>
      <trkpt lat="43.69472" lon="1.00444">
        <ele>160.2</ele>
        <time>2016-11-16T09:46:24.000Z</time>
      </trkpt>
      <trkpt lat="43.69478" lon="1.00453">
        <ele>160.3</ele>
        <time>2016-11-16T09:46:32.000Z</time>
      </trkpt>
      <trkpt lat="43.69487" lon="1.00459">
        <ele>160.4</ele>
        <time>2016-11-16T09:46:41.000Z</time>
      </trkpt>
      <trkpt lat="43.69494" lon="1.00466">
        <ele>160.3</ele>
        <time>2016-11-16T09:46:50.000Z</time>
      </trkpt>
      <trkpt lat="43.69503" lon="1.00471">
        <ele>160</ele>
        <time>2016-11-16T09:47:00.000Z</time>
      </trkpt>
      <trkpt lat="43.69513" lon="1.00472">
        <ele>159.7</ele>
        <time>2016-11-16T09:47:08.000Z</time>
      </trkpt>
      <trkpt lat="43.69522" lon="1.00475">
        <ele>159.4</ele>
        <time>2016-11-16T09:47:18.000Z</time>
      </trkpt>
      <trkpt lat="43.69531" lon="1.00475">
        <ele>159</ele>
        <time>2016-11-16T09:47:31.000Z</time>
      </trkpt>
      <trkpt lat="43.69539" lon="1.00483">
        <ele>159</ele>
        <time>2016-11-16T09:47:41.000Z</time>
      </trkpt>
      <trkpt lat="43.69547" lon="1.00489">
        <ele>159</ele>
        <time>2016-11-16T09:47:49.000Z</time>
      </trkpt>
      <trkpt lat="43.69555" lon="1.00497">
        <ele>159.2</ele>
        <time>2016-11-16T09:48:00.000Z</time>
      </trkpt>
      <trkpt lat="43.69563" lon="1.00506">
        <ele>159.5</ele>
        <time>2016-11-16T09:48:12.000Z</time>
      </trkpt>
      <trkpt lat="43.69572" lon="1.00508">
        <ele>158.3</ele>
        <time>2016-11-16T09:48:23.000Z</time>
      </trkpt>
      <trkpt lat="43.69581" lon="1.00513">
        <ele>157.6</ele>
        <time>2016-11-16T09:48:34.000Z</time>
      </trkpt>
      <trkpt lat="43.6959" lon="1.00512">
        <ele>157.4</ele>
        <time>2016-11-16T09:48:45.000Z</time>
      </trkpt>
      <trkpt lat="43.69599" lon="1.00517">
        <ele>157.1</ele>
        <time>2016-11-16T09:48:56.000Z</time>
      </trkpt>
      <trkpt lat="43.69608" lon="1.00521">
        <ele>157.1</ele>
        <time>2016-11-16T09:49:04.000Z</time>
      </trkpt>
      <trkpt lat="43.69615" lon="1.00531">
        <ele>156.8</ele>
        <time>2016-11-16T09:49:17.000Z</time>
      </trkpt>
      <trkpt lat="43.69618" lon="1.00543">
        <ele>157.1</ele>
        <time>2016-11-16T09:49:21.000Z</time>
      </trkpt>
      <trkpt lat="43.69627" lon="1.00549">
        <ele>157.5</ele>
        <time>2016-11-16T09:49:27.000Z</time>
      </trkpt>
      <trkpt lat="43.69636" lon="1.00554">
        <ele>157</ele>
        <time>2016-11-16T09:49:33.000Z</time>
      </trkpt>
      <trkpt lat="43.69643" lon="1.00562">
        <ele>157.6</ele>
        <time>2016-11-16T09:49:47.000Z</time>
      </trkpt>
      <trkpt lat="43.69648" lon="1.00576">
        <ele>157.8</ele>
        <time>2016-11-16T09:49:55.000Z</time>
      </trkpt>
      <trkpt lat="43.69645" lon="1.00588">
        <ele>158.1</ele>
        <time>2016-11-16T09:50:04.000Z</time>
      </trkpt>
      <trkpt lat="43.69643" lon="1.006">
        <ele>158.8</ele>
        <time>2016-11-16T09:50:11.000Z</time>
      </trkpt>
      <trkpt lat="43.69651" lon="1.00607">
        <ele>159.2</ele>
        <time>2016-11-16T09:50:25.000Z</time>
      </trkpt>
      <trkpt lat="43.69659" lon="1.00614">
        <ele>160.3</ele>
        <time>2016-11-16T09:51:05.000Z</time>
      </trkpt>
      <trkpt lat="43.69662" lon="1.00627">
        <ele>159.6</ele>
        <time>2016-11-16T09:52:29.000Z</time>
      </trkpt>
      <trkpt lat="43.69671" lon="1.00634">
        <ele>159.9</ele>
        <time>2016-11-16T09:52:39.000Z</time>
      </trkpt>
      <trkpt lat="43.6968" lon="1.00634">
        <ele>159.7</ele>
        <time>2016-11-16T09:52:46.000Z</time>
      </trkpt>
      <trkpt lat="43.69689" lon="1.00629">
        <ele>159.8</ele>
        <time>2016-11-16T09:52:57.000Z</time>
      </trkpt>
      <trkpt lat="43.69698" lon="1.00625">
        <ele>159.4</ele>
        <time>2016-11-16T09:53:06.000Z</time>
      </trkpt>
      <trkpt lat="43.69706" lon="1.00621">
        <ele>159.3</ele>
        <time>2016-11-16T09:53:17.000Z</time>
      </trkpt>
      <trkpt lat="43.69716" lon="1.0062">
        <ele>159.3</ele>
        <time>2016-11-16T09:53:23.000Z</time>
      </trkpt>
      <trkpt lat="43.69725" lon="1.00616">
        <ele>159.4</ele>
        <time>2016-11-16T09:53:29.000Z</time>
      </trkpt>
      <trkpt lat="43.69733" lon="1.0061">
        <ele>159.6</ele>
        <time>2016-11-16T09:53:37.000Z</time>
      </trkpt>
      <trkpt lat="43.69742" lon="1.00607">
        <ele>160.2</ele>
        <time>2016-11-16T09:53:46.000Z</time>
      </trkpt>
      <trkpt lat="43.69749" lon="1.00599">
        <ele>160.7</ele>
        <time>2016-11-16T09:53:52.000Z</time>
      </trkpt>
      <trkpt lat="43.69759" lon="1.00602">
        <ele>161.7</ele>
        <time>2016-11-16T09:53:59.000Z</time>
      </trkpt>
      <trkpt lat="43.69765" lon="1.00593">
        <ele>162.5</ele>
        <time>2016-11-16T09:54:06.000Z</time>
      </trkpt>
      <trkpt lat="43.69773" lon="1.00586">
        <ele>163.3</ele>
        <time>2016-11-16T09:54:15.000Z</time>
      </trkpt>
      <trkpt lat="43.69783" lon="1.00585">
        <ele>164.5</ele>
        <time>2016-11-16T09:54:27.000Z</time>
      </trkpt>
      <trkpt lat="43.69792" lon="1.00581">
        <ele>165.3</ele>
        <time>2016-11-16T09:54:34.000Z</time>
      </trkpt>
      <trkpt lat="43.698" lon="1.00574">
        <ele>166.2</ele>
        <time>2016-11-16T09:54:44.000Z</time>
      </trkpt>
      <trkpt lat="43.69808" lon="1.00569">
        <ele>167.5</ele>
        <time>2016-11-16T09:54:56.000Z</time>
      </trkpt>
      <trkpt lat="43.69816" lon="1.00561">
        <ele>168.9</ele>
        <time>2016-11-16T09:55:08.000Z</time>
      </trkpt>
      <trkpt lat="43.69824" lon="1.00553">
        <ele>170.2</ele>
        <time>2016-11-16T09:55:18.000Z</time>
      </trkpt>
      <trkpt lat="43.69831" lon="1.00544">
        <ele>171.4</ele>
        <time>2016-11-16T09:55:28.000Z</time>
      </trkpt>
      <trkpt lat="43.69838" lon="1.00536">
        <ele>172.5</ele>
        <time>2016-11-16T09:55:38.000Z</time>
      </trkpt>
      <trkpt lat="43.69844" lon="1.00525">
        <ele>173.4</ele>
        <time>2016-11-16T09:55:47.000Z</time>
      </trkpt>
      <trkpt lat="43.69849" lon="1.00514">
        <ele>174.5</ele>
        <time>2016-11-16T09:55:57.000Z</time>
      </trkpt>
      <trkpt lat="43.69852" lon="1.00502">
        <ele>175</ele>
        <time>2016-11-16T09:56:08.000Z</time>
      </trkpt>
      <trkpt lat="43.69854" lon="1.00489">
        <ele>176.9</ele>
        <time>2016-11-16T09:56:18.000Z</time>
      </trkpt>
      <trkpt lat="43.69858" lon="1.00476">
        <ele>177.9</ele>
        <time>2016-11-16T09:56:26.000Z</time>
      </trkpt>
      <trkpt lat="43.6986" lon="1.00463">
        <ele>178.9</ele>
        <time>2016-11-16T09:56:41.000Z</time>
      </trkpt>
      <trkpt lat="43.69867" lon="1.00452">
        <ele>179.5</ele>
        <time>2016-11-16T09:56:50.000Z</time>
      </trkpt>
      <trkpt lat="43.6987" lon="1.00439">
        <ele>180.5</ele>
        <time>2016-11-16T09:56:59.000Z</time>
      </trkpt>
      <trkpt lat="43.69873" lon="1.00426">
        <ele>181.6</ele>
        <time>2016-11-16T09:57:07.000Z</time>
      </trkpt>
      <trkpt lat="43.69874" lon="1.00413">
        <ele>182.4</ele>
        <time>2016-11-16T09:57:15.000Z</time>
      </trkpt>
      <trkpt lat="43.69876" lon="1.004">
        <ele>183.9</ele>
        <time>2016-11-16T09:57:26.000Z</time>
      </trkpt>
      <trkpt lat="43.6988" lon="1.00388">
        <ele>184.6</ele>
        <time>2016-11-16T09:57:33.000Z</time>
      </trkpt>
      <trkpt lat="43.69883" lon="1.00376">
        <ele>186.1</ele>
        <time>2016-11-16T09:57:47.000Z</time>
      </trkpt>
      <trkpt lat="43.69884" lon="1.00363">
        <ele>186.6</ele>
        <time>2016-11-16T09:57:54.000Z</time>
      </trkpt>
      <trkpt lat="43.69887" lon="1.0035">
        <ele>187.3</ele>
        <time>2016-11-16T09:58:02.000Z</time>
      </trkpt>
      <trkpt lat="43.6989" lon="1.00338">
        <ele>187.6</ele>
        <time>2016-11-16T09:58:12.000Z</time>
      </trkpt>
      <trkpt lat="43.69893" lon="1.00326">
        <ele>187.5</ele>
        <time>2016-11-16T09:58:23.000Z</time>
      </trkpt>
      <trkpt lat="43.699" lon="1.00317">
        <ele>187.5</ele>
        <time>2016-11-16T09:58:32.000Z</time>
      </trkpt>
      <trkpt lat="43.69905" lon="1.00306">
        <ele>187.5</ele>
        <time>2016-11-16T09:58:40.000Z</time>
      </trkpt>
      <trkpt lat="43.69912" lon="1.00299">
        <ele>187.6</ele>
        <time>2016-11-16T09:58:47.000Z</time>
      </trkpt>
      <trkpt lat="43.69916" lon="1.00286">
        <ele>187.8</ele>
        <time>2016-11-16T09:58:56.000Z</time>
      </trkpt>
      <trkpt lat="43.69915" lon="1.00274">
        <ele>187.9</ele>
        <time>2016-11-16T09:59:04.000Z</time>
      </trkpt>
      <trkpt lat="43.69917" lon="1.00261">
        <ele>188.3</ele>
        <time>2016-11-16T09:59:12.000Z</time>
      </trkpt>
      <trkpt lat="43.69918" lon="1.00247">
        <ele>189.1</ele>
        <time>2016-11-16T09:59:19.000Z</time>
      </trkpt>
      <trkpt lat="43.69919" lon="1.00234">
        <ele>189.9</ele>
        <time>2016-11-16T09:59:27.000Z</time>
      </trkpt>
      <trkpt lat="43.6992" lon="1.00221">
        <ele>190.5</ele>
        <time>2016-11-16T09:59:35.000Z</time>
      </trkpt>
      <trkpt lat="43.69922" lon="1.00207">
        <ele>191</ele>
        <time>2016-11-16T09:59:44.000Z</time>
      </trkpt>
      <trkpt lat="43.69923" lon="1.00193">
        <ele>191.5</ele>
        <time>2016-11-16T09:59:51.000Z</time>
      </trkpt>
      <trkpt lat="43.69924" lon="1.00178">
        <ele>191.6</ele>
        <time>2016-11-16T10:00:00.000Z</time>
      </trkpt>
      <trkpt lat="43.69924" lon="1.00165">
        <ele>193.1</ele>
        <time>2016-11-16T10:00:07.000Z</time>
      </trkpt>
      <trkpt lat="43.69923" lon="1.00152">
        <ele>194.2</ele>
        <time>2016-11-16T10:00:15.000Z</time>
      </trkpt>
      <trkpt lat="43.69926" lon="1.0014">
        <ele>194.6</ele>
        <time>2016-11-16T10:00:25.000Z</time>
      </trkpt>
      <trkpt lat="43.69925" lon="1.00125">
        <ele>194.7</ele>
        <time>2016-11-16T10:00:34.000Z</time>
      </trkpt>
      <trkpt lat="43.69922" lon="1.00113">
        <ele>195.5</ele>
        <time>2016-11-16T10:00:44.000Z</time>
      </trkpt>
      <trkpt lat="43.69921" lon="1.001">
        <ele>196.2</ele>
        <time>2016-11-16T10:00:53.000Z</time>
      </trkpt>
      <trkpt lat="43.69917" lon="1.00087">
        <ele>196.9</ele>
        <time>2016-11-16T10:01:01.000Z</time>
      </trkpt>
      <trkpt lat="43.69916" lon="1.00073">
        <ele>197.3</ele>
        <time>2016-11-16T10:01:08.000Z</time>
      </trkpt>
      <trkpt lat="43.69914" lon="1.0006">
        <ele>197.8</ele>
        <time>2016-11-16T10:01:16.000Z</time>
      </trkpt>
      <trkpt lat="43.69912" lon="1.00048">
        <ele>198.4</ele>
        <time>2016-11-16T10:01:25.000Z</time>
      </trkpt>
      <trkpt lat="43.69912" lon="1.00034">
        <ele>198.9</ele>
        <time>2016-11-16T10:01:34.000Z</time>
      </trkpt>
      <trkpt lat="43.69914" lon="1.00022">
        <ele>199.4</ele>
        <time>2016-11-16T10:01:42.000Z</time>
      </trkpt>
      <trkpt lat="43.69917" lon="1.0001">
        <ele>200.2</ele>
        <time>2016-11-16T10:01:52.000Z</time>
      </trkpt>
      <trkpt lat="43.6992" lon="0.99997">
        <ele>200.8</ele>
        <time>2016-11-16T10:02:00.000Z</time>
      </trkpt>
      <trkpt lat="43.69923" lon="0.99986">
        <ele>201.4</ele>
        <time>2016-11-16T10:02:09.000Z</time>
      </trkpt>
      <trkpt lat="43.69927" lon="0.99972">
        <ele>201.7</ele>
        <time>2016-11-16T10:02:17.000Z</time>
      </trkpt>
      <trkpt lat="43.69934" lon="0.99962">
        <ele>202.2</ele>
        <time>2016-11-16T10:02:25.000Z</time>
      </trkpt>
      <trkpt lat="43.69939" lon="0.99951">
        <ele>202.5</ele>
        <time>2016-11-16T10:02:31.000Z</time>
      </trkpt>
      <trkpt lat="43.69943" lon="0.99939">
        <ele>202.8</ele>
        <time>2016-11-16T10:02:39.000Z</time>
      </trkpt>
      <trkpt lat="43.69942" lon="0.99926">
        <ele>203.1</ele>
        <time>2016-11-16T10:02:48.000Z</time>
      </trkpt>
      <trkpt lat="43.69946" lon="0.99915">
        <ele>199.7</ele>
        <time>2016-11-16T10:02:59.000Z</time>
      </trkpt>
      <trkpt lat="43.69951" lon="0.99913">
        <ele>204.3</ele>
        <time>2016-11-16T10:03:18.000Z</time>
      </trkpt>
      <trkpt lat="43.69959" lon="0.99919">
        <ele>203.8</ele>
        <time>2016-11-16T10:03:28.000Z</time>
      </trkpt>
      <trkpt lat="43.69967" lon="0.99925">
        <ele>203.3</ele>
        <time>2016-11-16T10:03:37.000Z</time>
      </trkpt>
      <trkpt lat="43.69977" lon="0.99926">
        <ele>202.9</ele>
        <time>2016-11-16T10:03:47.000Z</time>
      </trkpt>
      <trkpt lat="43.69984" lon="0.99934">
        <ele>202.1</ele>
        <time>2016-11-16T10:03:54.000Z</time>
      </trkpt>
      <trkpt lat="43.69993" lon="0.99939">
        <ele>201.2</ele>
        <time>2016-11-16T10:04:03.000Z</time>
      </trkpt>
      <trkpt lat="43.70002" lon="0.99945">
        <ele>200.3</ele>
        <time>2016-11-16T10:04:12.000Z</time>
      </trkpt>
      <trkpt lat="43.7001" lon="0.99952">
        <ele>199.7</ele>
        <time>2016-11-16T10:04:20.000Z</time>
      </trkpt>
      <trkpt lat="43.70017" lon="0.9996">
        <ele>198.3</ele>
        <time>2016-11-16T10:04:28.000Z</time>
      </trkpt>
      <trkpt lat="43.70024" lon="0.99969">
        <ele>196.5</ele>
        <time>2016-11-16T10:04:37.000Z</time>
      </trkpt>
      <trkpt lat="43.70032" lon="0.99975">
        <ele>195.3</ele>
        <time>2016-11-16T10:04:47.000Z</time>
      </trkpt>
      <trkpt lat="43.70041" lon="0.99983">
        <ele>194.1</ele>
        <time>2016-11-16T10:04:56.000Z</time>
      </trkpt>
      <trkpt lat="43.70047" lon="0.99992">
        <ele>192.7</ele>
        <time>2016-11-16T10:05:05.000Z</time>
      </trkpt>
      <trkpt lat="43.70053" lon="1.00002">
        <ele>191.2</ele>
        <time>2016-11-16T10:05:15.000Z</time>
      </trkpt>
      <trkpt lat="43.7006" lon="1.0001">
        <ele>190.2</ele>
        <time>2016-11-16T10:05:22.000Z</time>
      </trkpt>
      <trkpt lat="43.70068" lon="1.00017">
        <ele>189.4</ele>
        <time>2016-11-16T10:05:29.000Z</time>
      </trkpt>
      <trkpt lat="43.70075" lon="1.00025">
        <ele>188.8</ele>
        <time>2016-11-16T10:05:37.000Z</time>
      </trkpt>
      <trkpt lat="43.70083" lon="1.00032">
        <ele>188.3</ele>
        <time>2016-11-16T10:05:42.000Z</time>
      </trkpt>
      <trkpt lat="43.70091" lon="1.0004">
        <ele>187.8</ele>
        <time>2016-11-16T10:05:48.000Z</time>
      </trkpt>
      <trkpt lat="43.70101" lon="1.00038">
        <ele>186.4</ele>
        <time>2016-11-16T10:06:05.000Z</time>
      </trkpt>
      <trkpt lat="43.70108" lon="1.0003">
        <ele>186.4</ele>
        <time>2016-11-16T10:06:12.000Z</time>
      </trkpt>
      <trkpt lat="43.70116" lon="1.00022">
        <ele>186.3</ele>
        <time>2016-11-16T10:06:21.000Z</time>
      </trkpt>
      <trkpt lat="43.70123" lon="1.00012">
        <ele>186.3</ele>
        <time>2016-11-16T10:06:32.000Z</time>
      </trkpt>
      <trkpt lat="43.70132" lon="1.00006">
        <ele>186.5</ele>
        <time>2016-11-16T10:06:42.000Z</time>
      </trkpt>
      <trkpt lat="43.70132" lon="0.99993">
        <ele>187.1</ele>
        <time>2016-11-16T10:06:50.000Z</time>
      </trkpt>
      <trkpt lat="43.7013" lon="0.99979">
        <ele>187.9</ele>
        <time>2016-11-16T10:06:58.000Z</time>
      </trkpt>
      <trkpt lat="43.7013" lon="0.99966">
        <ele>188.4</ele>
        <time>2016-11-16T10:07:04.000Z</time>
      </trkpt>
      <trkpt lat="43.70134" lon="0.99955">
        <ele>189.4</ele>
        <time>2016-11-16T10:07:14.000Z</time>
      </trkpt>
      <trkpt lat="43.70139" lon="0.99943">
        <ele>190.3</ele>
        <time>2016-11-16T10:07:23.000Z</time>
      </trkpt>
      <trkpt lat="43.70145" lon="0.99932">
        <ele>191</ele>
        <time>2016-11-16T10:07:30.000Z</time>
      </trkpt>
      <trkpt lat="43.70147" lon="0.99919">
        <ele>191.7</ele>
        <time>2016-11-16T10:07:40.000Z</time>
      </trkpt>
      <trkpt lat="43.70151" lon="0.99907">
        <ele>192.6</ele>
        <time>2016-11-16T10:07:50.000Z</time>
      </trkpt>
      <trkpt lat="43.70156" lon="0.99897">
        <ele>193</ele>
        <time>2016-11-16T10:07:58.000Z</time>
      </trkpt>
      <trkpt lat="43.70161" lon="0.99886">
        <ele>193.7</ele>
        <time>2016-11-16T10:08:07.000Z</time>
      </trkpt>
      <trkpt lat="43.70166" lon="0.99875">
        <ele>194.3</ele>
        <time>2016-11-16T10:08:15.000Z</time>
      </trkpt>
      <trkpt lat="43.70175" lon="0.9987">
        <ele>195.9</ele>
        <time>2016-11-16T10:08:31.000Z</time>
      </trkpt>
      <trkpt lat="43.70184" lon="0.99876">
        <ele>196.3</ele>
        <time>2016-11-16T10:08:40.000Z</time>
      </trkpt>
      <trkpt lat="43.70193" lon="0.99877">
        <ele>196.5</ele>
        <time>2016-11-16T10:08:50.000Z</time>
      </trkpt>
      <trkpt lat="43.70202" lon="0.99879">
        <ele>196.9</ele>
        <time>2016-11-16T10:08:58.000Z</time>
      </trkpt>
      <trkpt lat="43.70211" lon="0.99884">
        <ele>197.7</ele>
        <time>2016-11-16T10:09:08.000Z</time>
      </trkpt>
      <trkpt lat="43.7022" lon="0.99888">
        <ele>199.2</ele>
        <time>2016-11-16T10:09:21.000Z</time>
      </trkpt>
      <trkpt lat="43.70229" lon="0.99892">
        <ele>201.6</ele>
        <time>2016-11-16T10:09:35.000Z</time>
      </trkpt>
      <trkpt lat="43.70238" lon="0.99896">
        <ele>203.3</ele>
        <time>2016-11-16T10:09:45.000Z</time>
      </trkpt>
      <trkpt lat="43.70247" lon="0.99899">
        <ele>204.3</ele>
        <time>2016-11-16T10:09:53.000Z</time>
      </trkpt>
      <trkpt lat="43.70256" lon="0.99904">
        <ele>205</ele>
        <time>2016-11-16T10:10:00.000Z</time>
      </trkpt>
      <trkpt lat="43.70264" lon="0.9991">
        <ele>205.6</ele>
        <time>2016-11-16T10:10:07.000Z</time>
      </trkpt>
      <trkpt lat="43.70273" lon="0.99913">
        <ele>206.1</ele>
        <time>2016-11-16T10:10:15.000Z</time>
      </trkpt>
      <trkpt lat="43.70283" lon="0.99916">
        <ele>206.5</ele>
        <time>2016-11-16T10:10:23.000Z</time>
      </trkpt>
      <trkpt lat="43.70292" lon="0.99921">
        <ele>206.9</ele>
        <time>2016-11-16T10:10:32.000Z</time>
      </trkpt>
      <trkpt lat="43.70301" lon="0.99924">
        <ele>209</ele>
        <time>2016-11-16T10:10:59.000Z</time>
      </trkpt>
      <trkpt lat="43.70312" lon="0.99924">
        <ele>209.6</ele>
        <time>2016-11-16T10:11:11.000Z</time>
      </trkpt>
      <trkpt lat="43.70322" lon="0.99924">
        <ele>210.4</ele>
        <time>2016-11-16T10:11:20.000Z</time>
      </trkpt>
      <trkpt lat="43.70331" lon="0.99923">
        <ele>211.2</ele>
        <time>2016-11-16T10:11:29.000Z</time>
      </trkpt>
      <trkpt lat="43.7034" lon="0.99921">
        <ele>212.3</ele>
        <time>2016-11-16T10:11:39.000Z</time>
      </trkpt>
      <trkpt lat="43.7035" lon="0.99922">
        <ele>213.7</ele>
        <time>2016-11-16T10:11:50.000Z</time>
      </trkpt>
      <trkpt lat="43.70359" lon="0.99923">
        <ele>214.9</ele>
        <time>2016-11-16T10:12:03.000Z</time>
      </trkpt>
      <trkpt lat="43.70368" lon="0.99924">
        <ele>215.7</ele>
        <time>2016-11-16T10:12:12.000Z</time>
      </trkpt>
      <trkpt lat="43.70377" lon="0.99925">
        <ele>216.4</ele>
        <time>2016-11-16T10:12:22.000Z</time>
      </trkpt>
      <trkpt lat="43.70387" lon="0.99923">
        <ele>216.9</ele>
        <time>2016-11-16T10:12:32.000Z</time>
      </trkpt>
      <trkpt lat="43.70396" lon="0.99924">
        <ele>217.3</ele>
        <time>2016-11-16T10:12:41.000Z</time>
      </trkpt>
      <trkpt lat="43.70405" lon="0.99927">
        <ele>217.8</ele>
        <time>2016-11-16T10:12:50.000Z</time>
      </trkpt>
      <trkpt lat="43.70415" lon="0.99927">
        <ele>218.8</ele>
        <time>2016-11-16T10:13:00.000Z</time>
      </trkpt>
      <trkpt lat="43.70424" lon="0.99926">
        <ele>219.8</ele>
        <time>2016-11-16T10:13:10.000Z</time>
      </trkpt>
      <trkpt lat="43.70425" lon="0.99912">
        <ele>221.7</ele>
        <time>2016-11-16T10:14:38.000Z</time>
      </trkpt>
      <trkpt lat="43.70423" lon="0.999">
        <ele>221.9</ele>
        <time>2016-11-16T10:14:46.000Z</time>
      </trkpt>
      <trkpt lat="43.70429" lon="0.99888">
        <ele>222</ele>
        <time>2016-11-16T10:14:53.000Z</time>
      </trkpt>
      <trkpt lat="43.70431" lon="0.99881">
        <ele>207</ele>
        <time>2016-11-16T10:15:00.000Z</time>
      </trkpt>
      <trkpt lat="43.70431" lon="0.9987">
        <ele>206.7</ele>
        <time>2016-11-16T10:15:08.000Z</time>
      </trkpt>
      <trkpt lat="43.70432" lon="0.99858">
        <ele>206.4</ele>
        <time>2016-11-16T10:15:17.000Z</time>
      </trkpt>
      <trkpt lat="43.70431" lon="0.99843">
        <ele>206.1</ele>
        <time>2016-11-16T10:15:26.000Z</time>
      </trkpt>
      <trkpt lat="43.70432" lon="0.99831">
        <ele>206</ele>
        <time>2016-11-16T10:15:35.000Z</time>
      </trkpt>
      <trkpt lat="43.70433" lon="0.99818">
        <ele>206.3</ele>
        <time>2016-11-16T10:15:44.000Z</time>
      </trkpt>
      <trkpt lat="43.70432" lon="0.99803">
        <ele>206.9</ele>
        <time>2016-11-16T10:15:52.000Z</time>
      </trkpt>
      <trkpt lat="43.70433" lon="0.99791">
        <ele>207.2</ele>
        <time>2016-11-16T10:16:00.000Z</time>
      </trkpt>
      <trkpt lat="43.70433" lon="0.99777">
        <ele>207.6</ele>
        <time>2016-11-16T10:16:10.000Z</time>
      </trkpt>
      <trkpt lat="43.70431" lon="0.99765">
        <ele>208.2</ele>
        <time>2016-11-16T10:16:18.000Z</time>
      </trkpt>
      <trkpt lat="43.70431" lon="0.9975">
        <ele>208.6</ele>
        <time>2016-11-16T10:16:26.000Z</time>
      </trkpt>
      <trkpt lat="43.70429" lon="0.99739">
        <ele>208.5</ele>
        <time>2016-11-16T10:16:35.000Z</time>
      </trkpt>
      <trkpt lat="43.70429" lon="0.99726">
        <ele>208.3</ele>
        <time>2016-11-16T10:16:43.000Z</time>
      </trkpt>
      <trkpt lat="43.70426" lon="0.99712">
        <ele>208.2</ele>
        <time>2016-11-16T10:16:50.000Z</time>
      </trkpt>
      <trkpt lat="43.70423" lon="0.99699">
        <ele>208.1</ele>
        <time>2016-11-16T10:16:58.000Z</time>
      </trkpt>
      <trkpt lat="43.7042" lon="0.99685">
        <ele>208.1</ele>
        <time>2016-11-16T10:17:07.000Z</time>
      </trkpt>
      <trkpt lat="43.70422" lon="0.99674">
        <ele>207.6</ele>
        <time>2016-11-16T10:17:19.000Z</time>
      </trkpt>
      <trkpt lat="43.70441" lon="0.99684">
        <ele>206</ele>
        <time>2016-11-16T10:17:30.000Z</time>
      </trkpt>
      <trkpt lat="43.70451" lon="0.99686">
        <ele>205.2</ele>
        <time>2016-11-16T10:17:39.000Z</time>
      </trkpt>
      <trkpt lat="43.7046" lon="0.99686">
        <ele>222.9</ele>
        <time>2016-11-16T10:17:49.000Z</time>
      </trkpt>
      <trkpt lat="43.7047" lon="0.9969">
        <ele>222.2</ele>
        <time>2016-11-16T10:17:59.000Z</time>
      </trkpt>
      <trkpt lat="43.7048" lon="0.99694">
        <ele>221.3</ele>
        <time>2016-11-16T10:18:08.000Z</time>
      </trkpt>
      <trkpt lat="43.70488" lon="0.99697">
        <ele>220.5</ele>
        <time>2016-11-16T10:18:17.000Z</time>
      </trkpt>
      <trkpt lat="43.70498" lon="0.99702">
        <ele>219.7</ele>
        <time>2016-11-16T10:18:27.000Z</time>
      </trkpt>
      <trkpt lat="43.70507" lon="0.99706">
        <ele>219.3</ele>
        <time>2016-11-16T10:18:36.000Z</time>
      </trkpt>
      <trkpt lat="43.70517" lon="0.99707">
        <ele>219.1</ele>
        <time>2016-11-16T10:18:44.000Z</time>
      </trkpt>
      <trkpt lat="43.70527" lon="0.9971">
        <ele>219.1</ele>
        <time>2016-11-16T10:18:52.000Z</time>
      </trkpt>
      <trkpt lat="43.70536" lon="0.99712">
        <ele>219</ele>
        <time>2016-11-16T10:19:02.000Z</time>
      </trkpt>
      <trkpt lat="43.70546" lon="0.99713">
        <ele>219</ele>
        <time>2016-11-16T10:19:10.000Z</time>
      </trkpt>
      <trkpt lat="43.70556" lon="0.99716">
        <ele>218.8</ele>
        <time>2016-11-16T10:19:18.000Z</time>
      </trkpt>
      <trkpt lat="43.70566" lon="0.99721">
        <ele>218.4</ele>
        <time>2016-11-16T10:19:28.000Z</time>
      </trkpt>
      <trkpt lat="43.70575" lon="0.99727">
        <ele>218.1</ele>
        <time>2016-11-16T10:19:38.000Z</time>
      </trkpt>
      <trkpt lat="43.70585" lon="0.99731">
        <ele>217.1</ele>
        <time>2016-11-16T10:19:48.000Z</time>
      </trkpt>
      <trkpt lat="43.70595" lon="0.99735">
        <ele>216.3</ele>
        <time>2016-11-16T10:19:55.000Z</time>
      </trkpt>
      <trkpt lat="43.70604" lon="0.99738">
        <ele>215.3</ele>
        <time>2016-11-16T10:20:03.000Z</time>
      </trkpt>
      <trkpt lat="43.70614" lon="0.99742">
        <ele>214.2</ele>
        <time>2016-11-16T10:20:12.000Z</time>
      </trkpt>
      <trkpt lat="43.70624" lon="0.99742">
        <ele>213.2</ele>
        <time>2016-11-16T10:20:22.000Z</time>
      </trkpt>
      <trkpt lat="43.70632" lon="0.99747">
        <ele>212.7</ele>
        <time>2016-11-16T10:20:29.000Z</time>
      </trkpt>
      <trkpt lat="43.70641" lon="0.9975">
        <ele>212.3</ele>
        <time>2016-11-16T10:20:38.000Z</time>
      </trkpt>
      <trkpt lat="43.7065" lon="0.99755">
        <ele>211.9</ele>
        <time>2016-11-16T10:20:46.000Z</time>
      </trkpt>
      <trkpt lat="43.70659" lon="0.99761">
        <ele>211.7</ele>
        <time>2016-11-16T10:20:54.000Z</time>
      </trkpt>
      <trkpt lat="43.70669" lon="0.99764">
        <ele>211.4</ele>
        <time>2016-11-16T10:21:03.000Z</time>
      </trkpt>
      <trkpt lat="43.70677" lon="0.99768">
        <ele>211.1</ele>
        <time>2016-11-16T10:21:12.000Z</time>
      </trkpt>
      <trkpt lat="43.70686" lon="0.99774">
        <ele>209.8</ele>
        <time>2016-11-16T10:21:23.000Z</time>
      </trkpt>
      <trkpt lat="43.70695" lon="0.99779">
        <ele>208.9</ele>
        <time>2016-11-16T10:21:32.000Z</time>
      </trkpt>
      <trkpt lat="43.70704" lon="0.99783">
        <ele>208.2</ele>
        <time>2016-11-16T10:21:41.000Z</time>
      </trkpt>
      <trkpt lat="43.70714" lon="0.99786">
        <ele>207.9</ele>
        <time>2016-11-16T10:21:48.000Z</time>
      </trkpt>
      <trkpt lat="43.70723" lon="0.99789">
        <ele>207.4</ele>
        <time>2016-11-16T10:21:55.000Z</time>
      </trkpt>
      <trkpt lat="43.70733" lon="0.99792">
        <ele>206.8</ele>
        <time>2016-11-16T10:22:02.000Z</time>
      </trkpt>
      <trkpt lat="43.70742" lon="0.99797">
        <ele>206.3</ele>
        <time>2016-11-16T10:22:11.000Z</time>
      </trkpt>
      <trkpt lat="43.70751" lon="0.99801">
        <ele>206.1</ele>
        <time>2016-11-16T10:22:21.000Z</time>
      </trkpt>
      <trkpt lat="43.7076" lon="0.99806">
        <ele>206.1</ele>
        <time>2016-11-16T10:22:28.000Z</time>
      </trkpt>
      <trkpt lat="43.70769" lon="0.99809">
        <ele>205.9</ele>
        <time>2016-11-16T10:22:36.000Z</time>
      </trkpt>
      <trkpt lat="43.70778" lon="0.99811">
        <ele>205.1</ele>
        <time>2016-11-16T10:22:49.000Z</time>
      </trkpt>
      <trkpt lat="43.70788" lon="0.99809">
        <ele>204.7</ele>
        <time>2016-11-16T10:24:13.000Z</time>
      </trkpt>
      <trkpt lat="43.70797" lon="0.99814">
        <ele>204.8</ele>
        <time>2016-11-16T10:24:23.000Z</time>
      </trkpt>
      <trkpt lat="43.70804" lon="0.99824">
        <ele>205</ele>
        <time>2016-11-16T10:24:34.000Z</time>
      </trkpt>
      <trkpt lat="43.70813" lon="0.99829">
        <ele>205.3</ele>
        <time>2016-11-16T10:24:43.000Z</time>
      </trkpt>
      <trkpt lat="43.70822" lon="0.99833">
        <ele>206.4</ele>
        <time>2016-11-16T10:24:55.000Z</time>
      </trkpt>
      <trkpt lat="43.70832" lon="0.99835">
        <ele>206.8</ele>
        <time>2016-11-16T10:25:00.000Z</time>
      </trkpt>
      <trkpt lat="43.70842" lon="0.99835">
        <ele>207.8</ele>
        <time>2016-11-16T10:25:09.000Z</time>
      </trkpt>
      <trkpt lat="43.70851" lon="0.99837">
        <ele>208.7</ele>
        <time>2016-11-16T10:25:16.000Z</time>
      </trkpt>
      <trkpt lat="43.70861" lon="0.99837">
        <ele>209.5</ele>
        <time>2016-11-16T10:25:23.000Z</time>
      </trkpt>
      <trkpt lat="43.70871" lon="0.99836">
        <ele>210.3</ele>
        <time>2016-11-16T10:25:30.000Z</time>
      </trkpt>
      <trkpt lat="43.7088" lon="0.99838">
        <ele>211.1</ele>
        <time>2016-11-16T10:25:38.000Z</time>
      </trkpt>
      <trkpt lat="43.70889" lon="0.99838">
        <ele>212</ele>
        <time>2016-11-16T10:25:47.000Z</time>
      </trkpt>
      <trkpt lat="43.70898" lon="0.9984">
        <ele>213</ele>
        <time>2016-11-16T10:25:58.000Z</time>
      </trkpt>
      <trkpt lat="43.70908" lon="0.99841">
        <ele>213.7</ele>
        <time>2016-11-16T10:26:07.000Z</time>
      </trkpt>
      <trkpt lat="43.70918" lon="0.99842">
        <ele>214.7</ele>
        <time>2016-11-16T10:26:17.000Z</time>
      </trkpt>
      <trkpt lat="43.70927" lon="0.99844">
        <ele>215.8</ele>
        <time>2016-11-16T10:26:29.000Z</time>
      </trkpt>
      <trkpt lat="43.70937" lon="0.99843">
        <ele>216.5</ele>
        <time>2016-11-16T10:26:38.000Z</time>
      </trkpt>
      <trkpt lat="43.70946" lon="0.99842">
        <ele>217.5</ele>
        <time>2016-11-16T10:26:48.000Z</time>
      </trkpt>
      <trkpt lat="43.70956" lon="0.99839">
        <ele>218.5</ele>
        <time>2016-11-16T10:27:00.000Z</time>
      </trkpt>
      <trkpt lat="43.70964" lon="0.99833">
        <ele>219.2</ele>
        <time>2016-11-16T10:27:08.000Z</time>
      </trkpt>
      <trkpt lat="43.70974" lon="0.99832">
        <ele>220.1</ele>
        <time>2016-11-16T10:27:17.000Z</time>
      </trkpt>
      <trkpt lat="43.70983" lon="0.9983">
        <ele>221.3</ele>
        <time>2016-11-16T10:27:28.000Z</time>
      </trkpt>
      <trkpt lat="43.70992" lon="0.99826">
        <ele>222.2</ele>
        <time>2016-11-16T10:27:38.000Z</time>
      </trkpt>
      <trkpt lat="43.71001" lon="0.99825">
        <ele>223.4</ele>
        <time>2016-11-16T10:27:49.000Z</time>
      </trkpt>
      <trkpt lat="43.71011" lon="0.99823">
        <ele>224.5</ele>
        <time>2016-11-16T10:27:59.000Z</time>
      </trkpt>
      <trkpt lat="43.7102" lon="0.99822">
        <ele>225.8</ele>
        <time>2016-11-16T10:28:13.000Z</time>
      </trkpt>
      <trkpt lat="43.71029" lon="0.99823">
        <ele>226.5</ele>
        <time>2016-11-16T10:28:22.000Z</time>
      </trkpt>
      <trkpt lat="43.71039" lon="0.99824">
        <ele>227</ele>
        <time>2016-11-16T10:28:31.000Z</time>
      </trkpt>
      <trkpt lat="43.71048" lon="0.99824">
        <ele>227.4</ele>
        <time>2016-11-16T10:28:42.000Z</time>
      </trkpt>
      <trkpt lat="43.71056" lon="0.99829">
        <ele>227.4</ele>
        <time>2016-11-16T10:28:51.000Z</time>
      </trkpt>
      <trkpt lat="43.71066" lon="0.99829">
        <ele>227</ele>
        <time>2016-11-16T10:29:00.000Z</time>
      </trkpt>
      <trkpt lat="43.71075" lon="0.9983">
        <ele>226.2</ele>
        <time>2016-11-16T10:29:10.000Z</time>
      </trkpt>
      <trkpt lat="43.71084" lon="0.99832">
        <ele>224.8</ele>
        <time>2016-11-16T10:29:21.000Z</time>
      </trkpt>
      <trkpt lat="43.71093" lon="0.99833">
        <ele>223.4</ele>
        <time>2016-11-16T10:29:30.000Z</time>
      </trkpt>
      <trkpt lat="43.71102" lon="0.99838">
        <ele>221.8</ele>
        <time>2016-11-16T10:29:42.000Z</time>
      </trkpt>
      <trkpt lat="43.71112" lon="0.99838">
        <ele>220.1</ele>
        <time>2016-11-16T10:29:59.000Z</time>
      </trkpt>
      <trkpt lat="43.71122" lon="0.99839">
        <ele>219.6</ele>
        <time>2016-11-16T10:30:04.000Z</time>
      </trkpt>
      <trkpt lat="43.71132" lon="0.99844">
        <ele>219</ele>
        <time>2016-11-16T10:30:10.000Z</time>
      </trkpt>
      <trkpt lat="43.71141" lon="0.99845">
        <ele>218.3</ele>
        <time>2016-11-16T10:30:20.000Z</time>
      </trkpt>
      <trkpt lat="43.7115" lon="0.99848">
        <ele>217.5</ele>
        <time>2016-11-16T10:30:28.000Z</time>
      </trkpt>
      <trkpt lat="43.71159" lon="0.99853">
        <ele>216.7</ele>
        <time>2016-11-16T10:30:37.000Z</time>
      </trkpt>
      <trkpt lat="43.71168" lon="0.99857">
        <ele>216.4</ele>
        <time>2016-11-16T10:30:42.000Z</time>
      </trkpt>
      <trkpt lat="43.71177" lon="0.99859">
        <ele>215.7</ele>
        <time>2016-11-16T10:30:49.000Z</time>
      </trkpt>
      <trkpt lat="43.71186" lon="0.99864">
        <ele>214.9</ele>
        <time>2016-11-16T10:30:58.000Z</time>
      </trkpt>
      <trkpt lat="43.71195" lon="0.99866">
        <ele>214.4</ele>
        <time>2016-11-16T10:31:06.000Z</time>
      </trkpt>
      <trkpt lat="43.71206" lon="0.99869">
        <ele>213.8</ele>
        <time>2016-11-16T10:31:13.000Z</time>
      </trkpt>
      <trkpt lat="43.71215" lon="0.99875">
        <ele>213.2</ele>
        <time>2016-11-16T10:31:21.000Z</time>
      </trkpt>
      <trkpt lat="43.71224" lon="0.99876">
        <ele>212.7</ele>
        <time>2016-11-16T10:31:28.000Z</time>
      </trkpt>
      <trkpt lat="43.71231" lon="0.99884">
        <ele>210.8</ele>
        <time>2016-11-16T10:31:41.000Z</time>
      </trkpt>
      <trkpt lat="43.71239" lon="0.99891">
        <ele>209.3</ele>
        <time>2016-11-16T10:31:55.000Z</time>
      </trkpt>
      <trkpt lat="43.71249" lon="0.99895">
        <ele>208.7</ele>
        <time>2016-11-16T10:32:03.000Z</time>
      </trkpt>
      <trkpt lat="43.71257" lon="0.99902">
        <ele>208.2</ele>
        <time>2016-11-16T10:32:11.000Z</time>
      </trkpt>
      <trkpt lat="43.71265" lon="0.99908">
        <ele>207.5</ele>
        <time>2016-11-16T10:32:21.000Z</time>
      </trkpt>
      <trkpt lat="43.71275" lon="0.99912">
        <ele>206.9</ele>
        <time>2016-11-16T10:32:30.000Z</time>
      </trkpt>
      <trkpt lat="43.71283" lon="0.99919">
        <ele>206.5</ele>
        <time>2016-11-16T10:32:38.000Z</time>
      </trkpt>
      <trkpt lat="43.71291" lon="0.99927">
        <ele>206.2</ele>
        <time>2016-11-16T10:32:48.000Z</time>
      </trkpt>
      <trkpt lat="43.713" lon="0.99932">
        <ele>206.1</ele>
        <time>2016-11-16T10:32:56.000Z</time>
      </trkpt>
      <trkpt lat="43.71309" lon="0.99939">
        <ele>206</ele>
        <time>2016-11-16T10:33:04.000Z</time>
      </trkpt>
      <trkpt lat="43.71319" lon="0.99944">
        <ele>205.9</ele>
        <time>2016-11-16T10:33:10.000Z</time>
      </trkpt>
      <trkpt lat="43.7133" lon="0.99945">
        <ele>205.8</ele>
        <time>2016-11-16T10:33:16.000Z</time>
      </trkpt>
      <trkpt lat="43.71339" lon="0.99944">
        <ele>205.7</ele>
        <time>2016-11-16T10:33:27.000Z</time>
      </trkpt>
      <trkpt lat="43.71348" lon="0.99945">
        <ele>205.7</ele>
        <time>2016-11-16T10:33:34.000Z</time>
      </trkpt>
      <trkpt lat="43.71357" lon="0.99947">
        <ele>205.7</ele>
        <time>2016-11-16T10:33:43.000Z</time>
      </trkpt>
      <trkpt lat="43.71366" lon="0.99949">
        <ele>205.8</ele>
        <time>2016-11-16T10:33:56.000Z</time>
      </trkpt>
      <trkpt lat="43.71376" lon="0.99952">
        <ele>205.6</ele>
        <time>2016-11-16T10:34:05.000Z</time>
      </trkpt>
      <trkpt lat="43.71385" lon="0.99956">
        <ele>205.3</ele>
        <time>2016-11-16T10:34:14.000Z</time>
      </trkpt>
      <trkpt lat="43.71395" lon="0.99956">
        <ele>204.9</ele>
        <time>2016-11-16T10:34:27.000Z</time>
      </trkpt>
      <trkpt lat="43.71405" lon="0.99955">
        <ele>204.6</ele>
        <time>2016-11-16T10:34:34.000Z</time>
      </trkpt>
      <trkpt lat="43.71414" lon="0.99952">
        <ele>203.8</ele>
        <time>2016-11-16T10:34:45.000Z</time>
      </trkpt>
      <trkpt lat="43.71423" lon="0.99949">
        <ele>203.1</ele>
        <time>2016-11-16T10:34:53.000Z</time>
      </trkpt>
      <trkpt lat="43.71433" lon="0.99946">
        <ele>202.4</ele>
        <time>2016-11-16T10:35:03.000Z</time>
      </trkpt>
      <trkpt lat="43.71442" lon="0.99942">
        <ele>201.7</ele>
        <time>2016-11-16T10:35:10.000Z</time>
      </trkpt>
      <trkpt lat="43.71451" lon="0.99937">
        <ele>201.2</ele>
        <time>2016-11-16T10:35:18.000Z</time>
      </trkpt>
      <trkpt lat="43.7146" lon="0.99933">
        <ele>200.7</ele>
        <time>2016-11-16T10:35:26.000Z</time>
      </trkpt>
      <trkpt lat="43.7147" lon="0.99929">
        <ele>199.9</ele>
        <time>2016-11-16T10:35:36.000Z</time>
      </trkpt>
      <trkpt lat="43.71479" lon="0.99926">
        <ele>199.3</ele>
        <time>2016-11-16T10:35:43.000Z</time>
      </trkpt>
      <trkpt lat="43.71488" lon="0.99925">
        <ele>198.6</ele>
        <time>2016-11-16T10:35:53.000Z</time>
      </trkpt>
      <trkpt lat="43.71497" lon="0.99926">
        <ele>197.8</ele>
        <time>2016-11-16T10:36:05.000Z</time>
      </trkpt>
      <trkpt lat="43.71506" lon="0.9993">
        <ele>197.5</ele>
        <time>2016-11-16T10:36:14.000Z</time>
      </trkpt>
      <trkpt lat="43.71514" lon="0.99924">
        <ele>195.6</ele>
        <time>2016-11-16T10:37:12.000Z</time>
      </trkpt>
      <trkpt lat="43.71523" lon="0.9992">
        <ele>195.2</ele>
        <time>2016-11-16T10:37:23.000Z</time>
      </trkpt>
      <trkpt lat="43.71531" lon="0.99911">
        <ele>194.9</ele>
        <time>2016-11-16T10:37:33.000Z</time>
      </trkpt>
      <trkpt lat="43.71535" lon="0.999">
        <ele>194.7</ele>
        <time>2016-11-16T10:37:41.000Z</time>
      </trkpt>
      <trkpt lat="43.71532" lon="0.99871">
        <ele>194</ele>
        <time>2016-11-16T10:37:56.000Z</time>
      </trkpt>
      <trkpt lat="43.71538" lon="0.99861">
        <ele>194.6</ele>
        <time>2016-11-16T10:38:05.000Z</time>
      </trkpt>
      <trkpt lat="43.71542" lon="0.9985">
        <ele>194.7</ele>
        <time>2016-11-16T10:38:13.000Z</time>
      </trkpt>
      <trkpt lat="43.71548" lon="0.99839">
        <ele>194.7</ele>
        <time>2016-11-16T10:38:21.000Z</time>
      </trkpt>
      <trkpt lat="43.71553" lon="0.99828">
        <ele>194.6</ele>
        <time>2016-11-16T10:38:30.000Z</time>
      </trkpt>
      <trkpt lat="43.71555" lon="0.99814">
        <ele>194.6</ele>
        <time>2016-11-16T10:38:38.000Z</time>
      </trkpt>
      <trkpt lat="43.7156" lon="0.99804">
        <ele>194.4</ele>
        <time>2016-11-16T10:38:45.000Z</time>
      </trkpt>
      <trkpt lat="43.71564" lon="0.99793">
        <ele>194.1</ele>
        <time>2016-11-16T10:38:54.000Z</time>
      </trkpt>
      <trkpt lat="43.71567" lon="0.9978">
        <ele>193.6</ele>
        <time>2016-11-16T10:39:03.000Z</time>
      </trkpt>
      <trkpt lat="43.71571" lon="0.99766">
        <ele>193.1</ele>
        <time>2016-11-16T10:39:12.000Z</time>
      </trkpt>
      <trkpt lat="43.71574" lon="0.99753">
        <ele>192.9</ele>
        <time>2016-11-16T10:39:21.000Z</time>
      </trkpt>
      <trkpt lat="43.71576" lon="0.99741">
        <ele>192.7</ele>
        <time>2016-11-16T10:39:31.000Z</time>
      </trkpt>
      <trkpt lat="43.71578" lon="0.99728">
        <ele>192.6</ele>
        <time>2016-11-16T10:39:39.000Z</time>
      </trkpt>
      <trkpt lat="43.7158" lon="0.99715">
        <ele>192.5</ele>
        <time>2016-11-16T10:39:49.000Z</time>
      </trkpt>
      <trkpt lat="43.71584" lon="0.99703">
        <ele>192.4</ele>
        <time>2016-11-16T10:39:58.000Z</time>
      </trkpt>
      <trkpt lat="43.71589" lon="0.99693">
        <ele>192.4</ele>
        <time>2016-11-16T10:40:06.000Z</time>
      </trkpt>
      <trkpt lat="43.71595" lon="0.99682">
        <ele>192.4</ele>
        <time>2016-11-16T10:40:12.000Z</time>
      </trkpt>
      <trkpt lat="43.71593" lon="0.99669">
        <ele>192.5</ele>
        <time>2016-11-16T10:40:19.000Z</time>
      </trkpt>
      <trkpt lat="43.71596" lon="0.99656">
        <ele>192.5</ele>
        <time>2016-11-16T10:40:28.000Z</time>
      </trkpt>
      <trkpt lat="43.71595" lon="0.99642">
        <ele>192.6</ele>
        <time>2016-11-16T10:40:38.000Z</time>
      </trkpt>
      <trkpt lat="43.71599" lon="0.99631">
        <ele>192.6</ele>
        <time>2016-11-16T10:40:44.000Z</time>
      </trkpt>
      <trkpt lat="43.71607" lon="0.99622">
        <ele>192.6</ele>
        <time>2016-11-16T10:40:51.000Z</time>
      </trkpt>
      <trkpt lat="43.71609" lon="0.99608">
        <ele>192.6</ele>
        <time>2016-11-16T10:40:57.000Z</time>
      </trkpt>
      <trkpt lat="43.71614" lon="0.99595">
        <ele>192.5</ele>
        <time>2016-11-16T10:41:07.000Z</time>
      </trkpt>
      <trkpt lat="43.71618" lon="0.99583">
        <ele>192.4</ele>
        <time>2016-11-16T10:41:17.000Z</time>
      </trkpt>
      <trkpt lat="43.71619" lon="0.9957">
        <ele>192.3</ele>
        <time>2016-11-16T10:41:24.000Z</time>
      </trkpt>
      <trkpt lat="43.71628" lon="0.99563">
        <ele>192.1</ele>
        <time>2016-11-16T10:41:32.000Z</time>
      </trkpt>
      <trkpt lat="43.71632" lon="0.99551">
        <ele>191.9</ele>
        <time>2016-11-16T10:41:41.000Z</time>
      </trkpt>
      <trkpt lat="43.71637" lon="0.99539">
        <ele>191.8</ele>
        <time>2016-11-16T10:41:50.000Z</time>
      </trkpt>
      <trkpt lat="43.7164" lon="0.99525">
        <ele>191.4</ele>
        <time>2016-11-16T10:42:01.000Z</time>
      </trkpt>
      <trkpt lat="43.71643" lon="0.99513">
        <ele>190.9</ele>
        <time>2016-11-16T10:42:09.000Z</time>
      </trkpt>
      <trkpt lat="43.71647" lon="0.99501">
        <ele>190.5</ele>
        <time>2016-11-16T10:42:17.000Z</time>
      </trkpt>
      <trkpt lat="43.71654" lon="0.99492">
        <ele>190.2</ele>
        <time>2016-11-16T10:42:23.000Z</time>
      </trkpt>
      <trkpt lat="43.71655" lon="0.9948">
        <ele>189.6</ele>
        <time>2016-11-16T10:42:35.000Z</time>
      </trkpt>
      <trkpt lat="43.71658" lon="0.99468">
        <ele>189.2</ele>
        <time>2016-11-16T10:42:43.000Z</time>
      </trkpt>
      <trkpt lat="43.71665" lon="0.99459">
        <ele>188.9</ele>
        <time>2016-11-16T10:42:55.000Z</time>
      </trkpt>
      <trkpt lat="43.71673" lon="0.9945">
        <ele>188.5</ele>
        <time>2016-11-16T10:43:04.000Z</time>
      </trkpt>
      <trkpt lat="43.71675" lon="0.99438">
        <ele>188.2</ele>
        <time>2016-11-16T10:43:12.000Z</time>
      </trkpt>
      <trkpt lat="43.71682" lon="0.9943">
        <ele>187.9</ele>
        <time>2016-11-16T10:43:22.000Z</time>
      </trkpt>
      <trkpt lat="43.7169" lon="0.99422">
        <ele>187.8</ele>
        <time>2016-11-16T10:43:31.000Z</time>
      </trkpt>
      <trkpt lat="43.71695" lon="0.99409">
        <ele>187.8</ele>
        <time>2016-11-16T10:43:43.000Z</time>
      </trkpt>
      <trkpt lat="43.71701" lon="0.99399">
        <ele>187.7</ele>
        <time>2016-11-16T10:43:48.000Z</time>
      </trkpt>
      <trkpt lat="43.71707" lon="0.99389">
        <ele>187.7</ele>
        <time>2016-11-16T10:43:53.000Z</time>
      </trkpt>
      <trkpt lat="43.71715" lon="0.99384">
        <ele>187.6</ele>
        <time>2016-11-16T10:44:00.000Z</time>
      </trkpt>
      <trkpt lat="43.71722" lon="0.99374">
        <ele>187.3</ele>
        <time>2016-11-16T10:44:13.000Z</time>
      </trkpt>
      <trkpt lat="43.71729" lon="0.99364">
        <ele>187.2</ele>
        <time>2016-11-16T10:44:22.000Z</time>
      </trkpt>
      <trkpt lat="43.71736" lon="0.99354">
        <ele>187.1</ele>
        <time>2016-11-16T10:44:30.000Z</time>
      </trkpt>
      <trkpt lat="43.71741" lon="0.99342">
        <ele>187.1</ele>
        <time>2016-11-16T10:44:39.000Z</time>
      </trkpt>
      <trkpt lat="43.71748" lon="0.99335">
        <ele>186.9</ele>
        <time>2016-11-16T10:44:47.000Z</time>
      </trkpt>
      <trkpt lat="43.71753" lon="0.99322">
        <ele>186.8</ele>
        <time>2016-11-16T10:44:54.000Z</time>
      </trkpt>
      <trkpt lat="43.71759" lon="0.99312">
        <ele>186.7</ele>
        <time>2016-11-16T10:45:06.000Z</time>
      </trkpt>
      <trkpt lat="43.71765" lon="0.99303">
        <ele>186.7</ele>
        <time>2016-11-16T10:45:14.000Z</time>
      </trkpt>
      <trkpt lat="43.71773" lon="0.99293">
        <ele>186.9</ele>
        <time>2016-11-16T10:45:21.000Z</time>
      </trkpt>
      <trkpt lat="43.71779" lon="0.99284">
        <ele>174.4</ele>
        <time>2016-11-16T10:45:27.000Z</time>
      </trkpt>
      <trkpt lat="43.71786" lon="0.99273">
        <ele>174.3</ele>
        <time>2016-11-16T10:45:34.000Z</time>
      </trkpt>
      <trkpt lat="43.71791" lon="0.99264">
        <ele>174.3</ele>
        <time>2016-11-16T10:45:45.000Z</time>
      </trkpt>
      <trkpt lat="43.71798" lon="0.99256">
        <ele>186.9</ele>
        <time>2016-11-16T10:45:53.000Z</time>
      </trkpt>
      <trkpt lat="43.71806" lon="0.99248">
        <ele>186.7</ele>
        <time>2016-11-16T10:46:03.000Z</time>
      </trkpt>
      <trkpt lat="43.71814" lon="0.9924">
        <ele>186.7</ele>
        <time>2016-11-16T10:46:13.000Z</time>
      </trkpt>
      <trkpt lat="43.71821" lon="0.99231">
        <ele>186.7</ele>
        <time>2016-11-16T10:46:22.000Z</time>
      </trkpt>
      <trkpt lat="43.71829" lon="0.99225">
        <ele>186.9</ele>
        <time>2016-11-16T10:46:30.000Z</time>
      </trkpt>
      <trkpt lat="43.71837" lon="0.99218">
        <ele>186.3</ele>
        <time>2016-11-16T10:46:38.000Z</time>
      </trkpt>
      <trkpt lat="43.71844" lon="0.99209">
        <ele>185.6</ele>
        <time>2016-11-16T10:46:47.000Z</time>
      </trkpt>
      <trkpt lat="43.71851" lon="0.992">
        <ele>184.9</ele>
        <time>2016-11-16T10:46:55.000Z</time>
      </trkpt>
      <trkpt lat="43.7186" lon="0.99193">
        <ele>184.5</ele>
        <time>2016-11-16T10:47:04.000Z</time>
      </trkpt>
      <trkpt lat="43.71866" lon="0.99182">
        <ele>184.3</ele>
        <time>2016-11-16T10:47:11.000Z</time>
      </trkpt>
      <trkpt lat="43.71872" lon="0.99172">
        <ele>183.8</ele>
        <time>2016-11-16T10:47:20.000Z</time>
      </trkpt>
      <trkpt lat="43.71879" lon="0.99164">
        <ele>183.6</ele>
        <time>2016-11-16T10:47:28.000Z</time>
      </trkpt>
      <trkpt lat="43.71888" lon="0.99158">
        <ele>183.5</ele>
        <time>2016-11-16T10:47:36.000Z</time>
      </trkpt>
      <trkpt lat="43.71894" lon="0.99149">
        <ele>183.4</ele>
        <time>2016-11-16T10:47:43.000Z</time>
      </trkpt>
      <trkpt lat="43.719" lon="0.99138">
        <ele>183.4</ele>
        <time>2016-11-16T10:47:51.000Z</time>
      </trkpt>
      <trkpt lat="43.71905" lon="0.99128">
        <ele>183.3</ele>
        <time>2016-11-16T10:47:59.000Z</time>
      </trkpt>
      <trkpt lat="43.7191" lon="0.99117">
        <ele>183.6</ele>
        <time>2016-11-16T10:48:08.000Z</time>
      </trkpt>
      <trkpt lat="43.71918" lon="0.99107">
        <ele>183.4</ele>
        <time>2016-11-16T10:48:18.000Z</time>
      </trkpt>
      <trkpt lat="43.71922" lon="0.99094">
        <ele>183.3</ele>
        <time>2016-11-16T10:48:26.000Z</time>
      </trkpt>
      <trkpt lat="43.71923" lon="0.99081">
        <ele>183.3</ele>
        <time>2016-11-16T10:48:37.000Z</time>
      </trkpt>
      <trkpt lat="43.71918" lon="0.9907">
        <ele>183.4</ele>
        <time>2016-11-16T10:48:44.000Z</time>
      </trkpt>
      <trkpt lat="43.71923" lon="0.99058">
        <ele>183.5</ele>
        <time>2016-11-16T10:48:56.000Z</time>
      </trkpt>
      <trkpt lat="43.71931" lon="0.99047">
        <ele>183.6</ele>
        <time>2016-11-16T10:49:03.000Z</time>
      </trkpt>
      <trkpt lat="43.71938" lon="0.99038">
        <ele>183.6</ele>
        <time>2016-11-16T10:49:10.000Z</time>
      </trkpt>
      <trkpt lat="43.71943" lon="0.99028">
        <ele>183.6</ele>
        <time>2016-11-16T10:49:18.000Z</time>
      </trkpt>
      <trkpt lat="43.71948" lon="0.99017">
        <ele>184</ele>
        <time>2016-11-16T10:49:27.000Z</time>
      </trkpt>
      <trkpt lat="43.71954" lon="0.99007">
        <ele>184.4</ele>
        <time>2016-11-16T10:49:33.000Z</time>
      </trkpt>
      <trkpt lat="43.71961" lon="0.98996">
        <ele>184.8</ele>
        <time>2016-11-16T10:49:39.000Z</time>
      </trkpt>
      <trkpt lat="43.71969" lon="0.98987">
        <ele>185.5</ele>
        <time>2016-11-16T10:49:47.000Z</time>
      </trkpt>
      <trkpt lat="43.71975" lon="0.98978">
        <ele>186.1</ele>
        <time>2016-11-16T10:49:55.000Z</time>
      </trkpt>
      <trkpt lat="43.71982" lon="0.98968">
        <ele>187.6</ele>
        <time>2016-11-16T10:50:09.000Z</time>
      </trkpt>
      <trkpt lat="43.71989" lon="0.98959">
        <ele>177.8</ele>
        <time>2016-11-16T10:50:23.000Z</time>
      </trkpt>
      <trkpt lat="43.71997" lon="0.9895">
        <ele>178.8</ele>
        <time>2016-11-16T10:50:33.000Z</time>
      </trkpt>
      <trkpt lat="43.72002" lon="0.98942">
        <ele>179.6</ele>
        <time>2016-11-16T10:50:42.000Z</time>
      </trkpt>
      <trkpt lat="43.72005" lon="0.98934">
        <ele>180.2</ele>
        <time>2016-11-16T10:51:00.000Z</time>
      </trkpt>
      <trkpt lat="43.72012" lon="0.98923">
        <ele>180.9</ele>
        <time>2016-11-16T10:51:09.000Z</time>
      </trkpt>
      <trkpt lat="43.72017" lon="0.98911">
        <ele>181.6</ele>
        <time>2016-11-16T10:51:18.000Z</time>
      </trkpt>
      <trkpt lat="43.72022" lon="0.98903">
        <ele>181.6</ele>
        <time>2016-11-16T10:51:27.000Z</time>
      </trkpt>
      <trkpt lat="43.72025" lon="0.98895">
        <ele>181.7</ele>
        <time>2016-11-16T10:51:36.000Z</time>
      </trkpt>
      <trkpt lat="43.72031" lon="0.98877">
        <ele>182</ele>
        <time>2016-11-16T10:51:56.000Z</time>
      </trkpt>
      <trkpt lat="43.72036" lon="0.98861">
        <ele>199.9</ele>
        <time>2016-11-16T10:52:07.000Z</time>
      </trkpt>
      <trkpt lat="43.72039" lon="0.98849">
        <ele>201.6</ele>
        <time>2016-11-16T10:52:18.000Z</time>
      </trkpt>
      <trkpt lat="43.72044" lon="0.98837">
        <ele>203.1</ele>
        <time>2016-11-16T10:52:28.000Z</time>
      </trkpt>
      <trkpt lat="43.72047" lon="0.98825">
        <ele>204.6</ele>
        <time>2016-11-16T10:52:38.000Z</time>
      </trkpt>
      <trkpt lat="43.72051" lon="0.98813">
        <ele>206.1</ele>
        <time>2016-11-16T10:52:47.000Z</time>
      </trkpt>
      <trkpt lat="43.72053" lon="0.98801">
        <ele>207.2</ele>
        <time>2016-11-16T10:52:56.000Z</time>
      </trkpt>
      <trkpt lat="43.72054" lon="0.98789">
        <ele>183.8</ele>
        <time>2016-11-16T10:53:04.000Z</time>
      </trkpt>
      <trkpt lat="43.72056" lon="0.98777">
        <ele>184.1</ele>
        <time>2016-11-16T10:53:14.000Z</time>
      </trkpt>
      <trkpt lat="43.72057" lon="0.98764">
        <ele>184.5</ele>
        <time>2016-11-16T10:53:26.000Z</time>
      </trkpt>
      <trkpt lat="43.72059" lon="0.9875">
        <ele>184.9</ele>
        <time>2016-11-16T10:53:36.000Z</time>
      </trkpt>
      <trkpt lat="43.72062" lon="0.9874">
        <ele>185.3</ele>
        <time>2016-11-16T10:53:43.000Z</time>
      </trkpt>
      <trkpt lat="43.72064" lon="0.98728">
        <ele>185.9</ele>
        <time>2016-11-16T10:54:00.000Z</time>
      </trkpt>
      <trkpt lat="43.72069" lon="0.98716">
        <ele>186.3</ele>
        <time>2016-11-16T10:54:09.000Z</time>
      </trkpt>
      <trkpt lat="43.72072" lon="0.98703">
        <ele>216.9</ele>
        <time>2016-11-16T10:54:19.000Z</time>
      </trkpt>
      <trkpt lat="43.72074" lon="0.98691">
        <ele>217.8</ele>
        <time>2016-11-16T10:54:28.000Z</time>
      </trkpt>
      <trkpt lat="43.72077" lon="0.98678">
        <ele>218.3</ele>
        <time>2016-11-16T10:54:39.000Z</time>
      </trkpt>
      <trkpt lat="43.72079" lon="0.98665">
        <ele>218.6</ele>
        <time>2016-11-16T10:54:53.000Z</time>
      </trkpt>
      <trkpt lat="43.72085" lon="0.98651">
        <ele>219.4</ele>
        <time>2016-11-16T10:55:14.000Z</time>
      </trkpt>
      <trkpt lat="43.72086" lon="0.98639">
        <ele>189.7</ele>
        <time>2016-11-16T10:55:22.000Z</time>
      </trkpt>
      <trkpt lat="43.7209" lon="0.98627">
        <ele>220.4</ele>
        <time>2016-11-16T10:55:30.000Z</time>
      </trkpt>
      <trkpt lat="43.72091" lon="0.98614">
        <ele>220.8</ele>
        <time>2016-11-16T10:55:38.000Z</time>
      </trkpt>
      <trkpt lat="43.72096" lon="0.98602">
        <ele>221.3</ele>
        <time>2016-11-16T10:55:48.000Z</time>
      </trkpt>
      <trkpt lat="43.72101" lon="0.9859">
        <ele>221.7</ele>
        <time>2016-11-16T10:55:57.000Z</time>
      </trkpt>
      <trkpt lat="43.72102" lon="0.98577">
        <ele>191.8</ele>
        <time>2016-11-16T10:56:05.000Z</time>
      </trkpt>
      <trkpt lat="43.72105" lon="0.98565">
        <ele>191.8</ele>
        <time>2016-11-16T10:56:13.000Z</time>
      </trkpt>
      <trkpt lat="43.72108" lon="0.98552">
        <ele>192</ele>
        <time>2016-11-16T10:56:21.000Z</time>
      </trkpt>
      <trkpt lat="43.72109" lon="0.98542">
        <ele>192.2</ele>
        <time>2016-11-16T10:56:29.000Z</time>
      </trkpt>
      <trkpt lat="43.72112" lon="0.98529">
        <ele>192.4</ele>
        <time>2016-11-16T10:56:36.000Z</time>
      </trkpt>
      <trkpt lat="43.72114" lon="0.9852">
        <ele>192.5</ele>
        <time>2016-11-16T10:56:41.000Z</time>
      </trkpt>
      <trkpt lat="43.72116" lon="0.98508">
        <ele>192.7</ele>
        <time>2016-11-16T10:56:49.000Z</time>
      </trkpt>
      <trkpt lat="43.72118" lon="0.98497">
        <ele>193.1</ele>
        <time>2016-11-16T10:56:56.000Z</time>
      </trkpt>
      <trkpt lat="43.7212" lon="0.98483">
        <ele>193.8</ele>
        <time>2016-11-16T10:57:03.000Z</time>
      </trkpt>
      <trkpt lat="43.72121" lon="0.9847">
        <ele>194.4</ele>
        <time>2016-11-16T10:57:12.000Z</time>
      </trkpt>
      <trkpt lat="43.72124" lon="0.98457">
        <ele>195</ele>
        <time>2016-11-16T10:57:20.000Z</time>
      </trkpt>
      <trkpt lat="43.72125" lon="0.98445">
        <ele>195.7</ele>
        <time>2016-11-16T10:57:28.000Z</time>
      </trkpt>
      <trkpt lat="43.72126" lon="0.98434">
        <ele>196.2</ele>
        <time>2016-11-16T10:57:38.000Z</time>
      </trkpt>
      <trkpt lat="43.72128" lon="0.98421">
        <ele>196.9</ele>
        <time>2016-11-16T10:57:46.000Z</time>
      </trkpt>
      <trkpt lat="43.72131" lon="0.98409">
        <ele>197.4</ele>
        <time>2016-11-16T10:57:52.000Z</time>
      </trkpt>
      <trkpt lat="43.72132" lon="0.98399">
        <ele>197.8</ele>
        <time>2016-11-16T10:57:58.000Z</time>
      </trkpt>
      <trkpt lat="43.72132" lon="0.98388">
        <ele>198.3</ele>
        <time>2016-11-16T10:58:07.000Z</time>
      </trkpt>
      <trkpt lat="43.72136" lon="0.98374">
        <ele>198.7</ele>
        <time>2016-11-16T10:58:17.000Z</time>
      </trkpt>
      <trkpt lat="43.7214" lon="0.98357">
        <ele>199.1</ele>
        <time>2016-11-16T10:58:28.000Z</time>
      </trkpt>
      <trkpt lat="43.72143" lon="0.9834">
        <ele>199.7</ele>
        <time>2016-11-16T10:58:39.000Z</time>
      </trkpt>
      <trkpt lat="43.72146" lon="0.98327">
        <ele>199.8</ele>
        <time>2016-11-16T10:58:46.000Z</time>
      </trkpt>
      <trkpt lat="43.72149" lon="0.98313">
        <ele>199.8</ele>
        <time>2016-11-16T10:58:58.000Z</time>
      </trkpt>
      <trkpt lat="43.72153" lon="0.983">
        <ele>199.6</ele>
        <time>2016-11-16T10:59:08.000Z</time>
      </trkpt>
      <trkpt lat="43.72158" lon="0.98288">
        <ele>199.6</ele>
        <time>2016-11-16T10:59:14.000Z</time>
      </trkpt>
      <trkpt lat="43.72161" lon="0.98279">
        <ele>199.6</ele>
        <time>2016-11-16T10:59:22.000Z</time>
      </trkpt>
      <trkpt lat="43.72166" lon="0.98271">
        <ele>199.5</ele>
        <time>2016-11-16T10:59:30.000Z</time>
      </trkpt>
      <trkpt lat="43.72173" lon="0.9826">
        <ele>199.4</ele>
        <time>2016-11-16T10:59:39.000Z</time>
      </trkpt>
      <trkpt lat="43.7218" lon="0.98249">
        <ele>226.6</ele>
        <time>2016-11-16T10:59:47.000Z</time>
      </trkpt>
      <trkpt lat="43.72186" lon="0.9824">
        <ele>226.4</ele>
        <time>2016-11-16T10:59:53.000Z</time>
      </trkpt>
      <trkpt lat="43.72191" lon="0.98229">
        <ele>226.2</ele>
        <time>2016-11-16T11:00:02.000Z</time>
      </trkpt>
      <trkpt lat="43.72197" lon="0.9822">
        <ele>225.6</ele>
        <time>2016-11-16T11:00:09.000Z</time>
      </trkpt>
      <trkpt lat="43.72204" lon="0.9821">
        <ele>225</ele>
        <time>2016-11-16T11:00:14.000Z</time>
      </trkpt>
      <trkpt lat="43.7221" lon="0.98201">
        <ele>224.3</ele>
        <time>2016-11-16T11:00:22.000Z</time>
      </trkpt>
      <trkpt lat="43.72214" lon="0.98189">
        <ele>223.8</ele>
        <time>2016-11-16T11:00:31.000Z</time>
      </trkpt>
      <trkpt lat="43.72216" lon="0.98176">
        <ele>223.5</ele>
        <time>2016-11-16T11:00:42.000Z</time>
      </trkpt>
      <trkpt lat="43.7222" lon="0.98164">
        <ele>223.1</ele>
        <time>2016-11-16T11:00:51.000Z</time>
      </trkpt>
      <trkpt lat="43.7222" lon="0.98151">
        <ele>222.5</ele>
        <time>2016-11-16T11:01:03.000Z</time>
      </trkpt>
      <trkpt lat="43.72223" lon="0.98138">
        <ele>222.2</ele>
        <time>2016-11-16T11:01:13.000Z</time>
      </trkpt>
      <trkpt lat="43.72226" lon="0.98126">
        <ele>222.1</ele>
        <time>2016-11-16T11:01:23.000Z</time>
      </trkpt>
      <trkpt lat="43.72232" lon="0.98117">
        <ele>221.9</ele>
        <time>2016-11-16T11:01:28.000Z</time>
      </trkpt>
      <trkpt lat="43.72238" lon="0.98106">
        <ele>221.7</ele>
        <time>2016-11-16T11:01:34.000Z</time>
      </trkpt>
      <trkpt lat="43.72245" lon="0.98096">
        <ele>221.4</ele>
        <time>2016-11-16T11:01:41.000Z</time>
      </trkpt>
      <trkpt lat="43.72254" lon="0.9809">
        <ele>221.2</ele>
        <time>2016-11-16T11:01:52.000Z</time>
      </trkpt>
      <trkpt lat="43.72263" lon="0.98093">
        <ele>221.1</ele>
        <time>2016-11-16T11:02:03.000Z</time>
      </trkpt>
      <trkpt lat="43.72271" lon="0.981">
        <ele>219.9</ele>
        <time>2016-11-16T11:02:17.000Z</time>
      </trkpt>
      <trkpt lat="43.7228" lon="0.98105">
        <ele>219.9</ele>
        <time>2016-11-16T11:02:26.000Z</time>
      </trkpt>
      <trkpt lat="43.72288" lon="0.98109">
        <ele>219.7</ele>
        <time>2016-11-16T11:02:36.000Z</time>
      </trkpt>
      <trkpt lat="43.72296" lon="0.981">
        <ele>219</ele>
        <time>2016-11-16T11:02:52.000Z</time>
      </trkpt>
      <trkpt lat="43.72304" lon="0.98094">
        <ele>218.8</ele>
        <time>2016-11-16T11:02:58.000Z</time>
      </trkpt>
      <trkpt lat="43.72308" lon="0.98083">
        <ele>218.5</ele>
        <time>2016-11-16T11:03:06.000Z</time>
      </trkpt>
      <trkpt lat="43.72312" lon="0.9807">
        <ele>218.4</ele>
        <time>2016-11-16T11:03:14.000Z</time>
      </trkpt>
      <trkpt lat="43.72315" lon="0.98057">
        <ele>218.3</ele>
        <time>2016-11-16T11:03:21.000Z</time>
      </trkpt>
      <trkpt lat="43.72318" lon="0.98045">
        <ele>218.2</ele>
        <time>2016-11-16T11:03:29.000Z</time>
      </trkpt>
      <trkpt lat="43.72322" lon="0.98033">
        <ele>218.1</ele>
        <time>2016-11-16T11:03:36.000Z</time>
      </trkpt>
      <trkpt lat="43.72327" lon="0.98021">
        <ele>218.1</ele>
        <time>2016-11-16T11:03:43.000Z</time>
      </trkpt>
      <trkpt lat="43.72332" lon="0.98009">
        <ele>217.8</ele>
        <time>2016-11-16T11:03:50.000Z</time>
      </trkpt>
      <trkpt lat="43.72335" lon="0.97997">
        <ele>217.6</ele>
        <time>2016-11-16T11:03:56.000Z</time>
      </trkpt>
      <trkpt lat="43.72341" lon="0.97984">
        <ele>217.1</ele>
        <time>2016-11-16T11:04:05.000Z</time>
      </trkpt>
      <trkpt lat="43.72343" lon="0.97971">
        <ele>216.4</ele>
        <time>2016-11-16T11:04:14.000Z</time>
      </trkpt>
      <trkpt lat="43.72349" lon="0.9796">
        <ele>216.2</ele>
        <time>2016-11-16T11:04:22.000Z</time>
      </trkpt>
      <trkpt lat="43.72356" lon="0.9795">
        <ele>215.9</ele>
        <time>2016-11-16T11:04:29.000Z</time>
      </trkpt>
      <trkpt lat="43.72361" lon="0.97939">
        <ele>215.7</ele>
        <time>2016-11-16T11:04:36.000Z</time>
      </trkpt>
      <trkpt lat="43.72363" lon="0.97927">
        <ele>215.5</ele>
        <time>2016-11-16T11:04:43.000Z</time>
      </trkpt>
      <trkpt lat="43.72367" lon="0.97915">
        <ele>215.2</ele>
        <time>2016-11-16T11:04:52.000Z</time>
      </trkpt>
      <trkpt lat="43.72354" lon="0.97911">
        <ele>214.9</ele>
        <time>2016-11-16T11:05:18.000Z</time>
      </trkpt>
      <trkpt lat="43.72349" lon="0.97921">
        <ele>213.9</ele>
        <time>2016-11-16T11:06:07.000Z</time>
      </trkpt>
      <trkpt lat="43.72345" lon="0.97909">
        <ele>214.3</ele>
        <time>2016-11-16T11:06:41.000Z</time>
      </trkpt>
      <trkpt lat="43.72336" lon="0.97904">
        <ele>214.5</ele>
        <time>2016-11-16T11:06:52.000Z</time>
      </trkpt>
      <trkpt lat="43.72329" lon="0.97894">
        <ele>214.8</ele>
        <time>2016-11-16T11:07:01.000Z</time>
      </trkpt>
      <trkpt lat="43.72322" lon="0.97887">
        <ele>215.3</ele>
        <time>2016-11-16T11:07:13.000Z</time>
      </trkpt>
      <trkpt lat="43.72314" lon="0.97879">
        <ele>215.6</ele>
        <time>2016-11-16T11:07:22.000Z</time>
      </trkpt>
      <trkpt lat="43.72304" lon="0.97874">
        <ele>215.7</ele>
        <time>2016-11-16T11:07:31.000Z</time>
      </trkpt>
      <trkpt lat="43.72297" lon="0.97868">
        <ele>216</ele>
        <time>2016-11-16T11:07:39.000Z</time>
      </trkpt>
      <trkpt lat="43.72288" lon="0.97863">
        <ele>216.2</ele>
        <time>2016-11-16T11:07:47.000Z</time>
      </trkpt>
      <trkpt lat="43.7228" lon="0.97857">
        <ele>216.3</ele>
        <time>2016-11-16T11:07:55.000Z</time>
      </trkpt>
      <trkpt lat="43.7227" lon="0.97852">
        <ele>216.4</ele>
        <time>2016-11-16T11:08:04.000Z</time>
      </trkpt>
      <trkpt lat="43.72263" lon="0.97845">
        <ele>216.5</ele>
        <time>2016-11-16T11:08:14.000Z</time>
      </trkpt>
      <trkpt lat="43.72249" lon="0.97845">
        <ele>193.2</ele>
        <time>2016-11-16T11:08:30.000Z</time>
      </trkpt>
      <trkpt lat="43.72244" lon="0.97839">
        <ele>193.4</ele>
        <time>2016-11-16T11:08:40.000Z</time>
      </trkpt>
      <trkpt lat="43.72237" lon="0.97834">
        <ele>193.9</ele>
        <time>2016-11-16T11:08:48.000Z</time>
      </trkpt>
      <trkpt lat="43.72229" lon="0.9783">
        <ele>194.6</ele>
        <time>2016-11-16T11:08:58.000Z</time>
      </trkpt>
      <trkpt lat="43.72221" lon="0.97826">
        <ele>195.3</ele>
        <time>2016-11-16T11:09:16.000Z</time>
      </trkpt>
      <trkpt lat="43.7221" lon="0.97817">
        <ele>196.5</ele>
        <time>2016-11-16T11:09:26.000Z</time>
      </trkpt>
      <trkpt lat="43.72201" lon="0.97812">
        <ele>197.4</ele>
        <time>2016-11-16T11:09:30.000Z</time>
      </trkpt>
      <trkpt lat="43.72193" lon="0.97806">
        <ele>198.2</ele>
        <time>2016-11-16T11:09:33.000Z</time>
      </trkpt>
      <trkpt lat="43.72183" lon="0.97799">
        <ele>199.3</ele>
        <time>2016-11-16T11:09:43.000Z</time>
      </trkpt>
      <trkpt lat="43.72176" lon="0.97795">
        <ele>200.1</ele>
        <time>2016-11-16T11:09:54.000Z</time>
      </trkpt>
      <trkpt lat="43.72165" lon="0.97785">
        <ele>201.4</ele>
        <time>2016-11-16T11:10:09.000Z</time>
      </trkpt>
      <trkpt lat="43.72157" lon="0.97784">
        <ele>201.8</ele>
        <time>2016-11-16T11:10:16.000Z</time>
      </trkpt>
      <trkpt lat="43.7215" lon="0.97777">
        <ele>202.4</ele>
        <time>2016-11-16T11:10:27.000Z</time>
      </trkpt>
      <trkpt lat="43.7215" lon="0.97765">
        <ele>202.8</ele>
        <time>2016-11-16T11:10:57.000Z</time>
      </trkpt>
      <trkpt lat="43.72152" lon="0.97758">
        <ele>203</ele>
        <time>2016-11-16T11:46:18.000Z</time>
      </trkpt>
      <trkpt lat="43.72153" lon="0.97752">
        <ele>203.2</ele>
        <time>2016-11-16T11:46:23.000Z</time>
      </trkpt>
      <trkpt lat="43.72154" lon="0.97747">
        <ele>203.3</ele>
        <time>2016-11-16T11:53:00.000Z</time>
      </trkpt>
      <trkpt lat="43.72155" lon="0.97741">
        <ele>203.1</ele>
        <time>2016-11-16T11:53:08.000Z</time>
      </trkpt>
      <trkpt lat="43.72157" lon="0.97732">
        <ele>203</ele>
        <time>2016-11-16T11:53:13.000Z</time>
      </trkpt>
      <trkpt lat="43.72159" lon="0.97727">
        <ele>202.9</ele>
        <time>2016-11-16T11:53:15.000Z</time>
      </trkpt>
      <trkpt lat="43.72162" lon="0.97721">
        <ele>202.7</ele>
        <time>2016-11-16T11:53:20.000Z</time>
      </trkpt>
      <trkpt lat="43.72164" lon="0.97709">
        <ele>202.5</ele>
        <time>2016-11-16T11:53:26.000Z</time>
      </trkpt>
      <trkpt lat="43.72162" lon="0.977">
        <ele>202.5</ele>
        <time>2016-11-16T11:53:33.000Z</time>
      </trkpt>
      <trkpt lat="43.72156" lon="0.97694">
        <ele>202.5</ele>
        <time>2016-11-16T11:53:40.000Z</time>
      </trkpt>
      <trkpt lat="43.72148" lon="0.9769">
        <ele>202.6</ele>
        <time>2016-11-16T11:53:49.000Z</time>
      </trkpt>
      <trkpt lat="43.72143" lon="0.97687">
        <ele>202.6</ele>
        <time>2016-11-16T11:53:57.000Z</time>
      </trkpt>
      <trkpt lat="43.72138" lon="0.97684">
        <ele>202.6</ele>
        <time>2016-11-16T11:54:04.000Z</time>
      </trkpt>
      <trkpt lat="43.72132" lon="0.97683">
        <ele>202.7</ele>
        <time>2016-11-16T11:54:13.000Z</time>
      </trkpt>
      <trkpt lat="43.72126" lon="0.97678">
        <ele>202.7</ele>
        <time>2016-11-16T11:54:24.000Z</time>
      </trkpt>
      <trkpt lat="43.7212" lon="0.97674">
        <ele>202.7</ele>
        <time>2016-11-16T11:54:30.000Z</time>
      </trkpt>
      <trkpt lat="43.72112" lon="0.97666">
        <ele>202.6</ele>
        <time>2016-11-16T11:54:36.000Z</time>
      </trkpt>
      <trkpt lat="43.72104" lon="0.97658">
        <ele>202.5</ele>
        <time>2016-11-16T11:54:42.000Z</time>
      </trkpt>
      <trkpt lat="43.72097" lon="0.97654">
        <ele>202.4</ele>
        <time>2016-11-16T11:54:47.000Z</time>
      </trkpt>
      <trkpt lat="43.72088" lon="0.97648">
        <ele>202.3</ele>
        <time>2016-11-16T11:54:52.000Z</time>
      </trkpt>
      <trkpt lat="43.72079" lon="0.97642">
        <ele>202</ele>
        <time>2016-11-16T11:54:59.000Z</time>
      </trkpt>
      <trkpt lat="43.72071" lon="0.97637">
        <ele>201.5</ele>
        <time>2016-11-16T11:55:03.000Z</time>
      </trkpt>
      <trkpt lat="43.72066" lon="0.97632">
        <ele>178.4</ele>
        <time>2016-11-16T11:55:05.000Z</time>
      </trkpt>
      <trkpt lat="43.72062" lon="0.97629">
        <ele>200.8</ele>
        <time>2016-11-16T11:55:08.000Z</time>
      </trkpt>
      <trkpt lat="43.72057" lon="0.97626">
        <ele>200.4</ele>
        <time>2016-11-16T11:55:15.000Z</time>
      </trkpt>
      <trkpt lat="43.72049" lon="0.97621">
        <ele>199.8</ele>
        <time>2016-11-16T11:55:18.000Z</time>
      </trkpt>
      <trkpt lat="43.72042" lon="0.97618">
        <ele>199.3</ele>
        <time>2016-11-16T11:55:23.000Z</time>
      </trkpt>
      <trkpt lat="43.72036" lon="0.97612">
        <ele>198.8</ele>
        <time>2016-11-16T11:55:26.000Z</time>
      </trkpt>
      <trkpt lat="43.72026" lon="0.97611">
        <ele>175.6</ele>
        <time>2016-11-16T11:55:30.000Z</time>
      </trkpt>
      <trkpt lat="43.72016" lon="0.97606">
        <ele>175.3</ele>
        <time>2016-11-16T11:55:33.000Z</time>
      </trkpt>
      <trkpt lat="43.72007" lon="0.976">
        <ele>174.8</ele>
        <time>2016-11-16T11:55:39.000Z</time>
      </trkpt>
      <trkpt lat="43.71998" lon="0.97597">
        <ele>174.3</ele>
        <time>2016-11-16T11:55:45.000Z</time>
      </trkpt>
      <trkpt lat="43.7199" lon="0.97593">
        <ele>173.7</ele>
        <time>2016-11-16T11:55:53.000Z</time>
      </trkpt>
      <trkpt lat="43.71981" lon="0.97588">
        <ele>173.2</ele>
        <time>2016-11-16T11:56:03.000Z</time>
      </trkpt>
      <trkpt lat="43.71972" lon="0.97584">
        <ele>172.9</ele>
        <time>2016-11-16T11:56:08.000Z</time>
      </trkpt>
      <trkpt lat="43.71964" lon="0.97577">
        <ele>172.5</ele>
        <time>2016-11-16T11:56:17.000Z</time>
      </trkpt>
      <trkpt lat="43.71955" lon="0.97575">
        <ele>172.2</ele>
        <time>2016-11-16T11:56:24.000Z</time>
      </trkpt>
      <trkpt lat="43.71945" lon="0.97571">
        <ele>172</ele>
        <time>2016-11-16T11:56:29.000Z</time>
      </trkpt>
      <trkpt lat="43.71937" lon="0.97565">
        <ele>171.8</ele>
        <time>2016-11-16T11:56:38.000Z</time>
      </trkpt>
      <trkpt lat="43.71928" lon="0.97559">
        <ele>171.7</ele>
        <time>2016-11-16T11:56:46.000Z</time>
      </trkpt>
      <trkpt lat="43.71918" lon="0.97556">
        <ele>171.7</ele>
        <time>2016-11-16T11:56:55.000Z</time>
      </trkpt>
      <trkpt lat="43.71909" lon="0.97552">
        <ele>171.8</ele>
        <time>2016-11-16T11:57:03.000Z</time>
      </trkpt>
      <trkpt lat="43.71899" lon="0.97549">
        <ele>172.3</ele>
        <time>2016-11-16T11:57:11.000Z</time>
      </trkpt>
      <trkpt lat="43.7189" lon="0.97544">
        <ele>172.9</ele>
        <time>2016-11-16T11:57:21.000Z</time>
      </trkpt>
      <trkpt lat="43.71881" lon="0.9754">
        <ele>173.4</ele>
        <time>2016-11-16T11:57:27.000Z</time>
      </trkpt>
      <trkpt lat="43.71871" lon="0.9754">
        <ele>174</ele>
        <time>2016-11-16T11:57:35.000Z</time>
      </trkpt>
      <trkpt lat="43.71861" lon="0.97537">
        <ele>174.6</ele>
        <time>2016-11-16T11:57:41.000Z</time>
      </trkpt>
      <trkpt lat="43.71851" lon="0.97535">
        <ele>175.4</ele>
        <time>2016-11-16T11:57:49.000Z</time>
      </trkpt>
      <trkpt lat="43.71841" lon="0.97534">
        <ele>176</ele>
        <time>2016-11-16T11:57:59.000Z</time>
      </trkpt>
      <trkpt lat="43.71832" lon="0.97535">
        <ele>176.1</ele>
        <time>2016-11-16T11:58:10.000Z</time>
      </trkpt>
      <trkpt lat="43.71822" lon="0.97535">
        <ele>175.9</ele>
        <time>2016-11-16T11:58:17.000Z</time>
      </trkpt>
      <trkpt lat="43.71812" lon="0.97533">
        <ele>175.5</ele>
        <time>2016-11-16T11:58:26.000Z</time>
      </trkpt>
      <trkpt lat="43.71803" lon="0.97528">
        <ele>174.8</ele>
        <time>2016-11-16T11:58:35.000Z</time>
      </trkpt>
      <trkpt lat="43.71793" lon="0.97527">
        <ele>173.9</ele>
        <time>2016-11-16T11:58:45.000Z</time>
      </trkpt>
      <trkpt lat="43.71783" lon="0.97523">
        <ele>173.4</ele>
        <time>2016-11-16T11:58:50.000Z</time>
      </trkpt>
      <trkpt lat="43.71774" lon="0.97518">
        <ele>172.4</ele>
        <time>2016-11-16T11:58:59.000Z</time>
      </trkpt>
      <trkpt lat="43.71764" lon="0.97518">
        <ele>171</ele>
        <time>2016-11-16T11:59:09.000Z</time>
      </trkpt>
      <trkpt lat="43.71754" lon="0.97516">
        <ele>169.5</ele>
        <time>2016-11-16T11:59:18.000Z</time>
      </trkpt>
      <trkpt lat="43.71744" lon="0.97515">
        <ele>168.2</ele>
        <time>2016-11-16T11:59:28.000Z</time>
      </trkpt>
      <trkpt lat="43.71734" lon="0.9751">
        <ele>166.8</ele>
        <time>2016-11-16T11:59:39.000Z</time>
      </trkpt>
      <trkpt lat="43.71725" lon="0.97505">
        <ele>165.5</ele>
        <time>2016-11-16T11:59:47.000Z</time>
      </trkpt>
      <trkpt lat="43.71716" lon="0.97502">
        <ele>164.4</ele>
        <time>2016-11-16T11:59:55.000Z</time>
      </trkpt>
      <trkpt lat="43.71707" lon="0.97502">
        <ele>163</ele>
        <time>2016-11-16T12:00:06.000Z</time>
      </trkpt>
      <trkpt lat="43.71698" lon="0.975">
        <ele>161.5</ele>
        <time>2016-11-16T12:00:16.000Z</time>
      </trkpt>
      <trkpt lat="43.71689" lon="0.97497">
        <ele>160.3</ele>
        <time>2016-11-16T12:00:27.000Z</time>
      </trkpt>
      <trkpt lat="43.71679" lon="0.97491">
        <ele>159.2</ele>
        <time>2016-11-16T12:00:34.000Z</time>
      </trkpt>
      <trkpt lat="43.7167" lon="0.9749">
        <ele>158.3</ele>
        <time>2016-11-16T12:00:42.000Z</time>
      </trkpt>
      <trkpt lat="43.71661" lon="0.97493">
        <ele>157.1</ele>
        <time>2016-11-16T12:00:53.000Z</time>
      </trkpt>
      <trkpt lat="43.71651" lon="0.97495">
        <ele>155.8</ele>
        <time>2016-11-16T12:01:04.000Z</time>
      </trkpt>
      <trkpt lat="43.71642" lon="0.9749">
        <ele>154.5</ele>
        <time>2016-11-16T12:01:14.000Z</time>
      </trkpt>
      <trkpt lat="43.71633" lon="0.9748">
        <ele>153</ele>
        <time>2016-11-16T12:01:25.000Z</time>
      </trkpt>
      <trkpt lat="43.71629" lon="0.97467">
        <ele>152.2</ele>
        <time>2016-11-16T12:01:33.000Z</time>
      </trkpt>
      <trkpt lat="43.71621" lon="0.9746">
        <ele>151.5</ele>
        <time>2016-11-16T12:01:42.000Z</time>
      </trkpt>
      <trkpt lat="43.71601" lon="0.97425">
        <ele>149</ele>
        <time>2016-11-16T12:02:04.000Z</time>
      </trkpt>
      <trkpt lat="43.71594" lon="0.97417">
        <ele>148.6</ele>
        <time>2016-11-16T12:02:10.000Z</time>
      </trkpt>
      <trkpt lat="43.71589" lon="0.97406">
        <ele>148.2</ele>
        <time>2016-11-16T12:02:18.000Z</time>
      </trkpt>
      <trkpt lat="43.71588" lon="0.97394">
        <ele>148</ele>
        <time>2016-11-16T12:02:24.000Z</time>
      </trkpt>
      <trkpt lat="43.71584" lon="0.97382">
        <ele>147.5</ele>
        <time>2016-11-16T12:02:34.000Z</time>
      </trkpt>
      <trkpt lat="43.71581" lon="0.97368">
        <ele>147.1</ele>
        <time>2016-11-16T12:02:45.000Z</time>
      </trkpt>
      <trkpt lat="43.71583" lon="0.97354">
        <ele>146.9</ele>
        <time>2016-11-16T12:02:53.000Z</time>
      </trkpt>
      <trkpt lat="43.71586" lon="0.97341">
        <ele>146.7</ele>
        <time>2016-11-16T12:02:59.000Z</time>
      </trkpt>
      <trkpt lat="43.71585" lon="0.97328">
        <ele>146.6</ele>
        <time>2016-11-16T12:03:08.000Z</time>
      </trkpt>
      <trkpt lat="43.71582" lon="0.97316">
        <ele>147.1</ele>
        <time>2016-11-16T12:03:17.000Z</time>
      </trkpt>
      <trkpt lat="43.7158" lon="0.97303">
        <ele>147.1</ele>
        <time>2016-11-16T12:03:25.000Z</time>
      </trkpt>
      <trkpt lat="43.71581" lon="0.9729">
        <ele>146.9</ele>
        <time>2016-11-16T12:03:33.000Z</time>
      </trkpt>
      <trkpt lat="43.71582" lon="0.97277">
        <ele>146.1</ele>
        <time>2016-11-16T12:03:44.000Z</time>
      </trkpt>
      <trkpt lat="43.71581" lon="0.97264">
        <ele>145.9</ele>
        <time>2016-11-16T12:03:55.000Z</time>
      </trkpt>
      <trkpt lat="43.71579" lon="0.97252">
        <ele>145.3</ele>
        <time>2016-11-16T12:04:04.000Z</time>
      </trkpt>
      <trkpt lat="43.71571" lon="0.97243">
        <ele>145.2</ele>
        <time>2016-11-16T12:04:13.000Z</time>
      </trkpt>
      <trkpt lat="43.71561" lon="0.97244">
        <ele>146</ele>
        <time>2016-11-16T12:04:22.000Z</time>
      </trkpt>
      <trkpt lat="43.71552" lon="0.97239">
        <ele>146.5</ele>
        <time>2016-11-16T12:04:29.000Z</time>
      </trkpt>
      <trkpt lat="43.71543" lon="0.97234">
        <ele>146.9</ele>
        <time>2016-11-16T12:04:37.000Z</time>
      </trkpt>
      <trkpt lat="43.71534" lon="0.97231">
        <ele>147.2</ele>
        <time>2016-11-16T12:04:45.000Z</time>
      </trkpt>
      <trkpt lat="43.71525" lon="0.97229">
        <ele>147.7</ele>
        <time>2016-11-16T12:04:54.000Z</time>
      </trkpt>
      <trkpt lat="43.71516" lon="0.97227">
        <ele>148.2</ele>
        <time>2016-11-16T12:05:02.000Z</time>
      </trkpt>
      <trkpt lat="43.71509" lon="0.97218">
        <ele>148.6</ele>
        <time>2016-11-16T12:05:10.000Z</time>
      </trkpt>
      <trkpt lat="43.71502" lon="0.9721">
        <ele>149</ele>
        <time>2016-11-16T12:05:18.000Z</time>
      </trkpt>
      <trkpt lat="43.71492" lon="0.97209">
        <ele>150</ele>
        <time>2016-11-16T12:05:29.000Z</time>
      </trkpt>
      <trkpt lat="43.71483" lon="0.97207">
        <ele>151.1</ele>
        <time>2016-11-16T12:05:37.000Z</time>
      </trkpt>
      <trkpt lat="43.71475" lon="0.972">
        <ele>152.5</ele>
        <time>2016-11-16T12:05:48.000Z</time>
      </trkpt>
      <trkpt lat="43.71467" lon="0.97194">
        <ele>154</ele>
        <time>2016-11-16T12:06:01.000Z</time>
      </trkpt>
      <trkpt lat="43.71457" lon="0.97189">
        <ele>155.4</ele>
        <time>2016-11-16T12:06:11.000Z</time>
      </trkpt>
      <trkpt lat="43.71448" lon="0.97187">
        <ele>156.8</ele>
        <time>2016-11-16T12:06:22.000Z</time>
      </trkpt>
      <trkpt lat="43.71438" lon="0.97184">
        <ele>157.7</ele>
        <time>2016-11-16T12:06:28.000Z</time>
      </trkpt>
      <trkpt lat="43.71429" lon="0.97178">
        <ele>158.4</ele>
        <time>2016-11-16T12:06:33.000Z</time>
      </trkpt>
      <trkpt lat="43.7142" lon="0.97176">
        <ele>159.3</ele>
        <time>2016-11-16T12:06:40.000Z</time>
      </trkpt>
      <trkpt lat="43.71411" lon="0.97171">
        <ele>160.4</ele>
        <time>2016-11-16T12:06:49.000Z</time>
      </trkpt>
      <trkpt lat="43.71401" lon="0.97172">
        <ele>162.6</ele>
        <time>2016-11-16T12:07:09.000Z</time>
      </trkpt>
      <trkpt lat="43.71391" lon="0.97169">
        <ele>164.1</ele>
        <time>2016-11-16T12:07:21.000Z</time>
      </trkpt>
      <trkpt lat="43.71382" lon="0.97166">
        <ele>165.1</ele>
        <time>2016-11-16T12:07:31.000Z</time>
      </trkpt>
      <trkpt lat="43.71373" lon="0.97161">
        <ele>165.9</ele>
        <time>2016-11-16T12:07:38.000Z</time>
      </trkpt>
      <trkpt lat="43.71365" lon="0.97156">
        <ele>166.5</ele>
        <time>2016-11-16T12:07:44.000Z</time>
      </trkpt>
      <trkpt lat="43.71356" lon="0.97153">
        <ele>167.5</ele>
        <time>2016-11-16T12:07:54.000Z</time>
      </trkpt>
      <trkpt lat="43.71348" lon="0.97148">
        <ele>168.4</ele>
        <time>2016-11-16T12:08:05.000Z</time>
      </trkpt>
      <trkpt lat="43.71338" lon="0.97145">
        <ele>169.2</ele>
        <time>2016-11-16T12:08:13.000Z</time>
      </trkpt>
      <trkpt lat="43.71329" lon="0.97141">
        <ele>170.1</ele>
        <time>2016-11-16T12:08:23.000Z</time>
      </trkpt>
      <trkpt lat="43.7132" lon="0.97136">
        <ele>171</ele>
        <time>2016-11-16T12:08:33.000Z</time>
      </trkpt>
      <trkpt lat="43.71311" lon="0.97132">
        <ele>172</ele>
        <time>2016-11-16T12:08:43.000Z</time>
      </trkpt>
      <trkpt lat="43.71303" lon="0.97127">
        <ele>172.8</ele>
        <time>2016-11-16T12:08:51.000Z</time>
      </trkpt>
      <trkpt lat="43.71293" lon="0.97124">
        <ele>173.8</ele>
        <time>2016-11-16T12:09:01.000Z</time>
      </trkpt>
      <trkpt lat="43.71284" lon="0.97119">
        <ele>174.8</ele>
        <time>2016-11-16T12:09:10.000Z</time>
      </trkpt>
      <trkpt lat="43.71275" lon="0.97113">
        <ele>175.9</ele>
        <time>2016-11-16T12:09:18.000Z</time>
      </trkpt>
      <trkpt lat="43.71267" lon="0.97107">
        <ele>176.9</ele>
        <time>2016-11-16T12:09:26.000Z</time>
      </trkpt>
      <trkpt lat="43.71259" lon="0.971">
        <ele>177.7</ele>
        <time>2016-11-16T12:09:37.000Z</time>
      </trkpt>
      <trkpt lat="43.71248" lon="0.97102">
        <ele>179.2</ele>
        <time>2016-11-16T12:09:49.000Z</time>
      </trkpt>
      <trkpt lat="43.71239" lon="0.97105">
        <ele>180.2</ele>
        <time>2016-11-16T12:10:03.000Z</time>
      </trkpt>
      <trkpt lat="43.71229" lon="0.971">
        <ele>181.4</ele>
        <time>2016-11-16T12:10:15.000Z</time>
      </trkpt>
      <trkpt lat="43.7122" lon="0.97097">
        <ele>182.3</ele>
        <time>2016-11-16T12:10:23.000Z</time>
      </trkpt>
      <trkpt lat="43.71211" lon="0.97092">
        <ele>183.3</ele>
        <time>2016-11-16T12:10:32.000Z</time>
      </trkpt>
      <trkpt lat="43.71204" lon="0.97084">
        <ele>184.3</ele>
        <time>2016-11-16T12:10:40.000Z</time>
      </trkpt>
      <trkpt lat="43.71196" lon="0.97078">
        <ele>186.1</ele>
        <time>2016-11-16T12:10:52.000Z</time>
      </trkpt>
      <trkpt lat="43.71186" lon="0.97073">
        <ele>187.1</ele>
        <time>2016-11-16T12:11:01.000Z</time>
      </trkpt>
      <trkpt lat="43.71177" lon="0.97068">
        <ele>188</ele>
        <time>2016-11-16T12:11:12.000Z</time>
      </trkpt>
      <trkpt lat="43.71169" lon="0.97062">
        <ele>188.5</ele>
        <time>2016-11-16T12:11:22.000Z</time>
      </trkpt>
      <trkpt lat="43.7116" lon="0.97057">
        <ele>188.6</ele>
        <time>2016-11-16T12:11:28.000Z</time>
      </trkpt>
      <trkpt lat="43.71152" lon="0.97051">
        <ele>188.3</ele>
        <time>2016-11-16T12:11:36.000Z</time>
      </trkpt>
      <trkpt lat="43.71143" lon="0.97047">
        <ele>187.5</ele>
        <time>2016-11-16T12:11:46.000Z</time>
      </trkpt>
      <trkpt lat="43.71134" lon="0.97041">
        <ele>186.4</ele>
        <time>2016-11-16T12:11:58.000Z</time>
      </trkpt>
      <trkpt lat="43.71125" lon="0.97035">
        <ele>185.3</ele>
        <time>2016-11-16T12:12:08.000Z</time>
      </trkpt>
      <trkpt lat="43.71117" lon="0.97029">
        <ele>184.3</ele>
        <time>2016-11-16T12:12:16.000Z</time>
      </trkpt>
      <trkpt lat="43.71108" lon="0.97026">
        <ele>182.9</ele>
        <time>2016-11-16T12:12:27.000Z</time>
      </trkpt>
      <trkpt lat="43.711" lon="0.9702">
        <ele>182.3</ele>
        <time>2016-11-16T12:12:34.000Z</time>
      </trkpt>
      <trkpt lat="43.71092" lon="0.97015">
        <ele>181.3</ele>
        <time>2016-11-16T12:12:43.000Z</time>
      </trkpt>
      <trkpt lat="43.71083" lon="0.97011">
        <ele>180.4</ele>
        <time>2016-11-16T12:12:52.000Z</time>
      </trkpt>
      <trkpt lat="43.71073" lon="0.97009">
        <ele>178.9</ele>
        <time>2016-11-16T12:13:05.000Z</time>
      </trkpt>
      <trkpt lat="43.71066" lon="0.97001">
        <ele>177.7</ele>
        <time>2016-11-16T12:13:14.000Z</time>
      </trkpt>
      <trkpt lat="43.71056" lon="0.96998">
        <ele>176.3</ele>
        <time>2016-11-16T12:13:26.000Z</time>
      </trkpt>
      <trkpt lat="43.71048" lon="0.96991">
        <ele>175</ele>
        <time>2016-11-16T12:13:37.000Z</time>
      </trkpt>
      <trkpt lat="43.71041" lon="0.96984">
        <ele>173.7</ele>
        <time>2016-11-16T12:13:48.000Z</time>
      </trkpt>
      <trkpt lat="43.71033" lon="0.96977">
        <ele>172.8</ele>
        <time>2016-11-16T12:13:55.000Z</time>
      </trkpt>
      <trkpt lat="43.71024" lon="0.96971">
        <ele>171.8</ele>
        <time>2016-11-16T12:14:05.000Z</time>
      </trkpt>
      <trkpt lat="43.71018" lon="0.96962">
        <ele>170.9</ele>
        <time>2016-11-16T12:14:14.000Z</time>
      </trkpt>
      <trkpt lat="43.71009" lon="0.96955">
        <ele>169.7</ele>
        <time>2016-11-16T12:14:28.000Z</time>
      </trkpt>
      <trkpt lat="43.71002" lon="0.96947">
        <ele>168.4</ele>
        <time>2016-11-16T12:14:39.000Z</time>
      </trkpt>
      <trkpt lat="43.70995" lon="0.96939">
        <ele>167.4</ele>
        <time>2016-11-16T12:14:49.000Z</time>
      </trkpt>
      <trkpt lat="43.70988" lon="0.9693">
        <ele>166.3</ele>
        <time>2016-11-16T12:15:01.000Z</time>
      </trkpt>
      <trkpt lat="43.7098" lon="0.96923">
        <ele>165.4</ele>
        <time>2016-11-16T12:15:10.000Z</time>
      </trkpt>
      <trkpt lat="43.70972" lon="0.96916">
        <ele>164</ele>
        <time>2016-11-16T12:15:20.000Z</time>
      </trkpt>
      <trkpt lat="43.70963" lon="0.96916">
        <ele>163.1</ele>
        <time>2016-11-16T12:15:29.000Z</time>
      </trkpt>
      <trkpt lat="43.70953" lon="0.96913">
        <ele>161.7</ele>
        <time>2016-11-16T12:15:43.000Z</time>
      </trkpt>
      <trkpt lat="43.70941" lon="0.96909">
        <ele>159.4</ele>
        <time>2016-11-16T12:15:57.000Z</time>
      </trkpt>
      <trkpt lat="43.70932" lon="0.96911">
        <ele>158.1</ele>
        <time>2016-11-16T12:16:11.000Z</time>
      </trkpt>
      <trkpt lat="43.70923" lon="0.96905">
        <ele>157.3</ele>
        <time>2016-11-16T12:16:21.000Z</time>
      </trkpt>
      <trkpt lat="43.70913" lon="0.96901">
        <ele>156.3</ele>
        <time>2016-11-16T12:16:32.000Z</time>
      </trkpt>
      <trkpt lat="43.70904" lon="0.96896">
        <ele>155.9</ele>
        <time>2016-11-16T12:16:37.000Z</time>
      </trkpt>
      <trkpt lat="43.70895" lon="0.96891">
        <ele>155.4</ele>
        <time>2016-11-16T12:16:46.000Z</time>
      </trkpt>
      <trkpt lat="43.70886" lon="0.96886">
        <ele>155.2</ele>
        <time>2016-11-16T12:16:54.000Z</time>
      </trkpt>
      <trkpt lat="43.70877" lon="0.96885">
        <ele>154.9</ele>
        <time>2016-11-16T12:17:03.000Z</time>
      </trkpt>
      <trkpt lat="43.70868" lon="0.96882">
        <ele>154.6</ele>
        <time>2016-11-16T12:17:10.000Z</time>
      </trkpt>
      <trkpt lat="43.70859" lon="0.96878">
        <ele>154.4</ele>
        <time>2016-11-16T12:17:19.000Z</time>
      </trkpt>
      <trkpt lat="43.70849" lon="0.96878">
        <ele>154.2</ele>
        <time>2016-11-16T12:17:27.000Z</time>
      </trkpt>
      <trkpt lat="43.70841" lon="0.96873">
        <ele>154.2</ele>
        <time>2016-11-16T12:17:36.000Z</time>
      </trkpt>
      <trkpt lat="43.70831" lon="0.96868">
        <ele>154.1</ele>
        <time>2016-11-16T12:17:44.000Z</time>
      </trkpt>
      <trkpt lat="43.70823" lon="0.96862">
        <ele>154</ele>
        <time>2016-11-16T12:17:52.000Z</time>
      </trkpt>
      <trkpt lat="43.70817" lon="0.96852">
        <ele>153.6</ele>
        <time>2016-11-16T12:18:03.000Z</time>
      </trkpt>
      <trkpt lat="43.7081" lon="0.9684">
        <ele>153.6</ele>
        <time>2016-11-16T12:18:12.000Z</time>
      </trkpt>
      <trkpt lat="43.70804" lon="0.96831">
        <ele>153.7</ele>
        <time>2016-11-16T12:18:21.000Z</time>
      </trkpt>
      <trkpt lat="43.70798" lon="0.96821">
        <ele>153.9</ele>
        <time>2016-11-16T12:18:29.000Z</time>
      </trkpt>
      <trkpt lat="43.7079" lon="0.96812">
        <ele>154.1</ele>
        <time>2016-11-16T12:18:38.000Z</time>
      </trkpt>
      <trkpt lat="43.70784" lon="0.96803">
        <ele>154.3</ele>
        <time>2016-11-16T12:18:47.000Z</time>
      </trkpt>
      <trkpt lat="43.70776" lon="0.96796">
        <ele>154.6</ele>
        <time>2016-11-16T12:18:57.000Z</time>
      </trkpt>
      <trkpt lat="43.70769" lon="0.96787">
        <ele>154.2</ele>
        <time>2016-11-16T12:19:21.000Z</time>
      </trkpt>
      <trkpt lat="43.70761" lon="0.96782">
        <ele>155.3</ele>
        <time>2016-11-16T12:19:33.000Z</time>
      </trkpt>
      <trkpt lat="43.70756" lon="0.9677">
        <ele>155.8</ele>
        <time>2016-11-16T12:19:48.000Z</time>
      </trkpt>
      <trkpt lat="43.70748" lon="0.96763">
        <ele>155.7</ele>
        <time>2016-11-16T12:20:17.000Z</time>
      </trkpt>
      <trkpt lat="43.70741" lon="0.96756">
        <ele>155.3</ele>
        <time>2016-11-16T12:20:29.000Z</time>
      </trkpt>
      <trkpt lat="43.70732" lon="0.96751">
        <ele>156.6</ele>
        <time>2016-11-16T12:20:40.000Z</time>
      </trkpt>
      <trkpt lat="43.70724" lon="0.96744">
        <ele>157.2</ele>
        <time>2016-11-16T12:20:49.000Z</time>
      </trkpt>
      <trkpt lat="43.70717" lon="0.96736">
        <ele>157.4</ele>
        <time>2016-11-16T12:20:58.000Z</time>
      </trkpt>
      <trkpt lat="43.70708" lon="0.96731">
        <ele>157.8</ele>
        <time>2016-11-16T12:21:07.000Z</time>
      </trkpt>
      <trkpt lat="43.70699" lon="0.96725">
        <ele>157.7</ele>
        <time>2016-11-16T12:21:17.000Z</time>
      </trkpt>
      <trkpt lat="43.70692" lon="0.96716">
        <ele>157.3</ele>
        <time>2016-11-16T12:21:28.000Z</time>
      </trkpt>
      <trkpt lat="43.70685" lon="0.96708">
        <ele>157.7</ele>
        <time>2016-11-16T12:21:39.000Z</time>
      </trkpt>
      <trkpt lat="43.70677" lon="0.96699">
        <ele>158</ele>
        <time>2016-11-16T12:21:47.000Z</time>
      </trkpt>
      <trkpt lat="43.70672" lon="0.96689">
        <ele>158.4</ele>
        <time>2016-11-16T12:21:58.000Z</time>
      </trkpt>
      <trkpt lat="43.70664" lon="0.96681">
        <ele>158.9</ele>
        <time>2016-11-16T12:22:08.000Z</time>
      </trkpt>
      <trkpt lat="43.70656" lon="0.96674">
        <ele>159.5</ele>
        <time>2016-11-16T12:22:16.000Z</time>
      </trkpt>
      <trkpt lat="43.70647" lon="0.96673">
        <ele>160.1</ele>
        <time>2016-11-16T12:22:25.000Z</time>
      </trkpt>
      <trkpt lat="43.70637" lon="0.96671">
        <ele>160.7</ele>
        <time>2016-11-16T12:22:32.000Z</time>
      </trkpt>
      <trkpt lat="43.70627" lon="0.96669">
        <ele>161.7</ele>
        <time>2016-11-16T12:22:42.000Z</time>
      </trkpt>
      <trkpt lat="43.70617" lon="0.96667">
        <ele>162.6</ele>
        <time>2016-11-16T12:22:55.000Z</time>
      </trkpt>
      <trkpt lat="43.70608" lon="0.96666">
        <ele>163.5</ele>
        <time>2016-11-16T12:23:05.000Z</time>
      </trkpt>
      <trkpt lat="43.70599" lon="0.96661">
        <ele>164.7</ele>
        <time>2016-11-16T12:23:16.000Z</time>
      </trkpt>
      <trkpt lat="43.7059" lon="0.9666">
        <ele>165.9</ele>
        <time>2016-11-16T12:23:27.000Z</time>
      </trkpt>
      <trkpt lat="43.70581" lon="0.96657">
        <ele>167.2</ele>
        <time>2016-11-16T12:23:38.000Z</time>
      </trkpt>
      <trkpt lat="43.70572" lon="0.96653">
        <ele>168.2</ele>
        <time>2016-11-16T12:23:47.000Z</time>
      </trkpt>
      <trkpt lat="43.70563" lon="0.96649">
        <ele>169.1</ele>
        <time>2016-11-16T12:23:56.000Z</time>
      </trkpt>
      <trkpt lat="43.70555" lon="0.96644">
        <ele>170.1</ele>
        <time>2016-11-16T12:24:06.000Z</time>
      </trkpt>
      <trkpt lat="43.70547" lon="0.96637">
        <ele>171.1</ele>
        <time>2016-11-16T12:24:16.000Z</time>
      </trkpt>
      <trkpt lat="43.70537" lon="0.96636">
        <ele>172.1</ele>
        <time>2016-11-16T12:24:25.000Z</time>
      </trkpt>
      <trkpt lat="43.70527" lon="0.96635">
        <ele>173</ele>
        <time>2016-11-16T12:24:35.000Z</time>
      </trkpt>
      <trkpt lat="43.70518" lon="0.96632">
        <ele>173.9</ele>
        <time>2016-11-16T12:24:44.000Z</time>
      </trkpt>
      <trkpt lat="43.7051" lon="0.96628">
        <ele>175</ele>
        <time>2016-11-16T12:24:54.000Z</time>
      </trkpt>
      <trkpt lat="43.70501" lon="0.96626">
        <ele>176.4</ele>
        <time>2016-11-16T12:25:06.000Z</time>
      </trkpt>
      <trkpt lat="43.70491" lon="0.96623">
        <ele>177.8</ele>
        <time>2016-11-16T12:25:18.000Z</time>
      </trkpt>
      <trkpt lat="43.70482" lon="0.9662">
        <ele>178.7</ele>
        <time>2016-11-16T12:25:29.000Z</time>
      </trkpt>
      <trkpt lat="43.70474" lon="0.96611">
        <ele>179.5</ele>
        <time>2016-11-16T12:25:36.000Z</time>
      </trkpt>
      <trkpt lat="43.70465" lon="0.96609">
        <ele>180.9</ele>
        <time>2016-11-16T12:25:48.000Z</time>
      </trkpt>
      <trkpt lat="43.70456" lon="0.96604">
        <ele>182.1</ele>
        <time>2016-11-16T12:25:58.000Z</time>
      </trkpt>
      <trkpt lat="43.70447" lon="0.96598">
        <ele>183.1</ele>
        <time>2016-11-16T12:26:08.000Z</time>
      </trkpt>
      <trkpt lat="43.70439" lon="0.96593">
        <ele>183.9</ele>
        <time>2016-11-16T12:26:17.000Z</time>
      </trkpt>
      <trkpt lat="43.7043" lon="0.96588">
        <ele>184.5</ele>
        <time>2016-11-16T12:26:25.000Z</time>
      </trkpt>
      <trkpt lat="43.70422" lon="0.96581">
        <ele>185.3</ele>
        <time>2016-11-16T12:26:36.000Z</time>
      </trkpt>
      <trkpt lat="43.70414" lon="0.96574">
        <ele>185.9</ele>
        <time>2016-11-16T12:26:45.000Z</time>
      </trkpt>
      <trkpt lat="43.70405" lon="0.9657">
        <ele>186.4</ele>
        <time>2016-11-16T12:26:53.000Z</time>
      </trkpt>
      <trkpt lat="43.70396" lon="0.96565">
        <ele>186.9</ele>
        <time>2016-11-16T12:27:02.000Z</time>
      </trkpt>
      <trkpt lat="43.70386" lon="0.96567">
        <ele>187.5</ele>
        <time>2016-11-16T12:27:11.000Z</time>
      </trkpt>
      <trkpt lat="43.7038" lon="0.96557">
        <ele>188.1</ele>
        <time>2016-11-16T12:27:20.000Z</time>
      </trkpt>
      <trkpt lat="43.70372" lon="0.96551">
        <ele>189</ele>
        <time>2016-11-16T12:27:30.000Z</time>
      </trkpt>
      <trkpt lat="43.70363" lon="0.96546">
        <ele>189.8</ele>
        <time>2016-11-16T12:27:39.000Z</time>
      </trkpt>
      <trkpt lat="43.70354" lon="0.96542">
        <ele>190.3</ele>
        <time>2016-11-16T12:27:45.000Z</time>
      </trkpt>
      <trkpt lat="43.70345" lon="0.96538">
        <ele>191.7</ele>
        <time>2016-11-16T12:27:59.000Z</time>
      </trkpt>
      <trkpt lat="43.70337" lon="0.96528">
        <ele>193.4</ele>
        <time>2016-11-16T12:28:15.000Z</time>
      </trkpt>
      <trkpt lat="43.7033" lon="0.96519">
        <ele>194.6</ele>
        <time>2016-11-16T12:28:26.000Z</time>
      </trkpt>
      <trkpt lat="43.70326" lon="0.96508">
        <ele>196</ele>
        <time>2016-11-16T12:28:38.000Z</time>
      </trkpt>
      <trkpt lat="43.7032" lon="0.96498">
        <ele>196.9</ele>
        <time>2016-11-16T12:28:46.000Z</time>
      </trkpt>
      <trkpt lat="43.70317" lon="0.96485">
        <ele>198.3</ele>
        <time>2016-11-16T12:28:58.000Z</time>
      </trkpt>
      <trkpt lat="43.70313" lon="0.96474">
        <ele>199.8</ele>
        <time>2016-11-16T12:29:11.000Z</time>
      </trkpt>
      <trkpt lat="43.70306" lon="0.96464">
        <ele>201.3</ele>
        <time>2016-11-16T12:29:20.000Z</time>
      </trkpt>
      <trkpt lat="43.703" lon="0.96454">
        <ele>202</ele>
        <time>2016-11-16T12:29:31.000Z</time>
      </trkpt>
      <trkpt lat="43.70294" lon="0.96444">
        <ele>201.9</ele>
        <time>2016-11-16T12:29:40.000Z</time>
      </trkpt>
      <trkpt lat="43.70287" lon="0.96434">
        <ele>202</ele>
        <time>2016-11-16T12:29:51.000Z</time>
      </trkpt>
      <trkpt lat="43.70281" lon="0.96424">
        <ele>202.1</ele>
        <time>2016-11-16T12:29:59.000Z</time>
      </trkpt>
      <trkpt lat="43.70274" lon="0.96416">
        <ele>202.2</ele>
        <time>2016-11-16T12:30:05.000Z</time>
      </trkpt>
      <trkpt lat="43.70267" lon="0.96407">
        <ele>202.4</ele>
        <time>2016-11-16T12:30:15.000Z</time>
      </trkpt>
      <trkpt lat="43.70258" lon="0.96397">
        <ele>202.6</ele>
        <time>2016-11-16T12:30:21.000Z</time>
      </trkpt>
      <trkpt lat="43.70252" lon="0.96387">
        <ele>202.9</ele>
        <time>2016-11-16T12:30:29.000Z</time>
      </trkpt>
      <trkpt lat="43.70247" lon="0.96376">
        <ele>203.3</ele>
        <time>2016-11-16T12:30:38.000Z</time>
      </trkpt>
      <trkpt lat="43.70242" lon="0.96364">
        <ele>203.9</ele>
        <time>2016-11-16T12:30:47.000Z</time>
      </trkpt>
      <trkpt lat="43.70239" lon="0.96351">
        <ele>204.1</ele>
        <time>2016-11-16T12:30:56.000Z</time>
      </trkpt>
      <trkpt lat="43.70237" lon="0.96338">
        <ele>204.2</ele>
        <time>2016-11-16T12:31:05.000Z</time>
      </trkpt>
      <trkpt lat="43.70235" lon="0.96325">
        <ele>204.2</ele>
        <time>2016-11-16T12:31:14.000Z</time>
      </trkpt>
      <trkpt lat="43.70233" lon="0.96312">
        <ele>204.2</ele>
        <time>2016-11-16T12:31:23.000Z</time>
      </trkpt>
      <trkpt lat="43.70231" lon="0.96299">
        <ele>204.3</ele>
        <time>2016-11-16T12:31:32.000Z</time>
      </trkpt>
      <trkpt lat="43.70229" lon="0.96286">
        <ele>204.4</ele>
        <time>2016-11-16T12:31:40.000Z</time>
      </trkpt>
      <trkpt lat="43.70227" lon="0.96273">
        <ele>204.3</ele>
        <time>2016-11-16T12:31:49.000Z</time>
      </trkpt>
      <trkpt lat="43.70225" lon="0.96259">
        <ele>204.4</ele>
        <time>2016-11-16T12:31:58.000Z</time>
      </trkpt>
      <trkpt lat="43.70222" lon="0.96247">
        <ele>204.9</ele>
        <time>2016-11-16T12:32:08.000Z</time>
      </trkpt>
      <trkpt lat="43.7022" lon="0.96235">
        <ele>205.4</ele>
        <time>2016-11-16T12:32:16.000Z</time>
      </trkpt>
      <trkpt lat="43.70216" lon="0.96224">
        <ele>205.9</ele>
        <time>2016-11-16T12:32:25.000Z</time>
      </trkpt>
      <trkpt lat="43.70212" lon="0.96212">
        <ele>206.3</ele>
        <time>2016-11-16T12:32:34.000Z</time>
      </trkpt>
      <trkpt lat="43.70207" lon="0.96201">
        <ele>206.7</ele>
        <time>2016-11-16T12:32:42.000Z</time>
      </trkpt>
      <trkpt lat="43.70203" lon="0.9619">
        <ele>207.1</ele>
        <time>2016-11-16T12:32:50.000Z</time>
      </trkpt>
      <trkpt lat="43.70198" lon="0.96179">
        <ele>207.3</ele>
        <time>2016-11-16T12:32:58.000Z</time>
      </trkpt>
      <trkpt lat="43.70193" lon="0.96168">
        <ele>207.4</ele>
        <time>2016-11-16T12:33:07.000Z</time>
      </trkpt>
      <trkpt lat="43.70189" lon="0.96156">
        <ele>207.4</ele>
        <time>2016-11-16T12:33:16.000Z</time>
      </trkpt>
      <trkpt lat="43.70185" lon="0.96143">
        <ele>207</ele>
        <time>2016-11-16T12:33:25.000Z</time>
      </trkpt>
      <trkpt lat="43.70181" lon="0.96131">
        <ele>206.6</ele>
        <time>2016-11-16T12:33:33.000Z</time>
      </trkpt>
      <trkpt lat="43.70177" lon="0.96119">
        <ele>206</ele>
        <time>2016-11-16T12:33:42.000Z</time>
      </trkpt>
      <trkpt lat="43.70177" lon="0.96105">
        <ele>205.4</ele>
        <time>2016-11-16T12:33:49.000Z</time>
      </trkpt>
      <trkpt lat="43.70175" lon="0.96093">
        <ele>204.9</ele>
        <time>2016-11-16T12:33:56.000Z</time>
      </trkpt>
      <trkpt lat="43.70171" lon="0.96079">
        <ele>204.5</ele>
        <time>2016-11-16T12:34:04.000Z</time>
      </trkpt>
      <trkpt lat="43.70173" lon="0.96067">
        <ele>204.3</ele>
        <time>2016-11-16T12:34:12.000Z</time>
      </trkpt>
      <trkpt lat="43.70171" lon="0.96054">
        <ele>204.2</ele>
        <time>2016-11-16T12:34:18.000Z</time>
      </trkpt>
      <trkpt lat="43.70166" lon="0.96043">
        <ele>204.2</ele>
        <time>2016-11-16T12:34:26.000Z</time>
      </trkpt>
      <trkpt lat="43.7016" lon="0.96032">
        <ele>204.1</ele>
        <time>2016-11-16T12:34:37.000Z</time>
      </trkpt>
      <trkpt lat="43.70152" lon="0.96024">
        <ele>204.1</ele>
        <time>2016-11-16T12:34:48.000Z</time>
      </trkpt>
      <trkpt lat="43.70145" lon="0.96016">
        <ele>204.1</ele>
        <time>2016-11-16T12:34:56.000Z</time>
      </trkpt>
      <trkpt lat="43.70138" lon="0.96006">
        <ele>204.3</ele>
        <time>2016-11-16T12:35:04.000Z</time>
      </trkpt>
      <trkpt lat="43.7013" lon="0.95997">
        <ele>204.5</ele>
        <time>2016-11-16T12:35:11.000Z</time>
      </trkpt>
      <trkpt lat="43.70123" lon="0.95988">
        <ele>204.8</ele>
        <time>2016-11-16T12:35:18.000Z</time>
      </trkpt>
      <trkpt lat="43.70116" lon="0.95978">
        <ele>205.3</ele>
        <time>2016-11-16T12:35:27.000Z</time>
      </trkpt>
      <trkpt lat="43.70109" lon="0.95969">
        <ele>206.1</ele>
        <time>2016-11-16T12:35:37.000Z</time>
      </trkpt>
      <trkpt lat="43.70102" lon="0.95961">
        <ele>206.9</ele>
        <time>2016-11-16T12:35:48.000Z</time>
      </trkpt>
      <trkpt lat="43.70095" lon="0.95953">
        <ele>207.8</ele>
        <time>2016-11-16T12:35:57.000Z</time>
      </trkpt>
      <trkpt lat="43.70087" lon="0.95945">
        <ele>208.5</ele>
        <time>2016-11-16T12:36:05.000Z</time>
      </trkpt>
      <trkpt lat="43.70081" lon="0.95935">
        <ele>209.5</ele>
        <time>2016-11-16T12:36:14.000Z</time>
      </trkpt>
      <trkpt lat="43.70074" lon="0.95926">
        <ele>210.9</ele>
        <time>2016-11-16T12:36:23.000Z</time>
      </trkpt>
      <trkpt lat="43.70067" lon="0.95917">
        <ele>211.6</ele>
        <time>2016-11-16T12:36:32.000Z</time>
      </trkpt>
      <trkpt lat="43.70058" lon="0.95908">
        <ele>213</ele>
        <time>2016-11-16T12:37:18.000Z</time>
      </trkpt>
      <trkpt lat="43.70052" lon="0.95918">
        <ele>213.2</ele>
        <time>2016-11-16T12:37:33.000Z</time>
      </trkpt>
      <trkpt lat="43.70046" lon="0.95929">
        <ele>213.8</ele>
        <time>2016-11-16T12:37:50.000Z</time>
      </trkpt>
      <trkpt lat="43.70039" lon="0.95938">
        <ele>214.1</ele>
        <time>2016-11-16T12:37:57.000Z</time>
      </trkpt>
      <trkpt lat="43.70033" lon="0.95948">
        <ele>214.6</ele>
        <time>2016-11-16T12:38:08.000Z</time>
      </trkpt>
      <trkpt lat="43.70031" lon="0.95962">
        <ele>214.2</ele>
        <time>2016-11-16T12:38:17.000Z</time>
      </trkpt>
      <trkpt lat="43.70026" lon="0.95973">
        <ele>213.8</ele>
        <time>2016-11-16T12:38:27.000Z</time>
      </trkpt>
      <trkpt lat="43.70019" lon="0.95983">
        <ele>213.7</ele>
        <time>2016-11-16T12:38:35.000Z</time>
      </trkpt>
      <trkpt lat="43.70014" lon="0.95994">
        <ele>215.1</ele>
        <time>2016-11-16T12:38:42.000Z</time>
      </trkpt>
      <trkpt lat="43.70007" lon="0.96003">
        <ele>215.1</ele>
        <time>2016-11-16T12:38:51.000Z</time>
      </trkpt>
      <trkpt lat="43.70002" lon="0.96013">
        <ele>215.8</ele>
        <time>2016-11-16T12:38:59.000Z</time>
      </trkpt>
      <trkpt lat="43.69995" lon="0.96022">
        <ele>214.3</ele>
        <time>2016-11-16T12:39:09.000Z</time>
      </trkpt>
      <trkpt lat="43.6999" lon="0.96033">
        <ele>213.6</ele>
        <time>2016-11-16T12:39:25.000Z</time>
      </trkpt>
      <trkpt lat="43.69986" lon="0.96045">
        <ele>213</ele>
        <time>2016-11-16T12:39:35.000Z</time>
      </trkpt>
      <trkpt lat="43.69984" lon="0.96057">
        <ele>212.7</ele>
        <time>2016-11-16T12:39:43.000Z</time>
      </trkpt>
      <trkpt lat="43.6998" lon="0.96069">
        <ele>212.4</ele>
        <time>2016-11-16T12:39:52.000Z</time>
      </trkpt>
      <trkpt lat="43.69976" lon="0.9608">
        <ele>211.9</ele>
        <time>2016-11-16T12:40:01.000Z</time>
      </trkpt>
      <trkpt lat="43.6997" lon="0.96092">
        <ele>211.7</ele>
        <time>2016-11-16T12:40:09.000Z</time>
      </trkpt>
      <trkpt lat="43.69965" lon="0.96103">
        <ele>211.7</ele>
        <time>2016-11-16T12:40:18.000Z</time>
      </trkpt>
      <trkpt lat="43.69961" lon="0.96115">
        <ele>211.8</ele>
        <time>2016-11-16T12:40:27.000Z</time>
      </trkpt>
      <trkpt lat="43.69957" lon="0.96127">
        <ele>212.1</ele>
        <time>2016-11-16T12:40:37.000Z</time>
      </trkpt>
      <trkpt lat="43.69952" lon="0.96138">
        <ele>212.7</ele>
        <time>2016-11-16T12:40:47.000Z</time>
      </trkpt>
      <trkpt lat="43.69949" lon="0.9615">
        <ele>213.1</ele>
        <time>2016-11-16T12:40:56.000Z</time>
      </trkpt>
      <trkpt lat="43.69941" lon="0.96158">
        <ele>213.5</ele>
        <time>2016-11-16T12:41:07.000Z</time>
      </trkpt>
      <trkpt lat="43.69931" lon="0.96159">
        <ele>213.7</ele>
        <time>2016-11-16T12:41:16.000Z</time>
      </trkpt>
      <trkpt lat="43.69922" lon="0.9616">
        <ele>214.1</ele>
        <time>2016-11-16T12:41:25.000Z</time>
      </trkpt>
      <trkpt lat="43.69912" lon="0.9616">
        <ele>214.5</ele>
        <time>2016-11-16T12:41:34.000Z</time>
      </trkpt>
      <trkpt lat="43.69903" lon="0.96161">
        <ele>214.8</ele>
        <time>2016-11-16T12:41:42.000Z</time>
      </trkpt>
      <trkpt lat="43.69894" lon="0.96164">
        <ele>215.5</ele>
        <time>2016-11-16T12:41:55.000Z</time>
      </trkpt>
      <trkpt lat="43.69886" lon="0.96169">
        <ele>215.7</ele>
        <time>2016-11-16T12:42:04.000Z</time>
      </trkpt>
      <trkpt lat="43.6989" lon="0.96181">
        <ele>215.6</ele>
        <time>2016-11-16T12:42:13.000Z</time>
      </trkpt>
      <trkpt lat="43.69893" lon="0.96193">
        <ele>215.4</ele>
        <time>2016-11-16T12:42:20.000Z</time>
      </trkpt>
      <trkpt lat="43.69896" lon="0.96205">
        <ele>215.2</ele>
        <time>2016-11-16T12:42:28.000Z</time>
      </trkpt>
      <trkpt lat="43.69898" lon="0.96219">
        <ele>215.1</ele>
        <time>2016-11-16T12:42:36.000Z</time>
      </trkpt>
      <trkpt lat="43.69899" lon="0.96232">
        <ele>215</ele>
        <time>2016-11-16T12:42:45.000Z</time>
      </trkpt>
      <trkpt lat="43.699" lon="0.96245">
        <ele>214.7</ele>
        <time>2016-11-16T12:42:54.000Z</time>
      </trkpt>
      <trkpt lat="43.699" lon="0.96258">
        <ele>214.5</ele>
        <time>2016-11-16T12:43:01.000Z</time>
      </trkpt>
      <trkpt lat="43.69899" lon="0.96272">
        <ele>213.8</ele>
        <time>2016-11-16T12:43:10.000Z</time>
      </trkpt>
      <trkpt lat="43.69899" lon="0.96285">
        <ele>213.9</ele>
        <time>2016-11-16T12:43:18.000Z</time>
      </trkpt>
      <trkpt lat="43.69896" lon="0.96297">
        <ele>214</ele>
        <time>2016-11-16T12:43:27.000Z</time>
      </trkpt>
      <trkpt lat="43.69893" lon="0.96311">
        <ele>213.7</ele>
        <time>2016-11-16T12:43:36.000Z</time>
      </trkpt>
      <trkpt lat="43.6989" lon="0.96324">
        <ele>213.2</ele>
        <time>2016-11-16T12:43:44.000Z</time>
      </trkpt>
      <trkpt lat="43.69886" lon="0.96335">
        <ele>212.9</ele>
        <time>2016-11-16T12:43:53.000Z</time>
      </trkpt>
      <trkpt lat="43.6988" lon="0.96346">
        <ele>212.2</ele>
        <time>2016-11-16T12:44:02.000Z</time>
      </trkpt>
      <trkpt lat="43.69875" lon="0.96358">
        <ele>211.3</ele>
        <time>2016-11-16T12:44:12.000Z</time>
      </trkpt>
      <trkpt lat="43.69868" lon="0.96367">
        <ele>210.2</ele>
        <time>2016-11-16T12:44:20.000Z</time>
      </trkpt>
      <trkpt lat="43.69863" lon="0.96378">
        <ele>210.1</ele>
        <time>2016-11-16T12:44:28.000Z</time>
      </trkpt>
      <trkpt lat="43.69858" lon="0.96389">
        <ele>209.3</ele>
        <time>2016-11-16T12:44:36.000Z</time>
      </trkpt>
      <trkpt lat="43.69854" lon="0.96401">
        <ele>207.9</ele>
        <time>2016-11-16T12:44:47.000Z</time>
      </trkpt>
      <trkpt lat="43.69849" lon="0.96412">
        <ele>206.9</ele>
        <time>2016-11-16T12:44:57.000Z</time>
      </trkpt>
      <trkpt lat="43.69843" lon="0.96422">
        <ele>206.1</ele>
        <time>2016-11-16T12:45:05.000Z</time>
      </trkpt>
      <trkpt lat="43.69837" lon="0.96433">
        <ele>205.6</ele>
        <time>2016-11-16T12:45:14.000Z</time>
      </trkpt>
      <trkpt lat="43.69835" lon="0.96449">
        <ele>201</ele>
        <time>2016-11-16T12:47:10.000Z</time>
      </trkpt>
      <trkpt lat="43.69831" lon="0.9646">
        <ele>201</ele>
        <time>2016-11-16T12:47:20.000Z</time>
      </trkpt>
      <trkpt lat="43.69827" lon="0.96473">
        <ele>200.4</ele>
        <time>2016-11-16T12:47:28.000Z</time>
      </trkpt>
      <trkpt lat="43.69823" lon="0.96486">
        <ele>199.3</ele>
        <time>2016-11-16T12:47:34.000Z</time>
      </trkpt>
      <trkpt lat="43.6982" lon="0.96499">
        <ele>197.9</ele>
        <time>2016-11-16T12:47:42.000Z</time>
      </trkpt>
      <trkpt lat="43.69817" lon="0.96511">
        <ele>197.7</ele>
        <time>2016-11-16T12:47:49.000Z</time>
      </trkpt>
      <trkpt lat="43.69814" lon="0.96524">
        <ele>197.4</ele>
        <time>2016-11-16T12:47:56.000Z</time>
      </trkpt>
      <trkpt lat="43.69812" lon="0.96537">
        <ele>197.2</ele>
        <time>2016-11-16T12:48:03.000Z</time>
      </trkpt>
      <trkpt lat="43.6981" lon="0.9655">
        <ele>196.6</ele>
        <time>2016-11-16T12:48:11.000Z</time>
      </trkpt>
      <trkpt lat="43.69808" lon="0.96562">
        <ele>195.8</ele>
        <time>2016-11-16T12:48:17.000Z</time>
      </trkpt>
      <trkpt lat="43.69807" lon="0.96576">
        <ele>194.3</ele>
        <time>2016-11-16T12:48:24.000Z</time>
      </trkpt>
      <trkpt lat="43.69803" lon="0.96588">
        <ele>194.4</ele>
        <time>2016-11-16T12:48:32.000Z</time>
      </trkpt>
      <trkpt lat="43.69802" lon="0.96602">
        <ele>194.4</ele>
        <time>2016-11-16T12:48:38.000Z</time>
      </trkpt>
      <trkpt lat="43.69798" lon="0.96616">
        <ele>193.7</ele>
        <time>2016-11-16T12:48:47.000Z</time>
      </trkpt>
      <trkpt lat="43.69796" lon="0.96629">
        <ele>192.8</ele>
        <time>2016-11-16T12:48:53.000Z</time>
      </trkpt>
      <trkpt lat="43.69792" lon="0.96641">
        <ele>191.8</ele>
        <time>2016-11-16T12:49:03.000Z</time>
      </trkpt>
      <trkpt lat="43.69791" lon="0.96654">
        <ele>191.5</ele>
        <time>2016-11-16T12:49:08.000Z</time>
      </trkpt>
      <trkpt lat="43.69789" lon="0.96667">
        <ele>190.8</ele>
        <time>2016-11-16T12:49:15.000Z</time>
      </trkpt>
      <trkpt lat="43.69788" lon="0.96681">
        <ele>189</ele>
        <time>2016-11-16T12:49:24.000Z</time>
      </trkpt>
      <trkpt lat="43.69787" lon="0.96694">
        <ele>187.8</ele>
        <time>2016-11-16T12:49:32.000Z</time>
      </trkpt>
      <trkpt lat="43.69787" lon="0.96706">
        <ele>187.1</ele>
        <time>2016-11-16T12:49:39.000Z</time>
      </trkpt>
      <trkpt lat="43.69787" lon="0.9672">
        <ele>185.9</ele>
        <time>2016-11-16T12:49:48.000Z</time>
      </trkpt>
      <trkpt lat="43.69788" lon="0.96732">
        <ele>184.7</ele>
        <time>2016-11-16T12:49:56.000Z</time>
      </trkpt>
      <trkpt lat="43.69786" lon="0.96746">
        <ele>183.8</ele>
        <time>2016-11-16T12:50:03.000Z</time>
      </trkpt>
      <trkpt lat="43.69786" lon="0.96758">
        <ele>182.6</ele>
        <time>2016-11-16T12:50:13.000Z</time>
      </trkpt>
      <trkpt lat="43.69786" lon="0.96772">
        <ele>182</ele>
        <time>2016-11-16T12:50:19.000Z</time>
      </trkpt>
      <trkpt lat="43.69783" lon="0.96785">
        <ele>180.9</ele>
        <time>2016-11-16T12:50:26.000Z</time>
      </trkpt>
      <trkpt lat="43.69779" lon="0.96797">
        <ele>179.8</ele>
        <time>2016-11-16T12:50:34.000Z</time>
      </trkpt>
      <trkpt lat="43.69779" lon="0.9681">
        <ele>178.4</ele>
        <time>2016-11-16T12:50:43.000Z</time>
      </trkpt>
      <trkpt lat="43.69778" lon="0.96824">
        <ele>177.3</ele>
        <time>2016-11-16T12:50:50.000Z</time>
      </trkpt>
      <trkpt lat="43.69771" lon="0.96832">
        <ele>175.9</ele>
        <time>2016-11-16T12:50:56.000Z</time>
      </trkpt>
      <trkpt lat="43.69763" lon="0.96841">
        <ele>174.8</ele>
        <time>2016-11-16T12:51:03.000Z</time>
      </trkpt>
      <trkpt lat="43.69757" lon="0.96852">
        <ele>173.8</ele>
        <time>2016-11-16T12:51:10.000Z</time>
      </trkpt>
      <trkpt lat="43.69753" lon="0.96868">
        <ele>173.1</ele>
        <time>2016-11-16T12:51:15.000Z</time>
      </trkpt>
      <trkpt lat="43.6975" lon="0.9688">
        <ele>171.9</ele>
        <time>2016-11-16T12:51:24.000Z</time>
      </trkpt>
      <trkpt lat="43.69745" lon="0.96893">
        <ele>170.8</ele>
        <time>2016-11-16T12:51:33.000Z</time>
      </trkpt>
      <trkpt lat="43.69742" lon="0.96906">
        <ele>169.8</ele>
        <time>2016-11-16T12:51:41.000Z</time>
      </trkpt>
      <trkpt lat="43.69737" lon="0.96917">
        <ele>169.1</ele>
        <time>2016-11-16T12:51:49.000Z</time>
      </trkpt>
      <trkpt lat="43.69734" lon="0.96929">
        <ele>168.6</ele>
        <time>2016-11-16T12:51:57.000Z</time>
      </trkpt>
      <trkpt lat="43.6973" lon="0.9694">
        <ele>168.2</ele>
        <time>2016-11-16T12:52:04.000Z</time>
      </trkpt>
      <trkpt lat="43.69727" lon="0.96952">
        <ele>167.9</ele>
        <time>2016-11-16T12:52:11.000Z</time>
      </trkpt>
      <trkpt lat="43.69723" lon="0.96963">
        <ele>167.6</ele>
        <time>2016-11-16T12:52:19.000Z</time>
      </trkpt>
      <trkpt lat="43.69718" lon="0.96974">
        <ele>167.3</ele>
        <time>2016-11-16T12:52:27.000Z</time>
      </trkpt>
      <trkpt lat="43.69713" lon="0.96987">
        <ele>167.6</ele>
        <time>2016-11-16T12:52:35.000Z</time>
      </trkpt>
      <trkpt lat="43.69707" lon="0.96997">
        <ele>167.8</ele>
        <time>2016-11-16T12:52:42.000Z</time>
      </trkpt>
      <trkpt lat="43.69703" lon="0.97009">
        <ele>167.9</ele>
        <time>2016-11-16T12:52:50.000Z</time>
      </trkpt>
      <trkpt lat="43.697" lon="0.97022">
        <ele>168.5</ele>
        <time>2016-11-16T12:52:58.000Z</time>
      </trkpt>
      <trkpt lat="43.69699" lon="0.97038">
        <ele>168.8</ele>
        <time>2016-11-16T12:53:05.000Z</time>
      </trkpt>
      <trkpt lat="43.69707" lon="0.97046">
        <ele>169.2</ele>
        <time>2016-11-16T12:53:12.000Z</time>
      </trkpt>
      <trkpt lat="43.69715" lon="0.97054">
        <ele>170.2</ele>
        <time>2016-11-16T12:53:22.000Z</time>
      </trkpt>
      <trkpt lat="43.69719" lon="0.97067">
        <ele>172.1</ele>
        <time>2016-11-16T12:53:34.000Z</time>
      </trkpt>
      <trkpt lat="43.69722" lon="0.9708">
        <ele>173.5</ele>
        <time>2016-11-16T12:53:44.000Z</time>
      </trkpt>
      <trkpt lat="43.6972" lon="0.97093">
        <ele>174.3</ele>
        <time>2016-11-16T12:53:53.000Z</time>
      </trkpt>
      <trkpt lat="43.69721" lon="0.97106">
        <ele>175</ele>
        <time>2016-11-16T12:54:02.000Z</time>
      </trkpt>
      <trkpt lat="43.69721" lon="0.97119">
        <ele>175.7</ele>
        <time>2016-11-16T12:54:11.000Z</time>
      </trkpt>
      <trkpt lat="43.69722" lon="0.97132">
        <ele>176.2</ele>
        <time>2016-11-16T12:54:19.000Z</time>
      </trkpt>
      <trkpt lat="43.69721" lon="0.97146">
        <ele>176.6</ele>
        <time>2016-11-16T12:54:30.000Z</time>
      </trkpt>
      <trkpt lat="43.69721" lon="0.97159">
        <ele>177</ele>
        <time>2016-11-16T12:54:39.000Z</time>
      </trkpt>
      <trkpt lat="43.69721" lon="0.97171">
        <ele>177.7</ele>
        <time>2016-11-16T12:54:53.000Z</time>
      </trkpt>
      <trkpt lat="43.69716" lon="0.97183">
        <ele>176.1</ele>
        <time>2016-11-16T12:56:05.000Z</time>
      </trkpt>
      <trkpt lat="43.69707" lon="0.9719">
        <ele>175.5</ele>
        <time>2016-11-16T12:56:16.000Z</time>
      </trkpt>
      <trkpt lat="43.697" lon="0.97199">
        <ele>175.4</ele>
        <time>2016-11-16T12:56:24.000Z</time>
      </trkpt>
      <trkpt lat="43.69692" lon="0.97208">
        <ele>175.1</ele>
        <time>2016-11-16T12:56:40.000Z</time>
      </trkpt>
      <trkpt lat="43.69685" lon="0.97216">
        <ele>174.4</ele>
        <time>2016-11-16T12:56:49.000Z</time>
      </trkpt>
      <trkpt lat="43.69677" lon="0.97223">
        <ele>174.6</ele>
        <time>2016-11-16T12:57:01.000Z</time>
      </trkpt>
      <trkpt lat="43.6967" lon="0.97233">
        <ele>174.6</ele>
        <time>2016-11-16T12:57:14.000Z</time>
      </trkpt>
      <trkpt lat="43.69663" lon="0.97242">
        <ele>174.5</ele>
        <time>2016-11-16T12:57:22.000Z</time>
      </trkpt>
      <trkpt lat="43.69655" lon="0.97249">
        <ele>174.4</ele>
        <time>2016-11-16T12:57:29.000Z</time>
      </trkpt>
      <trkpt lat="43.69649" lon="0.9726">
        <ele>174.3</ele>
        <time>2016-11-16T12:57:39.000Z</time>
      </trkpt>
      <trkpt lat="43.6964" lon="0.97264">
        <ele>174.4</ele>
        <time>2016-11-16T12:57:49.000Z</time>
      </trkpt>
      <trkpt lat="43.69632" lon="0.97268">
        <ele>174.5</ele>
        <time>2016-11-16T12:57:56.000Z</time>
      </trkpt>
      <trkpt lat="43.69622" lon="0.97273">
        <ele>174.9</ele>
        <time>2016-11-16T12:58:04.000Z</time>
      </trkpt>
      <trkpt lat="43.69613" lon="0.97275">
        <ele>175</ele>
        <time>2016-11-16T12:58:11.000Z</time>
      </trkpt>
      <trkpt lat="43.69604" lon="0.97278">
        <ele>175.2</ele>
        <time>2016-11-16T12:58:20.000Z</time>
      </trkpt>
      <trkpt lat="43.69594" lon="0.9728">
        <ele>175.9</ele>
        <time>2016-11-16T12:58:30.000Z</time>
      </trkpt>
      <trkpt lat="43.69585" lon="0.9728">
        <ele>176.2</ele>
        <time>2016-11-16T12:58:39.000Z</time>
      </trkpt>
      <trkpt lat="43.69579" lon="0.9727">
        <ele>175.9</ele>
        <time>2016-11-16T12:58:55.000Z</time>
      </trkpt>
      <trkpt lat="43.69577" lon="0.97282">
        <ele>172.7</ele>
        <time>2016-11-16T13:00:07.000Z</time>
      </trkpt>
      <trkpt lat="43.6958" lon="0.9727">
        <ele>168.3</ele>
        <time>2016-11-16T13:03:03.000Z</time>
      </trkpt>
      <trkpt lat="43.69581" lon="0.97283">
        <ele>162.8</ele>
        <time>2016-11-16T13:06:12.000Z</time>
      </trkpt>
      <trkpt lat="43.69575" lon="0.97273">
        <ele>161.9</ele>
        <time>2016-11-16T13:06:55.000Z</time>
      </trkpt>
      <trkpt lat="43.69576" lon="0.9726">
        <ele>161.3</ele>
        <time>2016-11-16T13:07:31.000Z</time>
      </trkpt>
      <trkpt lat="43.69573" lon="0.97273">
        <ele>161.3</ele>
        <time>2016-11-16T13:08:02.000Z</time>
      </trkpt>
      <trkpt lat="43.69574" lon="0.97261">
        <ele>158.9</ele>
        <time>2016-11-16T13:09:10.000Z</time>
      </trkpt>
      <trkpt lat="43.69566" lon="0.9727">
        <ele>157.5</ele>
        <time>2016-11-16T13:09:57.000Z</time>
      </trkpt>
      <trkpt lat="43.69572" lon="0.97261">
        <ele>153.7</ele>
        <time>2016-11-16T13:11:07.000Z</time>
      </trkpt>
      <trkpt lat="43.6958" lon="0.97268">
        <ele>152.6</ele>
        <time>2016-11-16T13:11:35.000Z</time>
      </trkpt>
      <trkpt lat="43.69573" lon="0.97276">
        <ele>150.9</ele>
        <time>2016-11-16T13:13:43.000Z</time>
      </trkpt>
      <trkpt lat="43.69563" lon="0.97273">
        <ele>150.2</ele>
        <time>2016-11-16T13:14:31.000Z</time>
      </trkpt>
      <trkpt lat="43.69555" lon="0.97271">
        <ele>150.6</ele>
        <time>2016-11-16T13:14:39.000Z</time>
      </trkpt>
      <trkpt lat="43.69546" lon="0.9727">
        <ele>150.6</ele>
        <time>2016-11-16T13:14:47.000Z</time>
      </trkpt>
      <trkpt lat="43.69537" lon="0.97274">
        <ele>150.6</ele>
        <time>2016-11-16T13:14:55.000Z</time>
      </trkpt>
      <trkpt lat="43.69529" lon="0.97283">
        <ele>150.7</ele>
        <time>2016-11-16T13:15:05.000Z</time>
      </trkpt>
      <trkpt lat="43.69521" lon="0.97292">
        <ele>150.9</ele>
        <time>2016-11-16T13:15:14.000Z</time>
      </trkpt>
      <trkpt lat="43.69513" lon="0.97298">
        <ele>151</ele>
        <time>2016-11-16T13:15:23.000Z</time>
      </trkpt>
      <trkpt lat="43.69503" lon="0.97301">
        <ele>151</ele>
        <time>2016-11-16T13:15:31.000Z</time>
      </trkpt>
      <trkpt lat="43.69494" lon="0.97307">
        <ele>151</ele>
        <time>2016-11-16T13:15:40.000Z</time>
      </trkpt>
      <trkpt lat="43.69486" lon="0.97314">
        <ele>151</ele>
        <time>2016-11-16T13:15:49.000Z</time>
      </trkpt>
      <trkpt lat="43.69477" lon="0.97321">
        <ele>151.1</ele>
        <time>2016-11-16T13:15:57.000Z</time>
      </trkpt>
      <trkpt lat="43.69469" lon="0.97328">
        <ele>151.2</ele>
        <time>2016-11-16T13:16:05.000Z</time>
      </trkpt>
      <trkpt lat="43.69461" lon="0.97336">
        <ele>151.2</ele>
        <time>2016-11-16T13:16:13.000Z</time>
      </trkpt>
      <trkpt lat="43.69453" lon="0.97342">
        <ele>151.2</ele>
        <time>2016-11-16T13:16:19.000Z</time>
      </trkpt>
      <trkpt lat="43.69446" lon="0.97349">
        <ele>151.4</ele>
        <time>2016-11-16T13:16:26.000Z</time>
      </trkpt>
      <trkpt lat="43.69439" lon="0.97357">
        <ele>151.6</ele>
        <time>2016-11-16T13:16:33.000Z</time>
      </trkpt>
      <trkpt lat="43.69434" lon="0.97369">
        <ele>151.7</ele>
        <time>2016-11-16T13:16:41.000Z</time>
      </trkpt>
      <trkpt lat="43.69428" lon="0.97378">
        <ele>151.8</ele>
        <time>2016-11-16T13:16:49.000Z</time>
      </trkpt>
      <trkpt lat="43.6942" lon="0.97386">
        <ele>152.1</ele>
        <time>2016-11-16T13:17:00.000Z</time>
      </trkpt>
      <trkpt lat="43.69412" lon="0.97394">
        <ele>152.4</ele>
        <time>2016-11-16T13:17:10.000Z</time>
      </trkpt>
      <trkpt lat="43.69405" lon="0.97403">
        <ele>152.8</ele>
        <time>2016-11-16T13:17:18.000Z</time>
      </trkpt>
      <trkpt lat="43.69398" lon="0.97411">
        <ele>153.1</ele>
        <time>2016-11-16T13:17:25.000Z</time>
      </trkpt>
      <trkpt lat="43.6939" lon="0.97418">
        <ele>153.4</ele>
        <time>2016-11-16T13:17:33.000Z</time>
      </trkpt>
      <trkpt lat="43.69382" lon="0.97426">
        <ele>153.7</ele>
        <time>2016-11-16T13:17:43.000Z</time>
      </trkpt>
      <trkpt lat="43.69374" lon="0.97434">
        <ele>153.9</ele>
        <time>2016-11-16T13:17:53.000Z</time>
      </trkpt>
      <trkpt lat="43.69364" lon="0.97437">
        <ele>154</ele>
        <time>2016-11-16T13:18:00.000Z</time>
      </trkpt>
      <trkpt lat="43.69354" lon="0.97441">
        <ele>154.3</ele>
        <time>2016-11-16T13:18:08.000Z</time>
      </trkpt>
      <trkpt lat="43.69345" lon="0.97442">
        <ele>154.9</ele>
        <time>2016-11-16T13:18:16.000Z</time>
      </trkpt>
      <trkpt lat="43.69336" lon="0.97443">
        <ele>155.1</ele>
        <time>2016-11-16T13:18:24.000Z</time>
      </trkpt>
      <trkpt lat="43.69326" lon="0.97444">
        <ele>154.8</ele>
        <time>2016-11-16T13:18:31.000Z</time>
      </trkpt>
      <trkpt lat="43.69316" lon="0.97446">
        <ele>154.9</ele>
        <time>2016-11-16T13:18:40.000Z</time>
      </trkpt>
      <trkpt lat="43.69307" lon="0.97449">
        <ele>155</ele>
        <time>2016-11-16T13:18:49.000Z</time>
      </trkpt>
      <trkpt lat="43.69298" lon="0.97455">
        <ele>155.1</ele>
        <time>2016-11-16T13:18:57.000Z</time>
      </trkpt>
      <trkpt lat="43.6929" lon="0.97462">
        <ele>155.2</ele>
        <time>2016-11-16T13:19:07.000Z</time>
      </trkpt>
      <trkpt lat="43.69282" lon="0.97469">
        <ele>155.3</ele>
        <time>2016-11-16T13:19:18.000Z</time>
      </trkpt>
      <trkpt lat="43.69274" lon="0.97476">
        <ele>155.4</ele>
        <time>2016-11-16T13:19:26.000Z</time>
      </trkpt>
      <trkpt lat="43.69265" lon="0.97483">
        <ele>155.9</ele>
        <time>2016-11-16T13:19:36.000Z</time>
      </trkpt>
      <trkpt lat="43.69257" lon="0.97491">
        <ele>156.1</ele>
        <time>2016-11-16T13:19:43.000Z</time>
      </trkpt>
      <trkpt lat="43.6925" lon="0.97499">
        <ele>156.9</ele>
        <time>2016-11-16T13:19:51.000Z</time>
      </trkpt>
      <trkpt lat="43.69242" lon="0.97506">
        <ele>157.3</ele>
        <time>2016-11-16T13:19:59.000Z</time>
      </trkpt>
      <trkpt lat="43.6924" lon="0.97493">
        <ele>157.7</ele>
        <time>2016-11-16T13:20:13.000Z</time>
      </trkpt>
      <trkpt lat="43.69241" lon="0.9748">
        <ele>157.5</ele>
        <time>2016-11-16T13:20:24.000Z</time>
      </trkpt>
      <trkpt lat="43.69246" lon="0.97469">
        <ele>156.5</ele>
        <time>2016-11-16T13:20:36.000Z</time>
      </trkpt>
      <trkpt lat="43.69252" lon="0.97458">
        <ele>155.2</ele>
        <time>2016-11-16T13:20:48.000Z</time>
      </trkpt>
      <trkpt lat="43.69258" lon="0.97449">
        <ele>154.4</ele>
        <time>2016-11-16T13:20:58.000Z</time>
      </trkpt>
      <trkpt lat="43.69267" lon="0.97443">
        <ele>153.1</ele>
        <time>2016-11-16T13:21:07.000Z</time>
      </trkpt>
      <trkpt lat="43.69274" lon="0.97432">
        <ele>151.9</ele>
        <time>2016-11-16T13:21:19.000Z</time>
      </trkpt>
      <trkpt lat="43.69281" lon="0.97422">
        <ele>150.8</ele>
        <time>2016-11-16T13:21:27.000Z</time>
      </trkpt>
      <trkpt lat="43.69289" lon="0.97416">
        <ele>149.3</ele>
        <time>2016-11-16T13:21:37.000Z</time>
      </trkpt>
      <trkpt lat="43.69293" lon="0.97403">
        <ele>148.3</ele>
        <time>2016-11-16T13:21:45.000Z</time>
      </trkpt>
      <trkpt lat="43.69297" lon="0.97391">
        <ele>147.5</ele>
        <time>2016-11-16T13:21:52.000Z</time>
      </trkpt>
      <trkpt lat="43.69299" lon="0.97378">
        <ele>146.8</ele>
        <time>2016-11-16T13:22:03.000Z</time>
      </trkpt>
      <trkpt lat="43.69301" lon="0.97366">
        <ele>145.2</ele>
        <time>2016-11-16T13:22:14.000Z</time>
      </trkpt>
      <trkpt lat="43.693" lon="0.97353">
        <ele>144.4</ele>
        <time>2016-11-16T13:22:24.000Z</time>
      </trkpt>
      <trkpt lat="43.69299" lon="0.9734">
        <ele>144.1</ele>
        <time>2016-11-16T13:22:30.000Z</time>
      </trkpt>
      <trkpt lat="43.69291" lon="0.97333">
        <ele>143.8</ele>
        <time>2016-11-16T13:22:35.000Z</time>
      </trkpt>
      <trkpt lat="43.6929" lon="0.97319">
        <ele>143</ele>
        <time>2016-11-16T13:22:43.000Z</time>
      </trkpt>
      <trkpt lat="43.69286" lon="0.97307">
        <ele>142.3</ele>
        <time>2016-11-16T13:22:50.000Z</time>
      </trkpt>
      <trkpt lat="43.69287" lon="0.97295">
        <ele>140.9</ele>
        <time>2016-11-16T13:22:59.000Z</time>
      </trkpt>
      <trkpt lat="43.69281" lon="0.97286">
        <ele>140.2</ele>
        <time>2016-11-16T13:23:04.000Z</time>
      </trkpt>
      <trkpt lat="43.69272" lon="0.97279">
        <ele>139.9</ele>
        <time>2016-11-16T13:23:11.000Z</time>
      </trkpt>
      <trkpt lat="43.69262" lon="0.97272">
        <ele>139.1</ele>
        <time>2016-11-16T13:23:16.000Z</time>
      </trkpt>
      <trkpt lat="43.69254" lon="0.97266">
        <ele>138.4</ele>
        <time>2016-11-16T13:23:20.000Z</time>
      </trkpt>
      <trkpt lat="43.69264" lon="0.97268">
        <ele>137.3</ele>
        <time>2016-11-16T13:23:25.000Z</time>
      </trkpt>
      <trkpt lat="43.69272" lon="0.97258">
        <ele>135.8</ele>
        <time>2016-11-16T13:23:33.000Z</time>
      </trkpt>
      <trkpt lat="43.69268" lon="0.97247">
        <ele>134.2</ele>
        <time>2016-11-16T13:23:53.000Z</time>
      </trkpt>
      <trkpt lat="43.69262" lon="0.97237">
        <ele>134</ele>
        <time>2016-11-16T13:24:04.000Z</time>
      </trkpt>
      <trkpt lat="43.69256" lon="0.97227">
        <ele>134.1</ele>
        <time>2016-11-16T13:24:15.000Z</time>
      </trkpt>
      <trkpt lat="43.6925" lon="0.97217">
        <ele>134</ele>
        <time>2016-11-16T13:24:24.000Z</time>
      </trkpt>
      <trkpt lat="43.69244" lon="0.97206">
        <ele>134.4</ele>
        <time>2016-11-16T13:24:31.000Z</time>
      </trkpt>
      <trkpt lat="43.69239" lon="0.97193">
        <ele>134.7</ele>
        <time>2016-11-16T13:24:38.000Z</time>
      </trkpt>
      <trkpt lat="43.6923" lon="0.97193">
        <ele>134.7</ele>
        <time>2016-11-16T13:24:42.000Z</time>
      </trkpt>
      <trkpt lat="43.69223" lon="0.97203">
        <ele>134.7</ele>
        <time>2016-11-16T13:24:47.000Z</time>
      </trkpt>
      <trkpt lat="43.69214" lon="0.97208">
        <ele>134.6</ele>
        <time>2016-11-16T13:24:53.000Z</time>
      </trkpt>
      <trkpt lat="43.69211" lon="0.9722">
        <ele>134</ele>
        <time>2016-11-16T13:25:03.000Z</time>
      </trkpt>
      <trkpt lat="43.69208" lon="0.97233">
        <ele>134.6</ele>
        <time>2016-11-16T13:25:13.000Z</time>
      </trkpt>
      <trkpt lat="43.69203" lon="0.97244">
        <ele>135</ele>
        <time>2016-11-16T13:25:23.000Z</time>
      </trkpt>
      <trkpt lat="43.69196" lon="0.97252">
        <ele>135.3</ele>
        <time>2016-11-16T13:25:32.000Z</time>
      </trkpt>
      <trkpt lat="43.69188" lon="0.9726">
        <ele>135.8</ele>
        <time>2016-11-16T13:25:43.000Z</time>
      </trkpt>
      <trkpt lat="43.69179" lon="0.97264">
        <ele>136.2</ele>
        <time>2016-11-16T13:25:51.000Z</time>
      </trkpt>
      <trkpt lat="43.69169" lon="0.97262">
        <ele>136.2</ele>
        <time>2016-11-16T13:25:59.000Z</time>
      </trkpt>
      <trkpt lat="43.69158" lon="0.97262">
        <ele>136.6</ele>
        <time>2016-11-16T13:26:06.000Z</time>
      </trkpt>
      <trkpt lat="43.69149" lon="0.97262">
        <ele>136.9</ele>
        <time>2016-11-16T13:26:12.000Z</time>
      </trkpt>
      <trkpt lat="43.69139" lon="0.97263">
        <ele>137.3</ele>
        <time>2016-11-16T13:26:22.000Z</time>
      </trkpt>
      <trkpt lat="43.6913" lon="0.97263">
        <ele>137.5</ele>
        <time>2016-11-16T13:26:28.000Z</time>
      </trkpt>
      <trkpt lat="43.69121" lon="0.97262">
        <ele>137.9</ele>
        <time>2016-11-16T13:26:35.000Z</time>
      </trkpt>
      <trkpt lat="43.69112" lon="0.9726">
        <ele>138.1</ele>
        <time>2016-11-16T13:26:43.000Z</time>
      </trkpt>
      <trkpt lat="43.69103" lon="0.97258">
        <ele>138.8</ele>
        <time>2016-11-16T13:26:53.000Z</time>
      </trkpt>
      <trkpt lat="43.69093" lon="0.97255">
        <ele>139</ele>
        <time>2016-11-16T13:27:01.000Z</time>
      </trkpt>
      <trkpt lat="43.69084" lon="0.97255">
        <ele>139.3</ele>
        <time>2016-11-16T13:27:11.000Z</time>
      </trkpt>
      <trkpt lat="43.69075" lon="0.97253">
        <ele>139.7</ele>
        <time>2016-11-16T13:27:22.000Z</time>
      </trkpt>
      <trkpt lat="43.69066" lon="0.97248">
        <ele>140</ele>
        <time>2016-11-16T13:27:32.000Z</time>
      </trkpt>
      <trkpt lat="43.69057" lon="0.97246">
        <ele>140.2</ele>
        <time>2016-11-16T13:27:39.000Z</time>
      </trkpt>
      <trkpt lat="43.69048" lon="0.97242">
        <ele>140.4</ele>
        <time>2016-11-16T13:27:46.000Z</time>
      </trkpt>
      <trkpt lat="43.69039" lon="0.9724">
        <ele>140.7</ele>
        <time>2016-11-16T13:27:54.000Z</time>
      </trkpt>
      <trkpt lat="43.6903" lon="0.97234">
        <ele>140.9</ele>
        <time>2016-11-16T13:28:02.000Z</time>
      </trkpt>
      <trkpt lat="43.6902" lon="0.97233">
        <ele>141.2</ele>
        <time>2016-11-16T13:28:09.000Z</time>
      </trkpt>
      <trkpt lat="43.69011" lon="0.9723">
        <ele>141.4</ele>
        <time>2016-11-16T13:28:17.000Z</time>
      </trkpt>
      <trkpt lat="43.69002" lon="0.97227">
        <ele>141.8</ele>
        <time>2016-11-16T13:28:26.000Z</time>
      </trkpt>
      <trkpt lat="43.68992" lon="0.97225">
        <ele>142.2</ele>
        <time>2016-11-16T13:28:34.000Z</time>
      </trkpt>
      <trkpt lat="43.68983" lon="0.97219">
        <ele>142.6</ele>
        <time>2016-11-16T13:28:43.000Z</time>
      </trkpt>
      <trkpt lat="43.68974" lon="0.97215">
        <ele>143</ele>
        <time>2016-11-16T13:28:51.000Z</time>
      </trkpt>
      <trkpt lat="43.68965" lon="0.97209">
        <ele>143.2</ele>
        <time>2016-11-16T13:28:58.000Z</time>
      </trkpt>
      <trkpt lat="43.68956" lon="0.97204">
        <ele>143.4</ele>
        <time>2016-11-16T13:29:05.000Z</time>
      </trkpt>
      <trkpt lat="43.68948" lon="0.972">
        <ele>143.8</ele>
        <time>2016-11-16T13:29:13.000Z</time>
      </trkpt>
      <trkpt lat="43.68939" lon="0.97193">
        <ele>144.7</ele>
        <time>2016-11-16T13:29:23.000Z</time>
      </trkpt>
      <trkpt lat="43.68932" lon="0.97183">
        <ele>145.8</ele>
        <time>2016-11-16T13:29:32.000Z</time>
      </trkpt>
      <trkpt lat="43.68925" lon="0.97176">
        <ele>146.7</ele>
        <time>2016-11-16T13:29:39.000Z</time>
      </trkpt>
      <trkpt lat="43.68916" lon="0.97171">
        <ele>147.4</ele>
        <time>2016-11-16T13:29:47.000Z</time>
      </trkpt>
      <trkpt lat="43.68907" lon="0.97164">
        <ele>148.1</ele>
        <time>2016-11-16T13:29:58.000Z</time>
      </trkpt>
      <trkpt lat="43.68898" lon="0.97158">
        <ele>148.5</ele>
        <time>2016-11-16T13:30:07.000Z</time>
      </trkpt>
      <trkpt lat="43.68888" lon="0.97156">
        <ele>149.3</ele>
        <time>2016-11-16T13:30:15.000Z</time>
      </trkpt>
      <trkpt lat="43.68885" lon="0.97144">
        <ele>150.4</ele>
        <time>2016-11-16T13:30:25.000Z</time>
      </trkpt>
      <trkpt lat="43.68876" lon="0.97139">
        <ele>151.5</ele>
        <time>2016-11-16T13:30:35.000Z</time>
      </trkpt>
      <trkpt lat="43.68867" lon="0.97138">
        <ele>152.2</ele>
        <time>2016-11-16T13:30:42.000Z</time>
      </trkpt>
      <trkpt lat="43.68858" lon="0.97135">
        <ele>152.8</ele>
        <time>2016-11-16T13:30:48.000Z</time>
      </trkpt>
      <trkpt lat="43.68849" lon="0.9713">
        <ele>153.5</ele>
        <time>2016-11-16T13:30:54.000Z</time>
      </trkpt>
      <trkpt lat="43.68841" lon="0.97123">
        <ele>154.7</ele>
        <time>2016-11-16T13:31:06.000Z</time>
      </trkpt>
      <trkpt lat="43.68832" lon="0.9712">
        <ele>155.3</ele>
        <time>2016-11-16T13:31:13.000Z</time>
      </trkpt>
      <trkpt lat="43.68823" lon="0.97116">
        <ele>155.8</ele>
        <time>2016-11-16T13:31:21.000Z</time>
      </trkpt>
      <trkpt lat="43.68815" lon="0.9711">
        <ele>156.2</ele>
        <time>2016-11-16T13:31:29.000Z</time>
      </trkpt>
      <trkpt lat="43.68806" lon="0.97107">
        <ele>156.5</ele>
        <time>2016-11-16T13:31:37.000Z</time>
      </trkpt>
      <trkpt lat="43.68796" lon="0.97104">
        <ele>157</ele>
        <time>2016-11-16T13:31:45.000Z</time>
      </trkpt>
      <trkpt lat="43.68787" lon="0.971">
        <ele>157.4</ele>
        <time>2016-11-16T13:31:53.000Z</time>
      </trkpt>
      <trkpt lat="43.68779" lon="0.97095">
        <ele>157.7</ele>
        <time>2016-11-16T13:32:01.000Z</time>
      </trkpt>
      <trkpt lat="43.68772" lon="0.97085">
        <ele>158</ele>
        <time>2016-11-16T13:32:09.000Z</time>
      </trkpt>
      <trkpt lat="43.68767" lon="0.97074">
        <ele>158.4</ele>
        <time>2016-11-16T13:32:17.000Z</time>
      </trkpt>
      <trkpt lat="43.68763" lon="0.97062">
        <ele>158.8</ele>
        <time>2016-11-16T13:32:27.000Z</time>
      </trkpt>
      <trkpt lat="43.68759" lon="0.9705">
        <ele>159.7</ele>
        <time>2016-11-16T13:32:34.000Z</time>
      </trkpt>
      <trkpt lat="43.68755" lon="0.97038">
        <ele>160.4</ele>
        <time>2016-11-16T13:32:42.000Z</time>
      </trkpt>
      <trkpt lat="43.68748" lon="0.9703">
        <ele>160.9</ele>
        <time>2016-11-16T13:32:50.000Z</time>
      </trkpt>
      <trkpt lat="43.6874" lon="0.97023">
        <ele>160.5</ele>
        <time>2016-11-16T13:32:59.000Z</time>
      </trkpt>
      <trkpt lat="43.68731" lon="0.97024">
        <ele>160.1</ele>
        <time>2016-11-16T13:33:07.000Z</time>
      </trkpt>
      <trkpt lat="43.68722" lon="0.97019">
        <ele>159.7</ele>
        <time>2016-11-16T13:33:15.000Z</time>
      </trkpt>
      <trkpt lat="43.68712" lon="0.97016">
        <ele>159.3</ele>
        <time>2016-11-16T13:33:23.000Z</time>
      </trkpt>
      <trkpt lat="43.68703" lon="0.97013">
        <ele>159.2</ele>
        <time>2016-11-16T13:33:34.000Z</time>
      </trkpt>
      <trkpt lat="43.68692" lon="0.97008">
        <ele>158.6</ele>
        <time>2016-11-16T13:33:42.000Z</time>
      </trkpt>
      <trkpt lat="43.68684" lon="0.97004">
        <ele>158.6</ele>
        <time>2016-11-16T13:33:49.000Z</time>
      </trkpt>
      <trkpt lat="43.68674" lon="0.96999">
        <ele>158.7</ele>
        <time>2016-11-16T13:33:57.000Z</time>
      </trkpt>
      <trkpt lat="43.68666" lon="0.96995">
        <ele>158.9</ele>
        <time>2016-11-16T13:34:04.000Z</time>
      </trkpt>
      <trkpt lat="43.68658" lon="0.96989">
        <ele>159.2</ele>
        <time>2016-11-16T13:34:13.000Z</time>
      </trkpt>
      <trkpt lat="43.68649" lon="0.96983">
        <ele>159.5</ele>
        <time>2016-11-16T13:34:19.000Z</time>
      </trkpt>
      <trkpt lat="43.6864" lon="0.96978">
        <ele>160</ele>
        <time>2016-11-16T13:34:27.000Z</time>
      </trkpt>
      <trkpt lat="43.68631" lon="0.96971">
        <ele>160.4</ele>
        <time>2016-11-16T13:34:34.000Z</time>
      </trkpt>
      <trkpt lat="43.68621" lon="0.96969">
        <ele>160.9</ele>
        <time>2016-11-16T13:34:40.000Z</time>
      </trkpt>
      <trkpt lat="43.68613" lon="0.96961">
        <ele>161.1</ele>
        <time>2016-11-16T13:34:47.000Z</time>
      </trkpt>
      <trkpt lat="43.68604" lon="0.9696">
        <ele>161.9</ele>
        <time>2016-11-16T13:34:54.000Z</time>
      </trkpt>
      <trkpt lat="43.68597" lon="0.96951">
        <ele>163.8</ele>
        <time>2016-11-16T13:35:03.000Z</time>
      </trkpt>
      <trkpt lat="43.68589" lon="0.96944">
        <ele>165.1</ele>
        <time>2016-11-16T13:35:14.000Z</time>
      </trkpt>
      <trkpt lat="43.68581" lon="0.96936">
        <ele>166</ele>
        <time>2016-11-16T13:35:22.000Z</time>
      </trkpt>
      <trkpt lat="43.68573" lon="0.96929">
        <ele>167.2</ele>
        <time>2016-11-16T13:35:32.000Z</time>
      </trkpt>
      <trkpt lat="43.68564" lon="0.96922">
        <ele>168.4</ele>
        <time>2016-11-16T13:35:41.000Z</time>
      </trkpt>
      <trkpt lat="43.68554" lon="0.96916">
        <ele>169.2</ele>
        <time>2016-11-16T13:35:48.000Z</time>
      </trkpt>
      <trkpt lat="43.68546" lon="0.96907">
        <ele>170</ele>
        <time>2016-11-16T13:35:56.000Z</time>
      </trkpt>
      <trkpt lat="43.68538" lon="0.96901">
        <ele>171.1</ele>
        <time>2016-11-16T13:36:08.000Z</time>
      </trkpt>
      <trkpt lat="43.6853" lon="0.96891">
        <ele>171.1</ele>
        <time>2016-11-16T13:36:18.000Z</time>
      </trkpt>
      <trkpt lat="43.68526" lon="0.96879">
        <ele>171.6</ele>
        <time>2016-11-16T13:36:26.000Z</time>
      </trkpt>
      <trkpt lat="43.68519" lon="0.96869">
        <ele>172.4</ele>
        <time>2016-11-16T13:36:35.000Z</time>
      </trkpt>
      <trkpt lat="43.68512" lon="0.96861">
        <ele>173.1</ele>
        <time>2016-11-16T13:36:43.000Z</time>
      </trkpt>
      <trkpt lat="43.68505" lon="0.96853">
        <ele>173.7</ele>
        <time>2016-11-16T13:36:50.000Z</time>
      </trkpt>
      <trkpt lat="43.68498" lon="0.96844">
        <ele>174.3</ele>
        <time>2016-11-16T13:36:57.000Z</time>
      </trkpt>
      <trkpt lat="43.68497" lon="0.9683">
        <ele>174.8</ele>
        <time>2016-11-16T13:37:06.000Z</time>
      </trkpt>
      <trkpt lat="43.68495" lon="0.96817">
        <ele>175.3</ele>
        <time>2016-11-16T13:37:16.000Z</time>
      </trkpt>
      <trkpt lat="43.68491" lon="0.96804">
        <ele>175.9</ele>
        <time>2016-11-16T13:37:26.000Z</time>
      </trkpt>
      <trkpt lat="43.68486" lon="0.96793">
        <ele>175.9</ele>
        <time>2016-11-16T13:37:35.000Z</time>
      </trkpt>
      <trkpt lat="43.68486" lon="0.9678">
        <ele>177.4</ele>
        <time>2016-11-16T13:37:47.000Z</time>
      </trkpt>
      <trkpt lat="43.68494" lon="0.96772">
        <ele>178.1</ele>
        <time>2016-11-16T13:37:54.000Z</time>
      </trkpt>
      <trkpt lat="43.68491" lon="0.9676">
        <ele>178.7</ele>
        <time>2016-11-16T13:38:02.000Z</time>
      </trkpt>
      <trkpt lat="43.68486" lon="0.96748">
        <ele>179</ele>
        <time>2016-11-16T13:38:07.000Z</time>
      </trkpt>
      <trkpt lat="43.68477" lon="0.96741">
        <ele>179.3</ele>
        <time>2016-11-16T13:38:14.000Z</time>
      </trkpt>
      <trkpt lat="43.68469" lon="0.96733">
        <ele>179.3</ele>
        <time>2016-11-16T13:38:21.000Z</time>
      </trkpt>
      <trkpt lat="43.68461" lon="0.96726">
        <ele>177.7</ele>
        <time>2016-11-16T13:38:26.000Z</time>
      </trkpt>
      <trkpt lat="43.68455" lon="0.96712">
        <ele>190.8</ele>
        <time>2016-11-16T13:44:09.000Z</time>
      </trkpt>
      <trkpt lat="43.68446" lon="0.96714">
        <ele>191.3</ele>
        <time>2016-11-16T13:44:21.000Z</time>
      </trkpt>
      <trkpt lat="43.68438" lon="0.96719">
        <ele>191.8</ele>
        <time>2016-11-16T13:44:29.000Z</time>
      </trkpt>
      <trkpt lat="43.68429" lon="0.96723">
        <ele>192.4</ele>
        <time>2016-11-16T13:44:38.000Z</time>
      </trkpt>
      <trkpt lat="43.6842" lon="0.96729">
        <ele>192.3</ele>
        <time>2016-11-16T13:44:49.000Z</time>
      </trkpt>
      <trkpt lat="43.68412" lon="0.96738">
        <ele>192.2</ele>
        <time>2016-11-16T13:44:57.000Z</time>
      </trkpt>
      <trkpt lat="43.68402" lon="0.96744">
        <ele>191.9</ele>
        <time>2016-11-16T13:45:06.000Z</time>
      </trkpt>
      <trkpt lat="43.68393" lon="0.9675">
        <ele>191.5</ele>
        <time>2016-11-16T13:45:14.000Z</time>
      </trkpt>
      <trkpt lat="43.68385" lon="0.96758">
        <ele>190.8</ele>
        <time>2016-11-16T13:45:23.000Z</time>
      </trkpt>
      <trkpt lat="43.68377" lon="0.96764">
        <ele>190.2</ele>
        <time>2016-11-16T13:45:32.000Z</time>
      </trkpt>
      <trkpt lat="43.6837" lon="0.96773">
        <ele>189.5</ele>
        <time>2016-11-16T13:45:42.000Z</time>
      </trkpt>
      <trkpt lat="43.68362" lon="0.96779">
        <ele>188.9</ele>
        <time>2016-11-16T13:45:50.000Z</time>
      </trkpt>
      <trkpt lat="43.68355" lon="0.96788">
        <ele>187.1</ele>
        <time>2016-11-16T13:45:59.000Z</time>
      </trkpt>
      <trkpt lat="43.68347" lon="0.96795">
        <ele>186.4</ele>
        <time>2016-11-16T13:46:06.000Z</time>
      </trkpt>
      <trkpt lat="43.68338" lon="0.96799">
        <ele>185.8</ele>
        <time>2016-11-16T13:46:15.000Z</time>
      </trkpt>
      <trkpt lat="43.68329" lon="0.96793">
        <ele>184.8</ele>
        <time>2016-11-16T13:46:25.000Z</time>
      </trkpt>
      <trkpt lat="43.68325" lon="0.96778">
        <ele>185.5</ele>
        <time>2016-11-16T13:46:35.000Z</time>
      </trkpt>
      <trkpt lat="43.68321" lon="0.96766">
        <ele>186.3</ele>
        <time>2016-11-16T13:46:42.000Z</time>
      </trkpt>
      <trkpt lat="43.68314" lon="0.96758">
        <ele>186.9</ele>
        <time>2016-11-16T13:46:53.000Z</time>
      </trkpt>
      <trkpt lat="43.68304" lon="0.96755">
        <ele>187.6</ele>
        <time>2016-11-16T13:47:04.000Z</time>
      </trkpt>
      <trkpt lat="43.68295" lon="0.96752">
        <ele>188.5</ele>
        <time>2016-11-16T13:47:13.000Z</time>
      </trkpt>
      <trkpt lat="43.68286" lon="0.96751">
        <ele>189.6</ele>
        <time>2016-11-16T13:47:24.000Z</time>
      </trkpt>
      <trkpt lat="43.68277" lon="0.96749">
        <ele>191</ele>
        <time>2016-11-16T13:47:35.000Z</time>
      </trkpt>
      <trkpt lat="43.68267" lon="0.96745">
        <ele>192</ele>
        <time>2016-11-16T13:47:44.000Z</time>
      </trkpt>
      <trkpt lat="43.68257" lon="0.96742">
        <ele>192.5</ele>
        <time>2016-11-16T13:47:50.000Z</time>
      </trkpt>
      <trkpt lat="43.68247" lon="0.96741">
        <ele>193.5</ele>
        <time>2016-11-16T13:48:02.000Z</time>
      </trkpt>
      <trkpt lat="43.68238" lon="0.96738">
        <ele>194.5</ele>
        <time>2016-11-16T13:48:12.000Z</time>
      </trkpt>
      <trkpt lat="43.6823" lon="0.96732">
        <ele>195.7</ele>
        <time>2016-11-16T13:48:24.000Z</time>
      </trkpt>
      <trkpt lat="43.68223" lon="0.96724">
        <ele>197.2</ele>
        <time>2016-11-16T13:48:32.000Z</time>
      </trkpt>
      <trkpt lat="43.68213" lon="0.96722">
        <ele>198.1</ele>
        <time>2016-11-16T13:48:39.000Z</time>
      </trkpt>
      <trkpt lat="43.68206" lon="0.96715">
        <ele>199.1</ele>
        <time>2016-11-16T13:48:49.000Z</time>
      </trkpt>
      <trkpt lat="43.68204" lon="0.96702">
        <ele>199.4</ele>
        <time>2016-11-16T13:48:57.000Z</time>
      </trkpt>
      <trkpt lat="43.68205" lon="0.96689">
        <ele>200.1</ele>
        <time>2016-11-16T13:49:05.000Z</time>
      </trkpt>
      <trkpt lat="43.68206" lon="0.96676">
        <ele>201.5</ele>
        <time>2016-11-16T13:49:19.000Z</time>
      </trkpt>
      <trkpt lat="43.68209" lon="0.96663">
        <ele>202.3</ele>
        <time>2016-11-16T13:49:28.000Z</time>
      </trkpt>
      <trkpt lat="43.68204" lon="0.96651">
        <ele>202.7</ele>
        <time>2016-11-16T13:49:34.000Z</time>
      </trkpt>
      <trkpt lat="43.68197" lon="0.96642">
        <ele>202.9</ele>
        <time>2016-11-16T13:49:46.000Z</time>
      </trkpt>
      <trkpt lat="43.68187" lon="0.96636">
        <ele>203.2</ele>
        <time>2016-11-16T13:49:54.000Z</time>
      </trkpt>
      <trkpt lat="43.68181" lon="0.96626">
        <ele>204.2</ele>
        <time>2016-11-16T13:50:07.000Z</time>
      </trkpt>
      <trkpt lat="43.68172" lon="0.96622">
        <ele>204.7</ele>
        <time>2016-11-16T13:50:17.000Z</time>
      </trkpt>
      <trkpt lat="43.68162" lon="0.9662">
        <ele>205</ele>
        <time>2016-11-16T13:50:22.000Z</time>
      </trkpt>
      <trkpt lat="43.68151" lon="0.96618">
        <ele>205.4</ele>
        <time>2016-11-16T13:50:28.000Z</time>
      </trkpt>
      <trkpt lat="43.68142" lon="0.96617">
        <ele>205.9</ele>
        <time>2016-11-16T13:50:33.000Z</time>
      </trkpt>
      <trkpt lat="43.68133" lon="0.96617">
        <ele>206.4</ele>
        <time>2016-11-16T13:50:38.000Z</time>
      </trkpt>
      <trkpt lat="43.68124" lon="0.96619">
        <ele>206.6</ele>
        <time>2016-11-16T13:50:44.000Z</time>
      </trkpt>
      <trkpt lat="43.68114" lon="0.96617">
        <ele>206.7</ele>
        <time>2016-11-16T13:50:53.000Z</time>
      </trkpt>
      <trkpt lat="43.68105" lon="0.96616">
        <ele>207.5</ele>
        <time>2016-11-16T13:51:05.000Z</time>
      </trkpt>
      <trkpt lat="43.68096" lon="0.96615">
        <ele>208.4</ele>
        <time>2016-11-16T13:51:16.000Z</time>
      </trkpt>
      <trkpt lat="43.68086" lon="0.96614">
        <ele>209.3</ele>
        <time>2016-11-16T13:51:26.000Z</time>
      </trkpt>
      <trkpt lat="43.68076" lon="0.96612">
        <ele>209.7</ele>
        <time>2016-11-16T13:51:34.000Z</time>
      </trkpt>
      <trkpt lat="43.68067" lon="0.96612">
        <ele>210</ele>
        <time>2016-11-16T13:51:42.000Z</time>
      </trkpt>
      <trkpt lat="43.68058" lon="0.96611">
        <ele>211.1</ele>
        <time>2016-11-16T13:51:52.000Z</time>
      </trkpt>
      <trkpt lat="43.68048" lon="0.9661">
        <ele>212.8</ele>
        <time>2016-11-16T13:52:03.000Z</time>
      </trkpt>
      <trkpt lat="43.68039" lon="0.96612">
        <ele>214.1</ele>
        <time>2016-11-16T13:52:13.000Z</time>
      </trkpt>
      <trkpt lat="43.6803" lon="0.96613">
        <ele>214.7</ele>
        <time>2016-11-16T13:52:21.000Z</time>
      </trkpt>
      <trkpt lat="43.68021" lon="0.96618">
        <ele>215.5</ele>
        <time>2016-11-16T13:52:31.000Z</time>
      </trkpt>
      <trkpt lat="43.68013" lon="0.96623">
        <ele>216.4</ele>
        <time>2016-11-16T13:52:41.000Z</time>
      </trkpt>
      <trkpt lat="43.68003" lon="0.96626">
        <ele>216.2</ele>
        <time>2016-11-16T13:52:52.000Z</time>
      </trkpt>
      <trkpt lat="43.67994" lon="0.96627">
        <ele>216.8</ele>
        <time>2016-11-16T13:53:00.000Z</time>
      </trkpt>
      <trkpt lat="43.67985" lon="0.96631">
        <ele>217.2</ele>
        <time>2016-11-16T13:53:09.000Z</time>
      </trkpt>
      <trkpt lat="43.67975" lon="0.96634">
        <ele>217.1</ele>
        <time>2016-11-16T13:53:18.000Z</time>
      </trkpt>
      <trkpt lat="43.67965" lon="0.96635">
        <ele>216.9</ele>
        <time>2016-11-16T13:53:28.000Z</time>
      </trkpt>
      <trkpt lat="43.67956" lon="0.96638">
        <ele>216.3</ele>
        <time>2016-11-16T13:53:38.000Z</time>
      </trkpt>
      <trkpt lat="43.67946" lon="0.96641">
        <ele>215.8</ele>
        <time>2016-11-16T13:53:47.000Z</time>
      </trkpt>
      <trkpt lat="43.67937" lon="0.96644">
        <ele>215.3</ele>
        <time>2016-11-16T13:53:56.000Z</time>
      </trkpt>
      <trkpt lat="43.67928" lon="0.96646">
        <ele>214.9</ele>
        <time>2016-11-16T13:54:03.000Z</time>
      </trkpt>
      <trkpt lat="43.67918" lon="0.96649">
        <ele>214.7</ele>
        <time>2016-11-16T13:54:12.000Z</time>
      </trkpt>
      <trkpt lat="43.67918" lon="0.96649">
        <ele>211.8</ele>
        <time>2016-11-16T13:56:45.000Z</time>
      </trkpt>
      <trkpt lat="43.67913" lon="0.9666">
        <ele>211.6</ele>
        <time>2016-11-16T13:59:00.000Z</time>
      </trkpt>
      <trkpt lat="43.67916" lon="0.96673">
        <ele>211.5</ele>
        <time>2016-11-16T13:59:41.000Z</time>
      </trkpt>
      <trkpt lat="43.6792" lon="0.96685">
        <ele>211.5</ele>
        <time>2016-11-16T13:59:48.000Z</time>
      </trkpt>
      <trkpt lat="43.6792" lon="0.96698">
        <ele>210.8</ele>
        <time>2016-11-16T14:00:02.000Z</time>
      </trkpt>
      <trkpt lat="43.67921" lon="0.9671">
        <ele>211</ele>
        <time>2016-11-16T14:00:13.000Z</time>
      </trkpt>
      <trkpt lat="43.67928" lon="0.96719">
        <ele>210.8</ele>
        <time>2016-11-16T14:00:22.000Z</time>
      </trkpt>
      <trkpt lat="43.67931" lon="0.96731">
        <ele>211</ele>
        <time>2016-11-16T14:00:31.000Z</time>
      </trkpt>
      <trkpt lat="43.67933" lon="0.96744">
        <ele>211.2</ele>
        <time>2016-11-16T14:00:39.000Z</time>
      </trkpt>
      <trkpt lat="43.67933" lon="0.96757">
        <ele>210.7</ele>
        <time>2016-11-16T14:00:47.000Z</time>
      </trkpt>
      <trkpt lat="43.67931" lon="0.96769">
        <ele>210.3</ele>
        <time>2016-11-16T14:00:55.000Z</time>
      </trkpt>
      <trkpt lat="43.67932" lon="0.96783">
        <ele>210.3</ele>
        <time>2016-11-16T14:01:04.000Z</time>
      </trkpt>
      <trkpt lat="43.67933" lon="0.96796">
        <ele>210.3</ele>
        <time>2016-11-16T14:01:14.000Z</time>
      </trkpt>
      <trkpt lat="43.67933" lon="0.96809">
        <ele>210.8</ele>
        <time>2016-11-16T14:01:23.000Z</time>
      </trkpt>
      <trkpt lat="43.67929" lon="0.9682">
        <ele>211.1</ele>
        <time>2016-11-16T14:01:37.000Z</time>
      </trkpt>
      <trkpt lat="43.67926" lon="0.96833">
        <ele>211.1</ele>
        <time>2016-11-16T14:01:48.000Z</time>
      </trkpt>
      <trkpt lat="43.67921" lon="0.96845">
        <ele>211.2</ele>
        <time>2016-11-16T14:01:58.000Z</time>
      </trkpt>
      <trkpt lat="43.67918" lon="0.96857">
        <ele>211.5</ele>
        <time>2016-11-16T14:02:10.000Z</time>
      </trkpt>
      <trkpt lat="43.67912" lon="0.96869">
        <ele>211.5</ele>
        <time>2016-11-16T14:02:19.000Z</time>
      </trkpt>
      <trkpt lat="43.67905" lon="0.96877">
        <ele>211.9</ele>
        <time>2016-11-16T14:02:28.000Z</time>
      </trkpt>
      <trkpt lat="43.67899" lon="0.96887">
        <ele>211.3</ele>
        <time>2016-11-16T14:02:39.000Z</time>
      </trkpt>
      <trkpt lat="43.67899" lon="0.969">
        <ele>210.6</ele>
        <time>2016-11-16T14:02:48.000Z</time>
      </trkpt>
      <trkpt lat="43.67902" lon="0.96913">
        <ele>210.3</ele>
        <time>2016-11-16T14:02:57.000Z</time>
      </trkpt>
      <trkpt lat="43.67904" lon="0.96926">
        <ele>210.1</ele>
        <time>2016-11-16T14:03:08.000Z</time>
      </trkpt>
      <trkpt lat="43.67904" lon="0.96938">
        <ele>210</ele>
        <time>2016-11-16T14:03:18.000Z</time>
      </trkpt>
      <trkpt lat="43.67906" lon="0.96951">
        <ele>209.9</ele>
        <time>2016-11-16T14:03:27.000Z</time>
      </trkpt>
      <trkpt lat="43.67907" lon="0.96964">
        <ele>209.9</ele>
        <time>2016-11-16T14:03:37.000Z</time>
      </trkpt>
      <trkpt lat="43.67907" lon="0.96977">
        <ele>210.1</ele>
        <time>2016-11-16T14:03:47.000Z</time>
      </trkpt>
      <trkpt lat="43.67907" lon="0.96991">
        <ele>210.1</ele>
        <time>2016-11-16T14:03:53.000Z</time>
      </trkpt>
      <trkpt lat="43.67906" lon="0.97005">
        <ele>210.3</ele>
        <time>2016-11-16T14:04:01.000Z</time>
      </trkpt>
      <trkpt lat="43.67906" lon="0.97019">
        <ele>210.4</ele>
        <time>2016-11-16T14:04:09.000Z</time>
      </trkpt>
      <trkpt lat="43.67907" lon="0.97031">
        <ele>210.5</ele>
        <time>2016-11-16T14:04:17.000Z</time>
      </trkpt>
      <trkpt lat="43.67908" lon="0.97046">
        <ele>181.5</ele>
        <time>2016-11-16T14:04:24.000Z</time>
      </trkpt>
      <trkpt lat="43.67908" lon="0.97061">
        <ele>181.5</ele>
        <time>2016-11-16T14:04:33.000Z</time>
      </trkpt>
      <trkpt lat="43.67907" lon="0.97072">
        <ele>181.4</ele>
        <time>2016-11-16T14:04:38.000Z</time>
      </trkpt>
      <trkpt lat="43.67907" lon="0.97086">
        <ele>181.4</ele>
        <time>2016-11-16T14:04:43.000Z</time>
      </trkpt>
      <trkpt lat="43.6791" lon="0.971">
        <ele>180.4</ele>
        <time>2016-11-16T14:04:48.000Z</time>
      </trkpt>
      <trkpt lat="43.67909" lon="0.9711">
        <ele>179.8</ele>
        <time>2016-11-16T14:04:57.000Z</time>
      </trkpt>
      <trkpt lat="43.6791" lon="0.97122">
        <ele>179</ele>
        <time>2016-11-16T14:05:06.000Z</time>
      </trkpt>
      <trkpt lat="43.67909" lon="0.97133">
        <ele>178.2</ele>
        <time>2016-11-16T14:05:16.000Z</time>
      </trkpt>
      <trkpt lat="43.6791" lon="0.97147">
        <ele>177.3</ele>
        <time>2016-11-16T14:05:24.000Z</time>
      </trkpt>
      <trkpt lat="43.6791" lon="0.97158">
        <ele>176.5</ele>
        <time>2016-11-16T14:05:33.000Z</time>
      </trkpt>
      <trkpt lat="43.67909" lon="0.97169">
        <ele>175.8</ele>
        <time>2016-11-16T14:05:38.000Z</time>
      </trkpt>
      <trkpt lat="43.67912" lon="0.97182">
        <ele>175.2</ele>
        <time>2016-11-16T14:05:48.000Z</time>
      </trkpt>
      <trkpt lat="43.67911" lon="0.97193">
        <ele>174.7</ele>
        <time>2016-11-16T14:05:57.000Z</time>
      </trkpt>
      <trkpt lat="43.67911" lon="0.972">
        <ele>174.4</ele>
        <time>2016-11-16T14:06:06.000Z</time>
      </trkpt>
      <trkpt lat="43.67911" lon="0.97207">
        <ele>174.1</ele>
        <time>2016-11-16T14:06:11.000Z</time>
      </trkpt>
      <trkpt lat="43.67911" lon="0.97216">
        <ele>207.1</ele>
        <time>2016-11-16T14:06:20.000Z</time>
      </trkpt>
      <trkpt lat="43.67912" lon="0.9723">
        <ele>173</ele>
        <time>2016-11-16T14:06:28.000Z</time>
      </trkpt>
      <trkpt lat="43.67912" lon="0.97245">
        <ele>172.3</ele>
        <time>2016-11-16T14:06:35.000Z</time>
      </trkpt>
      <trkpt lat="43.67914" lon="0.97254">
        <ele>171.9</ele>
        <time>2016-11-16T14:06:42.000Z</time>
      </trkpt>
      <trkpt lat="43.67914" lon="0.97264">
        <ele>171.6</ele>
        <time>2016-11-16T14:06:51.000Z</time>
      </trkpt>
      <trkpt lat="43.67915" lon="0.97274">
        <ele>171.2</ele>
        <time>2016-11-16T14:06:59.000Z</time>
      </trkpt>
      <trkpt lat="43.67919" lon="0.97281">
        <ele>171</ele>
        <time>2016-11-16T14:07:06.000Z</time>
      </trkpt>
      <trkpt lat="43.67923" lon="0.97288">
        <ele>170.9</ele>
        <time>2016-11-16T14:07:12.000Z</time>
      </trkpt>
      <trkpt lat="43.67928" lon="0.97299">
        <ele>206.7</ele>
        <time>2016-11-16T14:07:22.000Z</time>
      </trkpt>
      <trkpt lat="43.67931" lon="0.97317">
        <ele>170.2</ele>
        <time>2016-11-16T14:07:31.000Z</time>
      </trkpt>
      <trkpt lat="43.67935" lon="0.97327">
        <ele>169.9</ele>
        <time>2016-11-16T14:07:40.000Z</time>
      </trkpt>
      <trkpt lat="43.67938" lon="0.97339">
        <ele>169.7</ele>
        <time>2016-11-16T14:07:48.000Z</time>
      </trkpt>
      <trkpt lat="43.67941" lon="0.97348">
        <ele>169.8</ele>
        <time>2016-11-16T14:07:56.000Z</time>
      </trkpt>
      <trkpt lat="43.67945" lon="0.9736">
        <ele>169.8</ele>
        <time>2016-11-16T14:08:06.000Z</time>
      </trkpt>
      <trkpt lat="43.67949" lon="0.97369">
        <ele>169.9</ele>
        <time>2016-11-16T14:08:15.000Z</time>
      </trkpt>
      <trkpt lat="43.67951" lon="0.97381">
        <ele>169.9</ele>
        <time>2016-11-16T14:08:24.000Z</time>
      </trkpt>
      <trkpt lat="43.67955" lon="0.97393">
        <ele>170</ele>
        <time>2016-11-16T14:08:34.000Z</time>
      </trkpt>
      <trkpt lat="43.67958" lon="0.97404">
        <ele>170.1</ele>
        <time>2016-11-16T14:08:44.000Z</time>
      </trkpt>
      <trkpt lat="43.67961" lon="0.97415">
        <ele>170.1</ele>
        <time>2016-11-16T14:08:53.000Z</time>
      </trkpt>
      <trkpt lat="43.67965" lon="0.97429">
        <ele>169.9</ele>
        <time>2016-11-16T14:09:01.000Z</time>
      </trkpt>
      <trkpt lat="43.67969" lon="0.9744">
        <ele>169.6</ele>
        <time>2016-11-16T14:09:10.000Z</time>
      </trkpt>
      <trkpt lat="43.67972" lon="0.97456">
        <ele>169.1</ele>
        <time>2016-11-16T14:09:20.000Z</time>
      </trkpt>
      <trkpt lat="43.67973" lon="0.97467">
        <ele>168.7</ele>
        <time>2016-11-16T14:09:28.000Z</time>
      </trkpt>
      <trkpt lat="43.67977" lon="0.9748">
        <ele>168.3</ele>
        <time>2016-11-16T14:09:37.000Z</time>
      </trkpt>
      <trkpt lat="43.67981" lon="0.97493">
        <ele>167.9</ele>
        <time>2016-11-16T14:09:44.000Z</time>
      </trkpt>
      <trkpt lat="43.67982" lon="0.97508">
        <ele>167.1</ele>
        <time>2016-11-16T14:09:52.000Z</time>
      </trkpt>
      <trkpt lat="43.67983" lon="0.97522">
        <ele>166.3</ele>
        <time>2016-11-16T14:10:00.000Z</time>
      </trkpt>
      <trkpt lat="43.67984" lon="0.97536">
        <ele>165.6</ele>
        <time>2016-11-16T14:10:09.000Z</time>
      </trkpt>
      <trkpt lat="43.67985" lon="0.97547">
        <ele>164.9</ele>
        <time>2016-11-16T14:10:19.000Z</time>
      </trkpt>
      <trkpt lat="43.67985" lon="0.9756">
        <ele>164.2</ele>
        <time>2016-11-16T14:10:29.000Z</time>
      </trkpt>
      <trkpt lat="43.67985" lon="0.97574">
        <ele>163.4</ele>
        <time>2016-11-16T14:10:40.000Z</time>
      </trkpt>
      <trkpt lat="43.67984" lon="0.97589">
        <ele>162.5</ele>
        <time>2016-11-16T14:10:49.000Z</time>
      </trkpt>
      <trkpt lat="43.67983" lon="0.97601">
        <ele>161.8</ele>
        <time>2016-11-16T14:10:58.000Z</time>
      </trkpt>
      <trkpt lat="43.67982" lon="0.97612">
        <ele>161.1</ele>
        <time>2016-11-16T14:11:08.000Z</time>
      </trkpt>
      <trkpt lat="43.67982" lon="0.97622">
        <ele>160.6</ele>
        <time>2016-11-16T14:11:18.000Z</time>
      </trkpt>
      <trkpt lat="43.67981" lon="0.97633">
        <ele>159.9</ele>
        <time>2016-11-16T14:11:28.000Z</time>
      </trkpt>
      <trkpt lat="43.67975" lon="0.97648">
        <ele>194</ele>
        <time>2016-11-16T14:11:38.000Z</time>
      </trkpt>
      <trkpt lat="43.67973" lon="0.97661">
        <ele>193.9</ele>
        <time>2016-11-16T14:11:47.000Z</time>
      </trkpt>
      <trkpt lat="43.67972" lon="0.97673">
        <ele>193.6</ele>
        <time>2016-11-16T14:11:57.000Z</time>
      </trkpt>
      <trkpt lat="43.67968" lon="0.97685">
        <ele>192.9</ele>
        <time>2016-11-16T14:12:06.000Z</time>
      </trkpt>
      <trkpt lat="43.67973" lon="0.97696">
        <ele>192.4</ele>
        <time>2016-11-16T14:12:20.000Z</time>
      </trkpt>
      <trkpt lat="43.67982" lon="0.97704">
        <ele>192</ele>
        <time>2016-11-16T14:12:28.000Z</time>
      </trkpt>
      <trkpt lat="43.67991" lon="0.97708">
        <ele>191.7</ele>
        <time>2016-11-16T14:12:38.000Z</time>
      </trkpt>
      <trkpt lat="43.67998" lon="0.97717">
        <ele>191.5</ele>
        <time>2016-11-16T14:12:47.000Z</time>
      </trkpt>
      <trkpt lat="43.68005" lon="0.97726">
        <ele>191.5</ele>
        <time>2016-11-16T14:12:56.000Z</time>
      </trkpt>
      <trkpt lat="43.68012" lon="0.97735">
        <ele>191.9</ele>
        <time>2016-11-16T14:13:06.000Z</time>
      </trkpt>
      <trkpt lat="43.68021" lon="0.97742">
        <ele>192.1</ele>
        <time>2016-11-16T14:13:18.000Z</time>
      </trkpt>
      <trkpt lat="43.68029" lon="0.97749">
        <ele>191.8</ele>
        <time>2016-11-16T14:13:26.000Z</time>
      </trkpt>
      <trkpt lat="43.68033" lon="0.9776">
        <ele>191.2</ele>
        <time>2016-11-16T14:13:37.000Z</time>
      </trkpt>
      <trkpt lat="43.6804" lon="0.97769">
        <ele>191.2</ele>
        <time>2016-11-16T14:13:45.000Z</time>
      </trkpt>
      <trkpt lat="43.68049" lon="0.97774">
        <ele>191.3</ele>
        <time>2016-11-16T14:13:52.000Z</time>
      </trkpt>
      <trkpt lat="43.68057" lon="0.97781">
        <ele>161.1</ele>
        <time>2016-11-16T14:14:00.000Z</time>
      </trkpt>
      <trkpt lat="43.68063" lon="0.97789">
        <ele>162.1</ele>
        <time>2016-11-16T14:14:07.000Z</time>
      </trkpt>
      <trkpt lat="43.68066" lon="0.97794">
        <ele>162.7</ele>
        <time>2016-11-16T14:14:16.000Z</time>
      </trkpt>
      <trkpt lat="43.68071" lon="0.97797">
        <ele>163.2</ele>
        <time>2016-11-16T14:14:25.000Z</time>
      </trkpt>
      <trkpt lat="43.68077" lon="0.97802">
        <ele>163.9</ele>
        <time>2016-11-16T14:14:27.000Z</time>
      </trkpt>
      <trkpt lat="43.68082" lon="0.97808">
        <ele>191.6</ele>
        <time>2016-11-16T14:14:36.000Z</time>
      </trkpt>
      <trkpt lat="43.6809" lon="0.97817">
        <ele>192.6</ele>
        <time>2016-11-16T14:14:49.000Z</time>
      </trkpt>
      <trkpt lat="43.68092" lon="0.9783">
        <ele>193.3</ele>
        <time>2016-11-16T14:15:01.000Z</time>
      </trkpt>
      <trkpt lat="43.6809" lon="0.97843">
        <ele>193.3</ele>
        <time>2016-11-16T14:15:09.000Z</time>
      </trkpt>
      <trkpt lat="43.68092" lon="0.97857">
        <ele>193.2</ele>
        <time>2016-11-16T14:15:16.000Z</time>
      </trkpt>
      <trkpt lat="43.68093" lon="0.97871">
        <ele>193.2</ele>
        <time>2016-11-16T14:15:24.000Z</time>
      </trkpt>
      <trkpt lat="43.68092" lon="0.97884">
        <ele>192.8</ele>
        <time>2016-11-16T14:15:34.000Z</time>
      </trkpt>
      <trkpt lat="43.68093" lon="0.97898">
        <ele>192.9</ele>
        <time>2016-11-16T14:15:45.000Z</time>
      </trkpt>
      <trkpt lat="43.68095" lon="0.97911">
        <ele>193.2</ele>
        <time>2016-11-16T14:15:54.000Z</time>
      </trkpt>
      <trkpt lat="43.68097" lon="0.97923">
        <ele>193.4</ele>
        <time>2016-11-16T14:16:03.000Z</time>
      </trkpt>
      <trkpt lat="43.68099" lon="0.97936">
        <ele>193.8</ele>
        <time>2016-11-16T14:16:13.000Z</time>
      </trkpt>
      <trkpt lat="43.68102" lon="0.97948">
        <ele>194.3</ele>
        <time>2016-11-16T14:16:22.000Z</time>
      </trkpt>
      <trkpt lat="43.68109" lon="0.97955">
        <ele>194.8</ele>
        <time>2016-11-16T14:16:35.000Z</time>
      </trkpt>
      <trkpt lat="43.68118" lon="0.97958">
        <ele>195.5</ele>
        <time>2016-11-16T14:16:45.000Z</time>
      </trkpt>
      <trkpt lat="43.68126" lon="0.97964">
        <ele>196</ele>
        <time>2016-11-16T14:16:58.000Z</time>
      </trkpt>
      <trkpt lat="43.68133" lon="0.97974">
        <ele>197.8</ele>
        <time>2016-11-16T14:17:22.000Z</time>
      </trkpt>
      <trkpt lat="43.68142" lon="0.9798">
        <ele>198.2</ele>
        <time>2016-11-16T14:17:31.000Z</time>
      </trkpt>
      <trkpt lat="43.68151" lon="0.97981">
        <ele>198.3</ele>
        <time>2016-11-16T14:17:41.000Z</time>
      </trkpt>
      <trkpt lat="43.6816" lon="0.97984">
        <ele>199.2</ele>
        <time>2016-11-16T14:17:51.000Z</time>
      </trkpt>
      <trkpt lat="43.68168" lon="0.97993">
        <ele>199.8</ele>
        <time>2016-11-16T14:18:01.000Z</time>
      </trkpt>
      <trkpt lat="43.68176" lon="0.97999">
        <ele>200.6</ele>
        <time>2016-11-16T14:18:14.000Z</time>
      </trkpt>
      <trkpt lat="43.68184" lon="0.98005">
        <ele>201.6</ele>
        <time>2016-11-16T14:18:29.000Z</time>
      </trkpt>
      <trkpt lat="43.68189" lon="0.98015">
        <ele>203.8</ele>
        <time>2016-11-16T14:18:47.000Z</time>
      </trkpt>
      <trkpt lat="43.68195" lon="0.98025">
        <ele>206</ele>
        <time>2016-11-16T14:19:02.000Z</time>
      </trkpt>
      <trkpt lat="43.682" lon="0.98036">
        <ele>207.9</ele>
        <time>2016-11-16T14:19:15.000Z</time>
      </trkpt>
      <trkpt lat="43.68206" lon="0.98046">
        <ele>209.3</ele>
        <time>2016-11-16T14:19:28.000Z</time>
      </trkpt>
      <trkpt lat="43.68213" lon="0.98056">
        <ele>211.3</ele>
        <time>2016-11-16T14:19:41.000Z</time>
      </trkpt>
      <trkpt lat="43.6822" lon="0.98064">
        <ele>212.8</ele>
        <time>2016-11-16T14:19:55.000Z</time>
      </trkpt>
      <trkpt lat="43.68227" lon="0.98072">
        <ele>214.4</ele>
        <time>2016-11-16T14:20:13.000Z</time>
      </trkpt>
      <trkpt lat="43.68236" lon="0.98079">
        <ele>215.4</ele>
        <time>2016-11-16T14:20:24.000Z</time>
      </trkpt>
      <trkpt lat="43.68243" lon="0.98088">
        <ele>217.7</ele>
        <time>2016-11-16T14:20:37.000Z</time>
      </trkpt>
      <trkpt lat="43.6825" lon="0.98097">
        <ele>220.7</ele>
        <time>2016-11-16T14:21:10.000Z</time>
      </trkpt>
      <trkpt lat="43.68259" lon="0.98105">
        <ele>221.1</ele>
        <time>2016-11-16T14:22:37.000Z</time>
      </trkpt>
      <trkpt lat="43.68268" lon="0.9811">
        <ele>221.2</ele>
        <time>2016-11-16T14:22:44.000Z</time>
      </trkpt>
      <trkpt lat="43.68276" lon="0.98117">
        <ele>221.2</ele>
        <time>2016-11-16T14:22:53.000Z</time>
      </trkpt>
      <trkpt lat="43.68284" lon="0.98122">
        <ele>221</ele>
        <time>2016-11-16T14:23:03.000Z</time>
      </trkpt>
      <trkpt lat="43.6829" lon="0.98132">
        <ele>220.1</ele>
        <time>2016-11-16T14:23:12.000Z</time>
      </trkpt>
      <trkpt lat="43.68295" lon="0.98144">
        <ele>219.7</ele>
        <time>2016-11-16T14:23:22.000Z</time>
      </trkpt>
      <trkpt lat="43.68301" lon="0.98154">
        <ele>219.4</ele>
        <time>2016-11-16T14:23:32.000Z</time>
      </trkpt>
      <trkpt lat="43.68308" lon="0.98162">
        <ele>219.3</ele>
        <time>2016-11-16T14:23:40.000Z</time>
      </trkpt>
      <trkpt lat="43.68314" lon="0.98172">
        <ele>219.4</ele>
        <time>2016-11-16T14:23:50.000Z</time>
      </trkpt>
      <trkpt lat="43.6832" lon="0.98181">
        <ele>219.5</ele>
        <time>2016-11-16T14:23:59.000Z</time>
      </trkpt>
      <trkpt lat="43.68326" lon="0.98192">
        <ele>219.6</ele>
        <time>2016-11-16T14:24:09.000Z</time>
      </trkpt>
      <trkpt lat="43.68334" lon="0.98204">
        <ele>181.5</ele>
        <time>2016-11-16T14:24:19.000Z</time>
      </trkpt>
      <trkpt lat="43.68339" lon="0.98211">
        <ele>181.3</ele>
        <time>2016-11-16T14:24:28.000Z</time>
      </trkpt>
      <trkpt lat="43.68345" lon="0.98222">
        <ele>180.9</ele>
        <time>2016-11-16T14:24:38.000Z</time>
      </trkpt>
      <trkpt lat="43.68352" lon="0.98231">
        <ele>180.6</ele>
        <time>2016-11-16T14:24:47.000Z</time>
      </trkpt>
      <trkpt lat="43.68359" lon="0.98238">
        <ele>180.2</ele>
        <time>2016-11-16T14:24:56.000Z</time>
      </trkpt>
      <trkpt lat="43.68365" lon="0.98247">
        <ele>179.9</ele>
        <time>2016-11-16T14:25:04.000Z</time>
      </trkpt>
      <trkpt lat="43.68371" lon="0.98255">
        <ele>179.6</ele>
        <time>2016-11-16T14:25:12.000Z</time>
      </trkpt>
      <trkpt lat="43.68375" lon="0.98263">
        <ele>179.4</ele>
        <time>2016-11-16T14:25:22.000Z</time>
      </trkpt>
      <trkpt lat="43.68381" lon="0.98268">
        <ele>179.2</ele>
        <time>2016-11-16T14:25:32.000Z</time>
      </trkpt>
      <trkpt lat="43.68388" lon="0.98277">
        <ele>178.9</ele>
        <time>2016-11-16T14:25:40.000Z</time>
      </trkpt>
      <trkpt lat="43.68396" lon="0.98282">
        <ele>178.7</ele>
        <time>2016-11-16T14:25:48.000Z</time>
      </trkpt>
      <trkpt lat="43.68406" lon="0.98295">
        <ele>216.8</ele>
        <time>2016-11-16T14:25:57.000Z</time>
      </trkpt>
      <trkpt lat="43.68414" lon="0.98303">
        <ele>216.6</ele>
        <time>2016-11-16T14:26:06.000Z</time>
      </trkpt>
      <trkpt lat="43.6842" lon="0.98314">
        <ele>216.5</ele>
        <time>2016-11-16T14:26:14.000Z</time>
      </trkpt>
      <trkpt lat="43.68427" lon="0.98323">
        <ele>216.1</ele>
        <time>2016-11-16T14:26:24.000Z</time>
      </trkpt>
      <trkpt lat="43.68434" lon="0.98332">
        <ele>215.7</ele>
        <time>2016-11-16T14:26:33.000Z</time>
      </trkpt>
      <trkpt lat="43.6844" lon="0.98342">
        <ele>215.5</ele>
        <time>2016-11-16T14:26:42.000Z</time>
      </trkpt>
      <trkpt lat="43.68446" lon="0.98352">
        <ele>215.2</ele>
        <time>2016-11-16T14:26:53.000Z</time>
      </trkpt>
      <trkpt lat="43.68452" lon="0.98362">
        <ele>215.3</ele>
        <time>2016-11-16T14:27:01.000Z</time>
      </trkpt>
      <trkpt lat="43.68458" lon="0.98371">
        <ele>214.8</ele>
        <time>2016-11-16T14:27:10.000Z</time>
      </trkpt>
      <trkpt lat="43.68464" lon="0.98382">
        <ele>214.3</ele>
        <time>2016-11-16T14:27:18.000Z</time>
      </trkpt>
      <trkpt lat="43.6847" lon="0.98392">
        <ele>213.1</ele>
        <time>2016-11-16T14:27:29.000Z</time>
      </trkpt>
      <trkpt lat="43.68476" lon="0.98404">
        <ele>212.9</ele>
        <time>2016-11-16T14:27:37.000Z</time>
      </trkpt>
      <trkpt lat="43.68479" lon="0.98416">
        <ele>213.6</ele>
        <time>2016-11-16T14:27:45.000Z</time>
      </trkpt>
      <trkpt lat="43.68482" lon="0.98429">
        <ele>213</ele>
        <time>2016-11-16T14:27:54.000Z</time>
      </trkpt>
      <trkpt lat="43.68484" lon="0.98442">
        <ele>213.1</ele>
        <time>2016-11-16T14:28:02.000Z</time>
      </trkpt>
      <trkpt lat="43.68485" lon="0.98455">
        <ele>212.8</ele>
        <time>2016-11-16T14:28:11.000Z</time>
      </trkpt>
      <trkpt lat="43.68484" lon="0.98469">
        <ele>212.6</ele>
        <time>2016-11-16T14:28:21.000Z</time>
      </trkpt>
      <trkpt lat="43.6848" lon="0.98481">
        <ele>212.5</ele>
        <time>2016-11-16T14:28:29.000Z</time>
      </trkpt>
      <trkpt lat="43.68477" lon="0.98494">
        <ele>212.7</ele>
        <time>2016-11-16T14:28:38.000Z</time>
      </trkpt>
      <trkpt lat="43.68474" lon="0.98507">
        <ele>213.1</ele>
        <time>2016-11-16T14:28:48.000Z</time>
      </trkpt>
      <trkpt lat="43.6847" lon="0.98518">
        <ele>213.8</ele>
        <time>2016-11-16T14:28:57.000Z</time>
      </trkpt>
      <trkpt lat="43.68466" lon="0.9853">
        <ele>214.6</ele>
        <time>2016-11-16T14:29:06.000Z</time>
      </trkpt>
      <trkpt lat="43.68463" lon="0.98542">
        <ele>215.5</ele>
        <time>2016-11-16T14:29:14.000Z</time>
      </trkpt>
      <trkpt lat="43.68464" lon="0.98555">
        <ele>216.2</ele>
        <time>2016-11-16T14:29:22.000Z</time>
      </trkpt>
      <trkpt lat="43.6847" lon="0.98565">
        <ele>216.8</ele>
        <time>2016-11-16T14:29:29.000Z</time>
      </trkpt>
      <trkpt lat="43.68478" lon="0.98573">
        <ele>217.3</ele>
        <time>2016-11-16T14:29:36.000Z</time>
      </trkpt>
      <trkpt lat="43.68484" lon="0.98582">
        <ele>217.9</ele>
        <time>2016-11-16T14:29:46.000Z</time>
      </trkpt>
      <trkpt lat="43.68493" lon="0.98589">
        <ele>218.6</ele>
        <time>2016-11-16T14:29:55.000Z</time>
      </trkpt>
      <trkpt lat="43.68502" lon="0.98594">
        <ele>219</ele>
        <time>2016-11-16T14:30:04.000Z</time>
      </trkpt>
      <trkpt lat="43.6851" lon="0.98602">
        <ele>219.8</ele>
        <time>2016-11-16T14:30:15.000Z</time>
      </trkpt>
      <trkpt lat="43.68518" lon="0.9861">
        <ele>220.4</ele>
        <time>2016-11-16T14:30:25.000Z</time>
      </trkpt>
      <trkpt lat="43.68526" lon="0.98617">
        <ele>221.1</ele>
        <time>2016-11-16T14:30:34.000Z</time>
      </trkpt>
      <trkpt lat="43.68534" lon="0.98625">
        <ele>221.8</ele>
        <time>2016-11-16T14:30:43.000Z</time>
      </trkpt>
      <trkpt lat="43.68543" lon="0.98631">
        <ele>222.2</ele>
        <time>2016-11-16T14:30:52.000Z</time>
      </trkpt>
      <trkpt lat="43.68551" lon="0.98639">
        <ele>223</ele>
        <time>2016-11-16T14:31:02.000Z</time>
      </trkpt>
      <trkpt lat="43.68558" lon="0.98645">
        <ele>223.9</ele>
        <time>2016-11-16T14:31:12.000Z</time>
      </trkpt>
      <trkpt lat="43.68566" lon="0.98654">
        <ele>224.7</ele>
        <time>2016-11-16T14:31:24.000Z</time>
      </trkpt>
      <trkpt lat="43.68571" lon="0.98664">
        <ele>225.5</ele>
        <time>2016-11-16T14:31:36.000Z</time>
      </trkpt>
      <trkpt lat="43.68567" lon="0.98677">
        <ele>226.5</ele>
        <time>2016-11-16T14:31:46.000Z</time>
      </trkpt>
      <trkpt lat="43.68562" lon="0.98689">
        <ele>228.4</ele>
        <time>2016-11-16T14:32:09.000Z</time>
      </trkpt>
      <trkpt lat="43.68558" lon="0.98701">
        <ele>228.8</ele>
        <time>2016-11-16T14:32:19.000Z</time>
      </trkpt>
      <trkpt lat="43.68554" lon="0.98714">
        <ele>229.1</ele>
        <time>2016-11-16T14:32:28.000Z</time>
      </trkpt>
      <trkpt lat="43.68547" lon="0.98723">
        <ele>229.8</ele>
        <time>2016-11-16T14:32:38.000Z</time>
      </trkpt>
      <trkpt lat="43.6854" lon="0.98733">
        <ele>229.6</ele>
        <time>2016-11-16T14:32:47.000Z</time>
      </trkpt>
      <trkpt lat="43.68534" lon="0.98742">
        <ele>230.1</ele>
        <time>2016-11-16T14:32:55.000Z</time>
      </trkpt>
      <trkpt lat="43.6853" lon="0.98753">
        <ele>230.7</ele>
        <time>2016-11-16T14:33:05.000Z</time>
      </trkpt>
      <trkpt lat="43.68525" lon="0.98765">
        <ele>231.1</ele>
        <time>2016-11-16T14:33:14.000Z</time>
      </trkpt>
      <trkpt lat="43.6852" lon="0.98776">
        <ele>231.8</ele>
        <time>2016-11-16T14:33:22.000Z</time>
      </trkpt>
      <trkpt lat="43.68515" lon="0.98787">
        <ele>232.3</ele>
        <time>2016-11-16T14:33:31.000Z</time>
      </trkpt>
      <trkpt lat="43.6851" lon="0.98797">
        <ele>232.5</ele>
        <time>2016-11-16T14:33:40.000Z</time>
      </trkpt>
      <trkpt lat="43.68506" lon="0.98809">
        <ele>232.8</ele>
        <time>2016-11-16T14:33:47.000Z</time>
      </trkpt>
      <trkpt lat="43.68501" lon="0.9882">
        <ele>233.3</ele>
        <time>2016-11-16T14:33:56.000Z</time>
      </trkpt>
      <trkpt lat="43.68498" lon="0.98833">
        <ele>233.6</ele>
        <time>2016-11-16T14:34:07.000Z</time>
      </trkpt>
      <trkpt lat="43.68493" lon="0.98845">
        <ele>233.8</ele>
        <time>2016-11-16T14:34:15.000Z</time>
      </trkpt>
      <trkpt lat="43.68487" lon="0.98855">
        <ele>233.8</ele>
        <time>2016-11-16T14:34:23.000Z</time>
      </trkpt>
      <trkpt lat="43.68483" lon="0.98866">
        <ele>233.8</ele>
        <time>2016-11-16T14:34:33.000Z</time>
      </trkpt>
      <trkpt lat="43.68479" lon="0.98879">
        <ele>234</ele>
        <time>2016-11-16T14:34:45.000Z</time>
      </trkpt>
      <trkpt lat="43.68474" lon="0.9889">
        <ele>234.1</ele>
        <time>2016-11-16T14:34:55.000Z</time>
      </trkpt>
      <trkpt lat="43.6847" lon="0.98902">
        <ele>234.6</ele>
        <time>2016-11-16T14:35:05.000Z</time>
      </trkpt>
      <trkpt lat="43.68465" lon="0.98914">
        <ele>234.9</ele>
        <time>2016-11-16T14:35:15.000Z</time>
      </trkpt>
      <trkpt lat="43.68461" lon="0.98925">
        <ele>235.1</ele>
        <time>2016-11-16T14:35:24.000Z</time>
      </trkpt>
      <trkpt lat="43.68457" lon="0.98936">
        <ele>235.1</ele>
        <time>2016-11-16T14:35:33.000Z</time>
      </trkpt>
      <trkpt lat="43.68452" lon="0.98947">
        <ele>235.6</ele>
        <time>2016-11-16T14:35:52.000Z</time>
      </trkpt>
      <trkpt lat="43.68447" lon="0.98958">
        <ele>235.8</ele>
        <time>2016-11-16T14:36:02.000Z</time>
      </trkpt>
      <trkpt lat="43.68442" lon="0.98969">
        <ele>235.9</ele>
        <time>2016-11-16T14:36:11.000Z</time>
      </trkpt>
      <trkpt lat="43.68437" lon="0.9898">
        <ele>235.9</ele>
        <time>2016-11-16T14:36:21.000Z</time>
      </trkpt>
      <trkpt lat="43.68433" lon="0.98992">
        <ele>236</ele>
        <time>2016-11-16T14:36:30.000Z</time>
      </trkpt>
      <trkpt lat="43.68428" lon="0.99005">
        <ele>236.5</ele>
        <time>2016-11-16T14:36:40.000Z</time>
      </trkpt>
      <trkpt lat="43.68423" lon="0.99015">
        <ele>236.9</ele>
        <time>2016-11-16T14:36:49.000Z</time>
      </trkpt>
      <trkpt lat="43.68417" lon="0.99025">
        <ele>236.8</ele>
        <time>2016-11-16T14:36:57.000Z</time>
      </trkpt>
      <trkpt lat="43.68412" lon="0.99036">
        <ele>236.6</ele>
        <time>2016-11-16T14:37:06.000Z</time>
      </trkpt>
      <trkpt lat="43.68407" lon="0.99047">
        <ele>236.5</ele>
        <time>2016-11-16T14:37:15.000Z</time>
      </trkpt>
      <trkpt lat="43.68402" lon="0.99058">
        <ele>236.5</ele>
        <time>2016-11-16T14:37:26.000Z</time>
      </trkpt>
      <trkpt lat="43.68399" lon="0.99071">
        <ele>236.5</ele>
        <time>2016-11-16T14:37:34.000Z</time>
      </trkpt>
      <trkpt lat="43.68394" lon="0.99082">
        <ele>236.6</ele>
        <time>2016-11-16T14:37:44.000Z</time>
      </trkpt>
      <trkpt lat="43.68388" lon="0.99092">
        <ele>236.7</ele>
        <time>2016-11-16T14:37:54.000Z</time>
      </trkpt>
      <trkpt lat="43.68383" lon="0.99104">
        <ele>237.1</ele>
        <time>2016-11-16T14:38:08.000Z</time>
      </trkpt>
      <trkpt lat="43.68379" lon="0.99116">
        <ele>237.4</ele>
        <time>2016-11-16T14:38:18.000Z</time>
      </trkpt>
      <trkpt lat="43.68373" lon="0.99126">
        <ele>237.9</ele>
        <time>2016-11-16T14:38:27.000Z</time>
      </trkpt>
      <trkpt lat="43.68367" lon="0.99137">
        <ele>238.2</ele>
        <time>2016-11-16T14:38:35.000Z</time>
      </trkpt>
      <trkpt lat="43.68364" lon="0.99148">
        <ele>238.5</ele>
        <time>2016-11-16T14:38:54.000Z</time>
      </trkpt>
      <trkpt lat="43.6836" lon="0.99162">
        <ele>201.1</ele>
        <time>2016-11-16T14:39:04.000Z</time>
      </trkpt>
      <trkpt lat="43.68354" lon="0.99171">
        <ele>201.5</ele>
        <time>2016-11-16T14:39:13.000Z</time>
      </trkpt>
      <trkpt lat="43.68349" lon="0.99181">
        <ele>201.7</ele>
        <time>2016-11-16T14:39:22.000Z</time>
      </trkpt>
      <trkpt lat="43.68344" lon="0.99194">
        <ele>201.6</ele>
        <time>2016-11-16T14:39:32.000Z</time>
      </trkpt>
      <trkpt lat="43.68341" lon="0.99205">
        <ele>201.5</ele>
        <time>2016-11-16T14:39:41.000Z</time>
      </trkpt>
      <trkpt lat="43.68332" lon="0.99214">
        <ele>201.8</ele>
        <time>2016-11-16T14:39:49.000Z</time>
      </trkpt>
      <trkpt lat="43.68328" lon="0.99226">
        <ele>201.5</ele>
        <time>2016-11-16T14:39:58.000Z</time>
      </trkpt>
      <trkpt lat="43.68323" lon="0.99233">
        <ele>201.5</ele>
        <time>2016-11-16T14:40:08.000Z</time>
      </trkpt>
      <trkpt lat="43.68318" lon="0.99244">
        <ele>201.5</ele>
        <time>2016-11-16T14:40:15.000Z</time>
      </trkpt>
      <trkpt lat="43.68312" lon="0.99253">
        <ele>201.7</ele>
        <time>2016-11-16T14:40:25.000Z</time>
      </trkpt>
      <trkpt lat="43.68308" lon="0.99263">
        <ele>239.3</ele>
        <time>2016-11-16T14:40:33.000Z</time>
      </trkpt>
      <trkpt lat="43.68305" lon="0.99277">
        <ele>201.5</ele>
        <time>2016-11-16T14:40:40.000Z</time>
      </trkpt>
      <trkpt lat="43.68303" lon="0.99288">
        <ele>201.4</ele>
        <time>2016-11-16T14:40:46.000Z</time>
      </trkpt>
      <trkpt lat="43.68299" lon="0.99298">
        <ele>201.5</ele>
        <time>2016-11-16T14:40:53.000Z</time>
      </trkpt>
      <trkpt lat="43.68296" lon="0.99308">
        <ele>201.6</ele>
        <time>2016-11-16T14:40:59.000Z</time>
      </trkpt>
      <trkpt lat="43.68292" lon="0.99312">
        <ele>202</ele>
        <time>2016-11-16T14:41:03.000Z</time>
      </trkpt>
      <trkpt lat="43.68285" lon="0.99319">
        <ele>202.7</ele>
        <time>2016-11-16T14:41:14.000Z</time>
      </trkpt>
      <trkpt lat="43.68279" lon="0.99326">
        <ele>203.3</ele>
        <time>2016-11-16T14:41:28.000Z</time>
      </trkpt>
      <trkpt lat="43.68274" lon="0.99333">
        <ele>203.8</ele>
        <time>2016-11-16T14:41:37.000Z</time>
      </trkpt>
      <trkpt lat="43.68268" lon="0.99343">
        <ele>204.3</ele>
        <time>2016-11-16T14:41:44.000Z</time>
      </trkpt>
      <trkpt lat="43.68261" lon="0.99354">
        <ele>204.8</ele>
        <time>2016-11-16T14:41:51.000Z</time>
      </trkpt>
      <trkpt lat="43.68257" lon="0.99365">
        <ele>204.9</ele>
        <time>2016-11-16T14:41:59.000Z</time>
      </trkpt>
      <trkpt lat="43.68262" lon="0.99374">
        <ele>204</ele>
        <time>2016-11-16T14:42:43.000Z</time>
      </trkpt>
    </trkseg>
  </trk>
</gpx>